[[{"header":{"parameterUnit":"m.s-1","parameterCategory":1,"la1":31.0,"la2":29.5877,"lo1":-88.7671,"lo2":-86.6584,"dy":0.0162,"dx":0.0185,"nx":115,"ny":88,"refTime":"2024-09-19T06:00:00:Z","depth":0,"parameterNumber":2,"parameterNumberName":"U-component_of_WINDS"},"data":[0.0,0.0,0.0,0.0,0.0,0.0,0.0,0.0,0.0,0.0,0.0,0.0,0.0,0.0,0.0,0.0,0.0,0.0,0.0,0.0,0.0,0.0,0.0,0.0,0.0,0.0,0.0,0.0,0.0,0.0,0.0,0.0,0.0,0.0,0.0,0.0,0.0,0.0,0.0,0.0,0.0,0.0,0.0,0.0,0.0,0.0,0.0,0.0,0.0,0.0,0.0,0.0,0.0,0.0,0.0,0.0,0.0,0.0,0.0,0.0,0.0,0.0,0.0,0.0,0.0,0.0,0.0,0.0,0.0,0.0,0.0,0.0,0.0,0.0,0.0,0.0,0.0,0.0,0.0,0.0,0.0,0.0,0.0,0.0,0.0,0.0,0.0,0.0,0.0,0.0,0.0,0.0,0.0,0.0,0.0,0.0,0.0,0.0,0.0,0.0,0.0,0.0,0.0,0.0,0.0,0.0,0.0,0.0,0.0,0.0,0.0,0.0,0.0,0.0,0.0,0.0,0.0,0.0,0.0,0.0,0.0,0.0,0.0,0.0,0.0,0.0,0.0,0.0,0.0,0.0,0.0,0.0,0.0,0.0,0.0,0.0,0.0,0.0,0.0,0.0,0.0,0.0,0.0,0.0,0.0,0.0,0.0,0.0,0.0,0.0,0.0,0.0,0.0,0.0,0.0,0.0,0.0,0.0,0.0,0.0,0.0,0.0,0.0,0.0,0.0,0.0,0.0,0.0,0.0,0.0,0.0,0.0,0.0,0.0,0.0,0.0,0.0,0.0,0.0,0.0,0.0,0.0,0.0,0.0,0.0,0.0,0.0,0.0,0.0,0.0,0.0,0.0,0.0,0.0,0.0,0.0,0.0,0.0,0.0,0.0,0.0,0.0,0.0,0.0,0.0,0.0,0.0,0.0,0.0,0.0,0.0,0.0,0.0,0.0,0.0,0.0,0.0,0.0,0.0,0.0,0.0,0.0,0.0,0.0,0.0,0.0,0.0,0.0,0.0,0.0,0.0,0.0,0.0,0.0,0.0,0.0,0.0,0.0,0.0,0.0,0.0,0.0,0.0,0.0,0.0,0.0,0.0,0.0,0.0,0.0,0.0,0.0,0.0,0.0,0.0,0.0,0.0,0.0,0.0,0.0,0.0,0.0,0.0,0.0,0.0,0.0,0.0,0.0,0.0,0.0,0.0,0.0,0.0,0.0,0.0,0.0,0.0,0.0,0.0,0.0,0.0,0.0,0.0,0.0,0.0,0.0,0.0,0.0,0.0,0.0,0.0,0.0,0.0,0.0,0.0,0.0,0.0,0.0,0.0,0.0,0.0,0.0,0.0,0.0,0.0,0.0,0.0,0.0,0.0,0.0,0.0,0.0,0.0,0.0,0.0,0.0,0.0,0.0,0.0,0.0,0.0,0.0,0.0,0.0,0.0,0.0,0.0,0.0,0.0,0.0,0.0,0.0,0.0,0.0,0.0,0.0,0.0,0.0,0.0,0.0,0.0,0.0,0.0,0.0,0.0,0.0,0.0,0.0,0.0,0.0,0.0,0.0,0.0,0.0,0.0,0.0,0.0,0.0,0.0,0.0,0.0,0.0,0.0,0.0,0.0,0.0,0.0,0.0,0.0,0.0,0.0,0.0,0.0,0.0,0.0,0.0,0.0,0.0,0.0,0.0,0.0,0.0,0.0,0.0,0.0,0.0,0.0,0.0,0.0,0.0,0.0,0.0,0.0,0.0,0.0,0.0,0.0,0.0,0.0,0.0,0.0,0.0,0.0,0.0,0.0,0.0,0.0,0.0,0.0,0.0,0.0,0.0,0.0,0.0,0.0,0.0,0.0,0.0,0.0,0.0,0.0,0.0,0.0,0.0,0.0,0.0,0.0,0.0,0.0,0.0,0.0,0.0,0.0,0.0,0.0,0.0,0.0,0.0,0.0,0.0,0.0,0.0,0.0,0.0,0.0,0.0,0.0,0.0,0.0,0.0,0.0,0.0,0.0,0.0,0.0,0.0,0.0,0.0,0.0,0.0,0.0,0.0,0.0,0.0,0.0,0.0,0.0,0.0,0.0,0.0,0.0,0.0,0.0,0.0,0.0,0.0,0.0,0.0,0.0,0.0,0.0,0.0,0.0,0.0,0.0,0.0,0.0,0.0,0.0,0.0,0.0,0.0,0.0,0.0,0.0,0.0,0.0,0.0,0.0,0.0,0.0,0.0,0.0,0.0,0.0,0.0,0.0,0.0,0.0,0.0,0.0,0.0,0.0,0.0,0.0,0.0,0.0,0.0,0.0,0.0,0.0,0.0,0.0,0.0,0.0,0.0,0.0,0.0,0.0,0.0,0.0,0.0,0.0,0.0,0.0,0.0,0.0,0.0,0.0,0.0,0.0,0.0,0.0,0.0,0.0,0.0,0.0,0.0,0.0,0.0,0.0,0.0,0.0,0.0,0.0,0.0,0.0,0.0,0.0,0.0,0.0,0.0,0.0,0.0,0.0,0.0,0.0,0.0,0.0,0.0,0.0,0.0,0.0,0.0,0.0,0.0,0.0,0.0,0.0,0.0,0.0,0.0,0.0,0.0,0.0,0.0,0.0,0.0,0.0,0.0,0.0,0.0,0.0,0.0,0.0,0.0,0.0,0.0,0.0,0.0,0.0,0.0,0.0,0.0,0.0,0.0,0.0,0.0,0.0,0.0,0.0,0.0,0.0,0.0,0.0,0.0,0.0,0.0,0.0,0.0,0.0,0.0,0.0,0.0,0.0,0.0,0.0,0.0,0.0,0.0,0.0,0.0,0.0,0.0,0.0,0.0,0.0,0.0,0.0,0.0,0.0,0.0,0.0,0.0,0.0,0.0,0.0,0.0,0.0,0.0,0.0,0.0,0.0,0.0,0.0,0.0,0.0,0.0,0.0,0.0,0.0,0.0,0.0,0.0,0.0,0.0,0.0,0.0,0.0,0.0,0.0,0.0,0.0,0.0,0.0,0.0,0.0,0.0,0.0,0.0,0.0,0.0,0.0,0.0,0.0,0.0,0.0,0.0,0.0,0.0,0.0,0.0,0.0,0.0,0.0,0.0,0.0,0.0,0.0,0.0,0.0,0.0,0.0,0.0,0.0,0.0,0.0,0.0,0.0,0.0,0.0,0.0,0.0,0.0,0.0,0.0,0.0,0.0,0.0,0.0,0.0,0.0,0.0,0.0,0.0,0.0,0.0,0.0,0.0,0.0,0.0,0.0,0.0,0.0,0.0,0.0,0.0,0.0,0.0,0.0,0.0,0.0,0.0,0.0,0.0,0.0,0.0,0.0,0.0,0.0,0.0,0.0,0.0,0.0,0.0,0.0,0.0,0.0,0.0,0.0,0.0,0.0,0.0,0.0,0.0,0.0,0.0,0.0,0.0,0.0,0.0,0.0,0.0,0.0,0.0,0.0,0.0,0.0,0.0,0.0,0.0,0.0,0.0,0.0,0.0,0.0,0.0,0.0,0.0,0.0,0.0,0.0,0.0,0.0,0.0,0.0,0.0,0.0,0.0,0.0,0.0,0.0,0.0,0.0,0.0,0.0,0.0,0.0,0.0,0.0,0.0,0.0,0.0,0.0,0.0,0.0,0.0,0.0,0.0,0.0,0.0,0.0,0.0,0.0,0.0,0.0,0.0,0.0,0.0,0.0,0.0,0.0,0.0,0.0,0.0,0.0,0.0,0.0,0.0,0.0,0.0,0.0,0.0,0.0,0.0,0.0,0.0,0.0,0.0,0.0,0.0,0.0,0.0,0.0,0.0,0.0,0.0,0.0,0.0,0.0,0.0,0.0,0.0,0.0,0.0,0.0,0.0,0.0,0.0,0.0,0.0,0.0,0.0,0.0,0.0,0.0,0.0,0.0,0.0,0.0,0.0,0.0,0.0,0.0,0.0,0.0,0.0,0.0,0.0,0.0,0.0,0.0,0.0,0.0,0.0,0.0,0.0,0.0,0.0,0.0,0.0,0.0,0.0,0.0,0.0,0.0,0.0,0.0,0.0,0.0,0.0,0.0,0.0,0.0,0.0,0.0,0.0,0.0,0.0,0.0,0.0,0.0,0.0,0.0,0.0,0.0,0.0,0.0,0.0,0.0,0.0,0.0,0.0,0.0,0.0,0.0,0.0,0.0,0.0,0.0,0.0,0.0,0.0,0.0,0.0,0.0,0.0,0.0,0.0,0.0,0.0,0.0,0.0,0.0,0.0,0.0,0.0,0.0,0.0,0.0,0.0,0.0,0.0,0.0,0.0,0.0,-0.3218,0.0,0.0,0.0,0.0,0.0,0.0,0.0,0.0,0.0,0.0,0.0,0.0,0.0,0.0,0.0,0.0,0.0,0.0,0.0,0.0,0.0,0.0,0.0,0.0,0.0,0.0,0.0,0.0,0.0,0.0,0.0,0.0,0.0,0.0,0.0,0.0,0.0,0.0,0.0,0.0,0.0,0.0,0.0,0.0,0.0,0.0,0.0,0.0,0.0,0.0,0.0,0.0,0.0,0.0,0.0,0.0,0.0,0.0,0.0,0.0,0.0,0.0,0.0,0.0,0.0,0.0,0.0,0.0,0.0,0.0,0.0,0.0,0.0,0.0,0.0,0.0,0.0,0.0,0.0,0.0,0.0,0.0,0.0,0.0,0.0,0.0,0.0,0.0,0.0,0.0,0.0,0.0,0.0,0.0,0.0,0.0,0.0,0.0,0.0,0.0,0.0,0.0,0.0,0.0,0.0,0.0,0.0,0.0,0.0,0.0,-0.4852,-0.4522,-0.4453,-0.4171,-0.3714,0.0,0.0,0.0,0.0,0.0,0.0,0.0,0.0,0.0,0.0,0.0,0.0,0.0,0.0,0.0,0.0,0.0,0.0,0.0,0.0,0.0,0.0,0.0,0.0,0.0,0.0,0.0,0.0,0.0,0.0,0.0,0.0,0.0,0.0,0.0,0.0,0.0,0.0,0.0,0.0,0.0,0.0,0.0,0.0,0.0,0.0,0.0,0.0,0.0,0.0,0.0,0.0,0.0,0.0,0.0,0.0,0.0,0.0,0.0,0.0,0.0,0.0,0.0,0.0,0.0,0.0,0.0,0.0,0.0,0.0,0.0,0.0,0.0,0.0,0.0,0.0,0.0,0.0,0.0,0.0,0.0,0.0,0.0,0.0,0.0,0.0,0.0,0.0,0.0,0.0,0.0,0.0,0.0,0.0,0.0,0.0,0.0,0.0,0.0,0.0,0.0,0.0,0.0,0.0,0.0,0.0,0.0,0.0,0.0,0.0,0.0,0.0,-0.5007,-0.4628,-0.3965,0.0,0.0,0.0,0.0,0.0,0.0,0.0,0.0,0.0,0.0,0.0,0.0,0.0,0.0,0.0,0.0,0.0,0.0,0.0,0.0,0.0,0.0,0.0,0.0,0.0,0.0,0.0,0.0,0.0,0.0,0.0,0.0,0.0,0.0,0.0,0.0,0.0,0.0,0.0,0.0,0.0,0.0,0.0,0.0,0.0,0.0,0.0,0.0,0.0,0.0,0.0,0.0,0.0,0.0,0.0,0.0,0.0,0.0,0.0,0.0,0.0,0.0,0.0,0.0,0.0,0.0,0.0,0.0,0.0,0.0,0.0,0.0,0.0,0.0,0.0,0.0,0.0,0.0,0.0,0.0,0.0,0.0,0.0,0.0,0.0,0.0,0.0,0.0,0.0,0.0,0.0,0.0,0.0,0.0,0.0,0.0,0.0,0.0,0.0,0.0,0.0,0.0,0.0,0.0,0.0,0.0,0.0,0.0,0.0,0.0,-0.6091,-0.5138,-0.5097,0.0,-0.3566,0.0,0.0,0.0,0.0,0.0,0.0,0.0,0.0,0.0,0.0,0.0,0.0,0.0,0.0,0.0,0.0,0.0,0.0,0.0,0.0,0.0,0.0,0.0,0.0,0.0,0.0,0.0,0.0,0.0,0.0,0.0,0.0,0.0,0.0,0.0,0.0,0.0,0.0,0.0,0.0,0.0,0.0,0.0,0.0,0.0,0.0,0.0,0.0,0.0,0.0,0.0,0.0,0.0,0.0,0.0,0.0,0.0,0.0,0.0,0.0,0.0,0.0,0.0,0.0,0.0,0.0,0.0,0.0,0.0,0.0,0.0,0.0,0.0,0.0,0.0,0.0,0.0,0.0,0.0,0.0,0.0,0.0,0.0,0.0,0.0,0.0,0.0,0.0,0.0,0.0,0.0,0.0,0.0,0.0,0.0,0.0,0.0,0.0,0.0,0.0,0.0,0.0,0.0,0.0,0.0,0.0,0.0,0.0,0.0,0.0,-0.6734,-0.6295,-0.5742,-0.5157,0.0,0.0,0.0,0.0,0.0,0.0,0.0,0.0,0.0,0.0,0.0,0.0,0.0,0.0,0.0,0.0,0.0,0.0,0.0,0.0,0.0,0.0,0.0,0.0,0.0,0.0,0.0,0.0,0.0,0.0,0.0,0.0,0.0,0.0,0.0,0.0,0.0,0.0,0.0,0.0,0.0,0.0,0.0,0.0,0.0,0.0,0.0,0.0,0.0,0.0,0.0,0.0,0.0,0.0,0.0,0.0,0.0,0.0,0.0,0.0,0.0,0.0,0.0,0.0,0.0,0.0,0.0,0.0,0.0,0.0,0.0,0.0,0.0,0.0,0.0,0.0,0.0,0.0,0.0,0.0,0.0,0.0,0.0,0.0,0.0,0.0,0.0,0.0,0.0,0.0,0.0,0.0,0.0,0.0,0.0,0.0,0.0,0.0,0.0,0.0,0.0,0.0,0.0,0.0,0.0,0.0,0.0,0.0,0.0,0.0,-0.7106,0.0,-0.6871,-0.6291,-0.5695,-0.5104,0.0,0.0,0.0,0.0,0.0,0.0,0.0,0.0,0.0,0.0,0.0,0.0,0.0,0.0,0.0,0.0,0.0,0.0,0.0,0.0,0.0,0.0,0.0,0.0,0.0,0.0,0.0,0.0,0.0,0.0,0.0,0.0,0.0,0.0,0.0,0.0,0.0,0.0,0.0,0.0,0.0,0.0,0.0,0.0,0.0,0.0,0.0,0.0,0.0,0.0,0.0,0.0,0.0,0.0,0.0,0.0,0.0,0.0,0.0,0.0,0.0,0.0,0.0,0.0,0.0,0.0,0.0,0.0,0.0,0.0,0.0,0.0,0.0,0.0,0.0,0.0,0.0,0.0,0.0,0.0,0.0,0.0,0.0,0.0,0.0,0.0,0.0,0.0,0.0,0.0,0.0,0.0,0.0,0.0,0.0,0.0,0.0,0.0,0.0,0.0,0.0,0.0,0.0,0.0,0.0,0.0,0.0,0.0,0.0,-0.7106,-0.6858,-0.6403,-0.6529,-0.5993,0.0,0.0,0.0,0.0,0.0,0.0,0.0,0.0,0.0,0.0,0.0,0.0,0.0,0.0,0.0,0.0,0.0,0.0,0.0,0.0,0.0,0.0,0.0,0.0,0.0,0.0,0.0,0.0,0.0,0.0,0.0,0.0,0.0,0.0,0.0,0.0,0.0,0.0,0.0,0.0,0.0,0.0,0.0,0.0,0.0,0.0,0.0,0.0,0.0,0.0,0.0,0.0,0.0,0.0,0.0,0.0,0.0,0.0,0.0,0.0,0.0,0.0,0.0,0.0,0.0,0.0,0.0,0.0,0.0,0.0,0.0,0.0,0.0,0.0,0.0,0.0,0.0,0.0,0.0,0.0,0.0,0.0,0.0,0.0,0.0,0.0,0.0,0.0,0.0,0.0,0.0,0.0,0.0,0.0,0.0,0.0,0.0,0.0,0.0,0.0,0.0,0.0,0.0,0.0,0.0,0.0,0.0,0.0,0.0,-0.7106,-0.7106,-0.702,-0.6823,-0.6628,-0.6114,0.0,0.0,0.0,0.0,0.0,0.0,0.0,0.0,0.0,0.0,0.0,0.0,0.0,0.0,0.0,0.0,0.0,0.0,0.0,0.0,0.0,0.0,0.0,0.0,0.0,0.0,0.0,0.0,0.0,0.0,0.0,0.0,0.0,0.0,0.0,0.0,0.0,0.0,0.0,0.0,0.0,0.0,0.0,0.0,0.0,0.0,0.0,0.0,0.0,0.0,0.0,0.0,0.0,0.0,0.0,0.0,0.0,0.0,0.0,0.0,0.0,0.0,0.0,0.0,0.0,0.0,0.0,0.0,0.0,0.0,0.0,0.0,0.0,0.0,0.0,0.0,0.0,0.0,0.0,0.0,0.0,0.0,0.0,0.0,0.0,0.0,0.0,0.0,0.0,0.0,0.0,0.0,0.0,0.0,0.0,0.0,0.0,0.0,0.0,0.0,0.0,0.0,0.0,0.0,0.0,0.0,0.0,0.0,0.0,-0.73,0.0,-0.7182,0.0,-0.6816,-0.6287,0.0,0.0,0.0,0.0,0.0,0.0,0.0,0.0,0.0,0.0,0.0,0.0,0.0,0.0,0.0,0.0,0.0,0.0,0.0,0.0,0.0,0.0,0.0,0.0,0.0,0.0,0.0,0.0,0.0,0.0,0.0,0.0,0.0,0.0,0.0,0.0,0.0,0.0,0.0,0.0,0.0,0.0,0.0,0.0,0.0,0.0,0.0,0.0,0.0,0.0,0.0,0.0,0.0,0.0,0.0,0.0,0.0,0.0,0.0,0.0,0.0,0.0,0.0,0.0,0.0,0.0,0.0,0.0,0.0,0.0,0.0,0.0,0.0,0.0,0.0,0.0,0.0,0.0,0.0,0.0,0.0,0.0,0.0,0.0,0.0,0.0,0.0,0.0,0.0,0.0,0.0,0.0,0.0,0.0,0.0,0.0,0.0,0.0,0.0,0.0,0.0,0.0,0.0,0.0,0.0,0.0,0.0,0.0,-0.7289,-0.7658,-0.7691,-0.739,-0.6759,-0.7144,-0.6515,0.0,0.0,0.0,0.0,0.0,0.0,0.0,0.0,0.0,0.0,0.0,0.0,0.0,0.0,0.0,0.0,0.0,0.0,0.0,0.0,0.0,0.0,0.0,0.0,0.0,0.0,0.0,0.0,0.0,0.0,0.0,0.0,0.0,0.0,0.0,0.0,0.0,0.0,0.0,0.0,0.0,0.0,0.0,0.0,0.0,0.0,0.0,0.0,0.0,0.0,0.0,0.0,0.0,0.0,0.0,0.0,0.0,0.0,0.0,0.0,0.0,0.0,0.0,0.0,0.0,0.0,0.0,0.0,0.0,0.0,0.0,0.0,0.0,0.0,0.0,0.0,0.0,0.0,0.0,0.0,0.0,0.0,0.0,0.0,0.0,0.0,0.0,0.0,0.0,0.0,0.0,0.0,0.0,0.0,0.0,0.0,0.0,0.0,0.0,0.0,0.0,0.0,0.0,0.0,0.0,0.0,0.0,0.0,0.0,-0.7677,-0.7688,-0.77,-0.7727,-0.7343,-0.6778,0.0,0.0,0.0,0.0,0.0,0.0,0.0,0.0,0.0,0.0,0.0,0.0,0.0,0.0,0.0,0.0,0.0,0.0,0.0,0.0,0.0,0.0,0.0,0.0,0.0,0.0,0.0,0.0,0.0,0.0,0.0,0.0,0.0,0.0,0.0,0.0,0.0,0.0,0.0,0.0,0.0,0.0,0.0,0.0,0.0,0.0,0.0,0.0,0.0,0.0,0.0,0.0,0.0,0.0,0.0,0.0,0.0,0.0,0.0,0.0,0.0,0.0,0.0,0.0,0.0,0.0,0.0,0.0,0.0,0.0,0.0,0.0,0.0,0.0,0.0,0.0,0.0,0.0,0.0,0.0,0.0,0.0,0.0,0.0,0.0,0.0,0.0,0.0,0.0,0.0,0.0,0.0,0.0,0.0,0.0,0.0,0.0,0.0,0.0,0.0,0.0,0.0,0.0,0.0,0.0,0.0,0.0,0.0,0.0,-0.7898,-0.7954,-0.8034,-0.8242,-0.7679,-0.7085,-0.6442,0.0,0.0,0.0,0.0,0.0,0.0,0.0,0.0,0.0,0.0,0.0,0.0,0.0,0.0,0.0,0.0,0.0,0.0,0.0,0.0,0.0,0.0,0.0,0.0,0.0,0.0,0.0,0.0,0.0,0.0,0.0,0.0,0.0,0.0,0.0,0.0,0.0,0.0,0.0,0.0,0.0,0.0,0.0,0.0,0.0,0.0,0.0,0.0,0.0,0.0,0.0,0.0,0.0,0.0,0.0,0.0,0.0,0.0,0.0,0.0,0.0,0.0,0.0,0.0,0.0,0.0,0.0,0.0,0.0,0.0,0.0,0.0,0.0,0.0,0.0,0.0,0.0,0.0,0.0,0.0,0.0,0.0,0.0,0.0,0.0,0.0,0.0,0.0,0.0,0.0,0.0,0.0,0.0,0.0,0.0,0.0,0.0,0.0,0.0,0.0,0.0,0.0,0.0,0.0,0.0,0.0,0.0,0.0,-0.8334,-0.8378,-0.8384,-0.8377,-0.8137,-0.7399,0.0,0.0,0.0,0.0,0.0,0.0,0.0,0.0,0.0,0.0,0.0,0.0,0.0,0.0,0.0,0.0,0.0,0.0,0.0,0.0,0.0,0.0,0.0,0.0,0.0,0.0,0.0,0.0,0.0,0.0,0.0,0.0,0.0,0.0,0.0,0.0,0.0,0.0,0.0,0.0,0.0,0.0,0.0,0.0,0.0,0.0,0.0,0.0,0.0,0.0,0.0,0.0,0.0,0.0,0.0,0.0,0.0,0.0,0.0,0.0,0.0,0.0,0.0,0.0,0.0,0.0,0.0,0.0,0.0,0.0,0.0,0.0,0.0,0.0,0.0,0.0,0.0,0.0,0.0,0.0,0.0,0.0,0.0,0.0,0.0,0.0,0.0,0.0,0.0,0.0,0.0,0.0,0.0,0.0,0.0,0.0,0.0,0.0,0.0,0.0,0.0,0.0,0.0,0.0,0.0,0.0,0.0,0.0,0.0,-0.8729,-0.8547,-0.862,-0.9078,-0.84,-0.7841,0.0,0.0,0.0,0.0,0.0,0.0,0.0,0.0,0.0,0.0,0.0,0.0,0.0,0.0,0.0,0.0,0.0,0.0,0.0,0.0,0.0,0.0,0.0,0.0,0.0,0.0,0.0,0.0,0.0,0.0,0.0,0.0,0.0,0.0,0.0,0.0,0.0,0.0,0.0,0.0,0.0,0.0,0.0,0.0,0.0,0.0,0.0,0.0,0.0,0.0,0.0,0.0,0.0,0.0,0.0,0.0,0.0,0.0,0.0,0.0,0.0,0.0,0.0,0.0,0.0,0.0,0.0,0.0,0.0,0.0,0.0,0.0,0.0,0.0,0.0,0.0,0.0,0.0,0.0,0.0,0.0,0.0,0.0,0.0,0.0,0.0,0.0,0.0,0.0,0.0,0.0,0.0,0.0,0.0,0.0,0.0,0.0,0.0,0.0,0.0,0.0,0.0,0.0,0.0,0.0,0.0,0.0,0.0,-0.749,-0.8712,-0.8533,-0.8732,-0.9478,-0.8792,-0.828,0.0,0.0,0.0,0.0,0.0,0.0,0.0,0.0,0.0,0.0,0.0,0.0,0.0,0.0,0.0,0.0,0.0,0.0,0.0,0.0,0.0,0.0,0.0,0.0,0.0,0.0,0.0,0.0,0.0,0.0,0.0,0.0,0.0,0.0,0.0,0.0,0.0,0.0,0.0,0.0,0.0,0.0,0.0,0.0,0.0,0.0,0.0,0.0,0.0,0.0,0.0,0.0,0.0,0.0,0.0,0.0,0.0,0.0,0.0,0.0,0.0,0.0,0.0,0.0,0.0,0.0,0.0,0.0,0.0,0.0,0.0,0.0,0.0,0.0,0.0,0.0,0.0,0.0,0.0,0.0,0.0,0.0,0.0,0.0,0.0,0.0,0.0,0.0,0.0,0.0,0.0,0.0,0.0,0.0,0.0,0.0,0.0,0.0,0.0,0.0,0.0,0.0,0.0,0.0,0.0,0.0,0.0,0.0,-0.7496,-0.8302,-0.8381,-0.8758,-0.9484,-0.9185,-0.8703,0.0,0.0,0.0,0.0,0.0,0.0,0.0,0.0,0.0,0.0,0.0,0.0,0.0,0.0,0.0,0.0,0.0,0.0,0.0,0.0,0.0,0.0,0.0,0.0,0.0,0.0,0.0,0.0,0.0,0.0,0.0,0.0,0.0,0.0,0.0,0.0,0.0,0.0,0.0,0.0,0.0,0.0,0.0,0.0,0.0,0.0,0.0,0.0,0.0,0.0,0.0,0.0,0.0,0.0,0.0,0.0,0.0,0.0,0.0,0.0,0.0,0.0,0.0,0.0,0.0,0.0,0.0,0.0,0.0,0.0,0.0,0.0,0.0,0.0,0.0,0.0,0.0,0.0,0.0,0.0,0.0,0.0,0.0,0.0,0.0,0.0,0.0,0.0,0.0,0.0,0.0,0.0,0.0,0.0,0.0,0.0,0.0,0.0,0.0,0.0,0.0,0.0,0.0,0.0,0.0,0.0,0.0,0.0,-0.734,-0.7849,-0.8209,-0.8633,-0.9106,-0.9048,-0.8797,0.0,0.0,0.0,0.0,0.0,0.0,0.0,0.0,0.0,0.0,0.0,0.0,0.0,0.0,0.0,0.0,0.0,0.0,0.0,0.0,0.0,0.0,0.0,0.0,0.0,0.0,0.0,0.0,0.0,0.0,0.0,0.0,0.0,0.0,0.0,0.0,0.0,0.0,0.0,0.0,0.0,0.0,0.0,0.0,0.0,0.0,0.0,0.0,-0.8185,0.0,0.0,0.0,0.0,0.0,0.0,0.0,0.0,0.0,0.0,0.0,0.0,0.0,0.0,0.0,0.0,0.0,0.0,0.0,0.0,0.0,0.0,0.0,0.0,0.0,0.0,0.0,0.0,0.0,0.0,0.0,0.0,0.0,0.0,0.0,0.0,0.0,0.0,0.0,0.0,0.0,0.0,0.0,0.0,0.0,0.0,0.0,0.0,0.0,0.0,0.0,0.0,0.0,0.0,0.0,0.0,0.0,0.0,0.0,-0.7308,-0.7677,-0.7861,-0.8176,-0.8679,-0.8599,-0.8579,0.0,0.0,0.0,0.0,0.0,0.0,0.0,0.0,0.0,0.0,0.0,0.0,0.0,0.0,0.0,0.0,0.0,0.0,0.0,0.0,0.0,0.0,0.0,0.0,0.0,0.0,0.0,0.0,0.0,0.0,0.0,0.0,0.0,0.0,0.0,0.0,0.0,0.0,0.0,0.0,0.0,0.0,0.0,0.0,0.0,0.0,0.0,0.0,0.0,0.0,0.0,0.0,0.0,0.0,0.0,0.0,0.0,0.0,0.0,0.0,0.0,0.0,0.0,0.0,0.0,0.0,0.0,0.0,0.0,0.0,0.0,0.0,0.0,0.0,0.0,0.0,0.0,0.0,0.0,0.0,0.0,0.0,0.0,0.0,0.0,0.0,0.0,0.0,0.0,0.0,0.0,0.0,0.0,0.0,0.0,0.0,0.0,0.0,0.0,0.0,0.0,0.0,0.0,0.0,0.0,0.0,0.0,-0.7106,-0.7268,-0.7578,-0.7482,-0.7653,-0.8232,-0.8031,-0.8209,-0.8838,0.0,0.0,0.0,0.0,0.0,0.0,0.0,0.0,0.0,0.0,0.0,0.0,0.0,0.0,0.0,0.0,0.0,0.0,0.0,0.0,0.0,0.0,0.0,0.0,0.0,0.0,0.0,0.0,0.0,0.0,0.0,0.0,0.0,0.0,0.0,0.0,0.0,0.0,-0.6388,-0.7021,0.0,0.0,0.0,0.0,0.0,0.0,0.0,0.0,-0.8135,0.0,0.0,0.0,0.0,0.0,0.0,0.0,0.0,0.0,0.0,0.0,0.0,0.0,0.0,0.0,0.0,0.0,0.0,0.0,0.0,0.0,0.0,0.0,0.0,0.0,0.0,0.0,0.0,0.0,0.0,0.0,0.0,0.0,0.0,0.0,0.0,0.0,0.0,0.0,0.0,0.0,0.0,0.0,0.0,0.0,0.0,0.0,0.0,0.0,0.0,0.0,0.0,0.0,0.0,0.0,0.0,-0.7106,-0.7106,-0.7139,-0.72,-0.7327,-0.7447,-0.7553,-0.7511,-0.7747,-0.8268,0.0,0.0,0.0,0.0,0.0,0.0,0.0,0.0,0.0,0.0,0.0,0.0,0.0,0.0,0.0,0.0,0.0,0.0,0.0,0.0,0.0,0.0,0.0,0.0,0.0,0.0,0.0,0.0,0.0,0.0,0.0,0.0,0.0,0.0,0.0,0.0,0.0,0.0,0.0,-0.7923,-0.8218,0.0,0.0,0.0,0.0,0.0,0.0,0.0,0.0,-0.8407,0.0,0.0,0.0,0.0,0.0,0.0,0.0,0.0,0.0,0.0,0.0,0.0,0.0,0.0,0.0,0.0,0.0,0.0,0.0,0.0,0.0,0.0,0.0,0.0,0.0,0.0,0.0,0.0,0.0,0.0,0.0,0.0,0.0,0.0,0.0,0.0,0.0,0.0,0.0,0.0,0.0,0.0,0.0,0.0,0.0,0.0,0.0,0.0,0.0,0.0,0.0,0.0,0.0,0.0,0.0,-0.7106,-0.7106,-0.7106,-0.7101,-0.6958,-0.693,-0.7018,-0.6806,-0.6955,0.0,0.0,0.0,0.0,0.0,0.0,0.0,0.0,0.0,0.0,0.0,0.0,0.0,0.0,0.0,0.0,0.0,0.0,0.0,0.0,0.0,0.0,0.0,0.0,0.0,0.0,0.0,0.0,0.0,0.0,0.0,0.0,0.0,0.0,0.0,0.0,0.0,0.0,0.0,0.0,-0.7957,-0.8213,-0.8545,0.0,0.0,0.0,0.0,0.0,0.0,-0.8602,-0.8635,0.0,0.0,0.0,0.0,0.0,0.0,0.0,0.0,0.0,0.0,0.0,0.0,0.0,0.0,0.0,0.0,0.0,0.0,0.0,0.0,0.0,0.0,0.0,0.0,0.0,0.0,0.0,0.0,0.0,0.0,0.0,0.0,0.0,0.0,0.0,0.0,0.0,0.0,0.0,0.0,0.0,0.0,0.0,0.0,0.0,0.0,0.0,0.0,0.0,0.0,0.0,0.0,0.0,0.0,0.0,-0.7106,-0.7106,-0.7106,-0.7095,-0.6676,-0.6512,-0.6634,-0.6324,-0.6395,0.0,0.0,0.0,0.0,0.0,0.0,0.0,0.0,0.0,0.0,0.0,0.0,0.0,0.0,0.0,0.0,0.0,0.0,0.0,0.0,0.0,0.0,0.0,0.0,0.0,0.0,0.0,0.0,0.0,0.0,0.0,0.0,0.0,0.0,0.0,0.0,0.0,0.0,0.0,0.0,0.0,-0.8293,-0.8584,-0.8568,0.0,0.0,0.0,0.0,-0.8758,-0.8782,0.0,0.0,0.0,0.0,0.0,0.0,0.0,0.0,0.0,0.0,0.0,0.0,0.0,0.0,0.0,0.0,0.0,0.0,0.0,0.0,0.0,0.0,0.0,0.0,0.0,0.0,0.0,0.0,0.0,0.0,0.0,0.0,0.0,0.0,0.0,0.0,0.0,0.0,0.0,0.0,0.0,0.0,0.0,0.0,0.0,0.0,0.0,0.0,0.0,0.0,0.0,0.0,0.0,0.0,0.0,0.0,-0.7106,-0.7106,-0.7106,-0.7095,-0.68,-0.6591,-0.6456,-0.6554,-0.6666,0.0,0.0,0.0,0.0,0.0,0.0,0.0,0.0,0.0,0.0,0.0,0.0,0.0,0.0,0.0,0.0,0.0,0.0,0.0,0.0,0.0,0.0,0.0,0.0,0.0,0.0,0.0,0.0,0.0,0.0,0.0,0.0,0.0,0.0,0.0,0.0,0.0,0.0,0.0,0.0,0.0,-0.9175,-0.9052,-0.9224,-0.9287,0.0,0.0,-0.9017,-0.9047,-0.9053,0.0,0.0,0.0,0.0,0.0,0.0,0.0,0.0,0.0,0.0,0.0,0.0,0.0,0.0,0.0,0.0,0.0,0.0,0.0,0.0,0.0,0.0,0.0,0.0,0.0,0.0,0.0,0.0,0.0,0.0,0.0,0.0,0.0,0.0,0.0,0.0,0.0,0.0,0.0,0.0,0.0,0.0,0.0,0.0,0.0,0.0,0.0,0.0,0.0,0.0,0.0,0.0,0.0,0.0,0.0,-0.7106,-0.7106,-0.7106,-0.7106,-0.7093,-0.6827,-0.6602,-0.6408,-0.6346,-0.633,0.0,0.0,0.0,0.0,0.0,0.0,0.0,0.0,0.0,0.0,0.0,0.0,0.0,0.0,0.0,0.0,0.0,0.0,0.0,0.0,0.0,0.0,0.0,0.0,0.0,0.0,0.0,0.0,0.0,0.0,0.0,0.0,0.0,0.0,0.0,0.0,0.0,0.0,0.0,0.0,0.0,0.0,-0.9728,-0.963,0.0,0.0,0.0,-0.9149,-0.9312,0.0,0.0,0.0,0.0,0.0,0.0,0.0,0.0,0.0,0.0,0.0,0.0,0.0,0.0,0.0,0.0,0.0,0.0,0.0,0.0,0.0,0.0,0.0,0.0,0.0,0.0,0.0,0.0,0.0,0.0,0.0,0.0,0.0,0.0,0.0,0.0,0.0,0.0,0.0,0.0,0.0,0.0,0.0,0.0,0.0,0.0,0.0,0.0,0.0,0.0,0.0,0.0,0.0,0.0,0.0,0.0,0.0,-0.7106,-0.7106,-0.7106,-0.7106,-0.6899,-0.6695,-0.6487,-0.634,0.0,0.0,0.0,0.0,0.0,0.0,0.0,0.0,0.0,0.0,0.0,0.0,0.0,0.0,0.0,0.0,0.0,0.0,0.0,0.0,0.0,0.0,0.0,0.0,0.0,0.0,0.0,-0.3293,0.0,0.0,0.0,0.0,0.0,0.0,0.0,0.0,0.0,0.0,0.0,0.0,0.0,0.0,-0.9432,-1.0113,-0.9973,-0.9836,0.0,0.0,-0.9372,-0.9566,-0.9542,-0.9494,0.0,0.0,0.0,0.0,0.0,0.0,0.0,0.0,0.0,0.0,0.0,0.0,0.0,0.0,0.0,0.0,0.0,0.0,0.0,0.0,0.0,0.0,0.0,0.0,0.0,0.0,0.0,0.0,0.0,0.0,0.0,0.0,0.0,0.0,0.0,0.0,0.0,0.0,0.0,0.0,0.0,0.0,0.0,0.0,0.0,0.0,0.0,0.0,0.0,0.0,0.0,0.0,0.0,0.0,0.0,-0.7106,-0.7106,-0.7106,-0.7106,-0.7095,-0.695,-0.6686,-0.6894,-0.6833,0.0,0.0,0.0,0.0,0.0,0.0,0.0,0.0,0.0,0.0,0.0,0.0,0.0,0.0,0.0,0.0,0.0,0.0,0.0,0.0,0.0,0.0,0.0,0.0,0.0,0.0,0.0,0.0,0.0,0.0,0.0,0.0,0.0,0.0,0.0,0.0,0.0,0.0,0.0,0.0,0.0,-0.9982,-0.9928,-1.0333,-1.0538,0.0,0.0,-0.9853,-0.9871,-0.9678,-0.9494,-0.9494,0.0,0.0,0.0,0.0,0.0,0.0,0.0,0.0,0.0,0.0,0.0,0.0,0.0,0.0,0.0,0.0,0.0,0.0,0.0,0.0,0.0,0.0,0.0,0.0,0.0,0.0,0.0,0.0,0.0,0.0,0.0,0.0,0.0,0.0,0.0,0.0,0.0,0.0,0.0,0.0,0.0,0.0,0.0,0.0,0.0,0.0,0.0,0.0,0.0,0.0,0.0,0.0,0.0,-0.7106,-0.7106,-0.7106,-0.7106,-0.7106,-0.7106,-0.6964,-0.6715,-0.6808,-0.6721,0.0,0.0,0.0,0.0,0.0,0.0,0.0,0.0,0.0,0.0,0.0,0.0,0.0,0.0,0.0,0.0,0.0,0.0,0.0,0.0,0.0,0.0,0.0,0.0,0.0,0.0,0.0,0.0,-0.3827,-0.3851,-0.3735,0.0,0.0,0.0,0.0,0.0,0.0,0.0,0.0,0.0,0.0,-0.9525,-0.9646,-1.0114,0.0,0.0,-1.0178,-0.9961,-1.0124,-0.9925,-0.974,-0.974,-0.9666,0.0,0.0,0.0,0.0,0.0,0.0,0.0,0.0,0.0,0.0,0.0,0.0,0.0,0.0,0.0,0.0,0.0,0.0,0.0,0.0,0.0,0.0,0.0,0.0,0.0,0.0,0.0,0.0,0.0,0.0,0.0,0.0,0.0,0.0,0.0,0.0,0.0,0.0,0.0,0.0,0.0,0.0,0.0,0.0,0.0,0.0,0.0,0.0,0.0,0.0,0.0,0.0,-0.6686,-0.6823,-0.6877,-0.6868,-0.6815,-0.7017,-0.7009,-0.6829,-0.6829,-0.6722,0.0,0.0,0.0,0.0,0.0,0.0,0.0,0.0,0.0,0.0,0.0,0.0,0.0,0.0,0.0,0.0,0.0,0.0,0.0,0.0,0.0,0.0,0.0,0.0,0.0,0.0,0.0,0.0,-0.4084,-0.4073,-0.3922,0.0,0.0,0.0,0.0,0.0,0.0,0.0,0.0,0.0,0.0,-0.9018,-0.9246,-0.9771,-1.0253,-1.0428,-1.0284,-1.0202,-1.04,-1.0273,-1.0136,-1.0136,0.0,0.0,0.0,0.0,0.0,0.0,0.0,0.0,0.0,0.0,0.0,0.0,0.0,0.0,0.0,0.0,0.0,0.0,0.0,0.0,0.0,0.0,0.0,0.0,0.0,0.0,0.0,0.0,0.0,0.0,0.0,0.0,0.0,0.0,0.0,0.0,0.0,0.0,0.0,0.0,0.0,0.0,0.0,0.0,0.0,0.0,0.0,0.0,0.0,0.0,0.0,0.0,0.0,-0.5783,-0.6205,-0.6342,-0.6346,-0.6245,-0.6796,-0.7079,-0.7095,-0.7087,-0.6966,-0.6702,0.0,0.0,0.0,0.0,0.0,0.0,0.0,0.0,0.0,0.0,0.0,0.0,0.0,0.0,0.0,0.0,0.0,0.0,0.0,0.0,0.0,0.0,0.0,0.0,0.0,0.0,-0.4022,-0.4004,-0.4068,0.0,0.0,0.0,0.0,0.0,0.0,0.0,0.0,0.0,0.0,-0.8407,-0.8566,-0.8685,-0.9386,-0.9879,-0.9906,-1.0321,-1.0647,-1.0647,-1.0659,-1.0701,0.0,0.0,0.0,0.0,0.0,0.0,0.0,0.0,0.0,0.0,0.0,0.0,0.0,0.0,0.0,0.0,0.0,0.0,0.0,0.0,0.0,0.0,0.0,0.0,0.0,0.0,0.0,-0.7861,-0.7375,0.0,0.0,0.0,0.0,0.0,0.0,0.0,0.0,0.0,0.0,0.0,-0.6293,-0.5692,0.0,0.0,0.0,0.0,0.0,0.0,0.0,0.0,0.0,0.0,0.0,0.0,-0.566,-0.5739,-0.5776,-0.5929,-0.6191,-0.6385,-0.6701,-0.7098,-0.7106,-0.706,-0.698,0.0,0.0,0.0,0.0,0.0,0.0,0.0,0.0,0.0,0.0,0.0,0.0,0.0,0.0,0.0,0.0,0.0,0.0,0.0,0.0,0.0,0.0,0.0,0.0,0.0,-0.4442,0.0,0.0,0.0,0.0,0.0,0.0,0.0,0.0,0.0,0.0,0.0,-0.6877,-0.6961,-0.7556,-0.7886,-0.7682,-0.8333,-0.8869,0.0,0.0,0.0,0.0,0.0,0.0,0.0,0.0,0.0,0.0,0.0,0.0,0.0,0.0,-1.1538,-1.1927,-1.1931,-1.1891,-1.1991,0.0,0.0,0.0,0.0,0.0,0.0,0.0,0.0,0.0,0.0,0.0,0.0,0.0,0.0,0.0,0.0,-0.7026,0.0,0.0,0.0,0.0,0.0,0.0,0.0,0.0,-0.5579,-0.5672,-0.5947,-0.536,-0.5183,0.0,-0.5066,-0.5062,0.0,0.0,0.0,0.0,0.0,0.0,0.0,0.0,-0.5194,-0.5176,-0.5228,-0.5379,-0.5595,-0.5787,-0.6059,-0.6453,-0.6674,-0.6783,-0.6796,-0.6828,-0.6836,0.0,0.0,0.0,0.0,0.0,0.0,0.0,0.0,0.0,0.0,0.0,0.0,0.0,0.0,0.0,0.0,0.0,0.0,0.0,0.0,0.0,0.0,0.0,-0.4769,0.0,0.0,0.0,0.0,0.0,0.0,0.0,0.0,0.0,-0.6184,-0.6444,-0.6597,-0.6454,-0.6949,-0.725,-0.6999,0.0,0.0,0.0,0.0,0.0,0.0,0.0,-0.9493,-0.9034,-0.9422,-0.9757,-0.9694,-1.0223,-1.0718,-1.0797,0.0,0.0,-1.1886,-1.2151,-1.2331,-1.2408,-1.2778,-1.3052,-1.2939,-1.3099,-1.3196,0.0,0.0,0.0,0.0,0.0,0.0,0.0,0.0,-0.7886,-0.7709,0.0,-0.7394,0.0,0.0,0.0,0.0,0.0,0.0,0.0,0.0,-0.5513,-0.5513,-0.5225,-0.5343,-0.5189,-0.4892,-0.5102,-0.5018,-0.4624,-0.4415,0.0,0.0,0.0,0.0,0.0,0.0,-0.4398,-0.4572,-0.471,-0.4685,-0.4543,-0.5007,-0.5291,-0.5332,-0.5878,-0.6182,-0.619,-0.6696,-0.6761,-0.62,-0.672,0.0,0.0,0.0,0.0,0.0,0.0,0.0,0.0,0.0,0.0,0.0,0.0,0.0,0.0,0.0,0.0,0.0,0.0,0.0,0.0,-0.4925,0.0,0.0,0.0,0.0,0.0,0.0,0.0,0.0,0.0,0.0,-0.6481,-0.6718,-0.6864,-0.6725,0.0,0.0,0.0,0.0,-0.7725,-0.7832,-0.8516,-0.9003,-0.8996,-0.9246,-0.9407,-0.9388,0.0,0.0,-1.0069,-1.0541,-1.0823,-1.0837,-1.0958,-1.1214,-1.1176,-1.1727,-1.2316,-1.2575,-1.3062,-1.3631,-1.3953,-1.3885,-1.3835,-0.922,0.0,0.0,0.0,0.0,-0.8894,-0.8575,-0.814,-0.7672,-0.7166,-0.663,-0.6385,0.0,0.0,0.0,0.0,0.0,0.0,-0.5128,-0.5182,-0.5198,-0.5198,-0.5188,-0.514,-0.4772,-0.4132,-0.4259,-0.3934,-0.3323,-0.379,-0.4311,-0.4893,0.0,0.0,0.0,0.0,-0.4342,-0.4121,-0.4127,-0.4275,-0.4494,-0.4653,-0.4901,-0.5304,-0.5469,-0.5568,-0.5568,-0.5732,-0.578,-0.5707,-0.5871,0.0,0.0,0.0,0.0,0.0,0.0,0.0,0.0,0.0,0.0,0.0,0.0,0.0,0.0,0.0,0.0,0.0,0.0,0.0,-0.5032,-0.5183,-0.5359,0.0,0.0,0.0,0.0,0.0,0.0,0.0,0.0,0.0,-0.5907,-0.6742,-0.7149,0.0,0.0,-0.6803,-0.6719,-0.6867,-0.6997,-0.7043,0.0,0.0,0.0,-0.7992,-0.8229,-0.7859,-0.7975,-0.8248,-0.8652,-0.8841,-0.9031,-0.9336,-0.9372,-0.9388,-0.9476,-1.059,-1.153,-1.1735,-1.2383,-1.2959,-1.3112,-1.3413,-1.3606,-0.811,-0.789,-0.8707,-0.8869,-0.8635,-0.8579,-0.8218,-0.7623,-0.7246,-0.6844,-0.6447,-0.6237,-0.6125,-0.6049,-0.5447,0.0,0.0,0.0,-0.462,-0.425,-0.4557,-0.4478,-0.415,-0.4058,-0.3746,-0.3296,-0.3324,-0.3104,-0.2626,-0.3152,-0.3565,-0.3867,0.0,0.0,-0.4586,-0.4577,-0.4361,-0.3924,-0.3903,-0.3967,-0.4141,-0.4135,-0.4298,-0.4608,-0.4842,-0.4979,-0.4993,-0.5181,-0.525,-0.5154,-0.5377,-0.5405,0.0,0.0,0.0,0.0,0.0,0.0,0.0,0.0,0.0,0.0,0.0,-0.5834,-0.5063,0.0,0.0,0.0,-0.5113,-0.5302,-0.5371,-0.5659,0.0,0.0,0.0,0.0,0.0,0.0,0.0,-0.4221,-0.4232,-0.4495,-0.5133,-0.5807,-0.6415,-0.6913,-0.692,-0.6894,-0.686,0.0,-0.6722,-0.678,-0.6739,-0.6732,-0.6799,-0.7207,-0.7416,-0.7146,-0.7214,-0.7413,-0.778,-0.787,-0.8027,-0.8434,-0.8496,-0.8476,-0.8568,-0.9519,-1.0381,-1.0701,-1.1494,-1.2122,-1.2143,-1.2445,-1.2702,-0.7117,-0.7239,-0.8678,-0.874,-0.7882,-0.8096,-0.7637,-0.6736,-0.6722,-0.6719,-0.6719,-0.6622,-0.6484,-0.6243,-0.5118,0.0,0.0,-0.4504,-0.3871,-0.2874,-0.3695,-0.3527,-0.2531,-0.2507,-0.2466,-0.2393,-0.2413,-0.2357,-0.2308,-0.2496,-0.2531,-0.2452,-0.4025,-0.4751,-0.4592,-0.4597,-0.4386,-0.3942,-0.3908,-0.3804,-0.3605,-0.3599,-0.3599,-0.3613,-0.4149,-0.4436,-0.4449,-0.4912,-0.499,-0.4592,-0.5078,-0.5192,-0.4783,0.0,0.0,0.0,0.0,0.0,0.0,0.0,0.0,0.0,0.0,0.0,0.0,0.0,0.0,0.0,-0.5503,0.0,-0.5615,-0.5992,0.0,0.0,0.0,-0.4783,-0.3771,-0.4034,-0.4209,-0.4015,0.0,0.0,0.0,0.0,-0.4997,-0.6666,-0.6778,-0.6736,-0.686,-0.6659,-0.6641,-0.6657,-0.6686,-0.6681,-0.6688,-0.6831,-0.6978,-0.7063,-0.7088,-0.7194,-0.7469,-0.7558,-0.7727,-0.8146,-0.8204,-0.8318,-0.8546,-0.8678,-0.8867,-0.9689,-1.0544,-1.1198,-1.1192,-1.1289,-1.1554,-0.7117,-0.7136,-0.7512,-0.7519,-0.7295,-0.7356,-0.7239,-0.7006,-0.6897,-0.6853,-0.6804,-0.599,-0.5288,-0.4654,-0.4124,-0.3934,-0.4065,-0.3547,-0.3241,-0.3112,-0.3071,-0.291,-0.2651,-0.2546,-0.2193,-0.1608,-0.159,-0.124,-0.0662,-0.1351,-0.1668,-0.1631,-0.2694,-0.3404,-0.3699,-0.3706,-0.3815,-0.403,-0.3951,-0.3807,-0.361,-0.3599,-0.3599,-0.3599,-0.3749,-0.3819,-0.3819,-0.4019,-0.4133,-0.4083,-0.4304,-0.439,-0.4274,-0.4449,0.0,0.0,0.0,0.0,0.0,0.0,0.0,0.0,0.0,-0.5407,-0.4838,0.0,-0.5547,0.0,-0.526,-0.476,-0.4047,-0.407,0.0,0.0,-0.4275,-0.4006,-0.3384,-0.3332,-0.3058,-0.2298,-0.2262,-0.2542,-0.315,-0.3257,-0.3688,-0.4803,-0.4886,-0.4853,-0.4894,-0.5432,-0.5732,-0.5676,-0.6126,-0.6546,-0.6566,-0.6756,-0.6889,-0.6951,-0.7021,-0.7187,-0.7459,-0.768,-0.79,-0.8138,-0.8362,-0.8502,-0.859,-0.8616,-0.8678,-0.8911,-0.9619,-1.0246,-1.0241,-1.0616,-1.1026,-0.6965,-0.7019,-0.6955,-0.6962,-0.7029,-0.7068,-0.7117,-0.7044,-0.6574,-0.6368,-0.6318,-0.5284,-0.4601,-0.4154,-0.3561,-0.3272,-0.3241,-0.2792,-0.2342,-0.1917,-0.2053,-0.1897,-0.1498,-0.1439,-0.1144,-0.072,-0.072,-0.0483,-0.0041,-0.053,-0.0749,-0.072,-0.1259,-0.1792,-0.2371,-0.2724,-0.2991,-0.3164,-0.3348,-0.3366,-0.3225,-0.3517,-0.3662,-0.3602,-0.3648,-0.3687,-0.369,-0.3785,-0.389,-0.3997,-0.4067,-0.4148,-0.4281,-0.4407,-0.444,0.0,0.0,0.0,0.0,0.0,0.0,0.0,0.0,0.0,0.0,0.0,-0.5107,0.0,-0.4522,0.0,-0.3662,-0.3808,-0.3854,-0.3676,-0.3619,-0.3319,-0.2561,-0.2423,-0.2178,-0.1671,-0.152,-0.1704,-0.2202,-0.2247,-0.2397,-0.2952,-0.2986,-0.3268,-0.4054,-0.4571,-0.4785,-0.4708,-0.5317,-0.602,-0.6418,-0.6631,-0.6753,-0.6824,-0.6928,-0.7069,-0.7207,-0.7409,-0.765,-0.7984,-0.8186,-0.8344,-0.8568,-0.8616,-0.8616,-0.8678,-0.8977,-0.9301,-0.9323,-0.9628,-0.9947,-0.6458,-0.6544,-0.6418,-0.6437,-0.6566,-0.6682,-0.6797,-0.6837,-0.5915,-0.5441,-0.5274,-0.4485,-0.4067,-0.3866,-0.3042,-0.2569,-0.2343,-0.2122,-0.1419,-0.0448,-0.1013,-0.0861,-0.0059,-0.002,-0.0039,0.0,0.0,0.0,0.0,0.0,0.0,0.0,0.0,-0.0311,-0.0967,-0.1667,-0.2005,-0.2003,-0.2524,-0.2759,-0.2733,-0.326,-0.3585,-0.364,-0.3652,-0.3732,-0.381,-0.3909,-0.3969,-0.4022,-0.404,-0.4129,-0.4268,-0.4453,-0.4552,0.0,-0.4883,0.0,0.0,0.0,0.0,0.0,0.0,0.0,0.0,-0.4624,-0.4308,-0.3359,-0.3592,-0.3741,-0.3617,-0.3967,-0.3845,-0.295,-0.2918,-0.2622,-0.1717,-0.1592,-0.1579,-0.1594,-0.1543,-0.149,-0.1524,-0.1452,-0.1413,-0.1522,-0.1563,-0.2082,-0.3429,-0.3777,-0.3812,-0.3827,-0.4407,-0.5126,-0.5805,-0.6074,-0.6145,-0.6287,-0.6332,-0.6598,-0.6696,-0.6873,-0.7161,-0.7698,-0.7896,-0.8054,-0.8476,-0.8546,-0.8546,-0.859,-0.8634,-0.8678,-0.8678,-0.8714,-0.885,-0.4687,-0.4704,-0.4682,-0.4687,-0.4706,-0.4746,-0.5152,-0.5741,-0.4859,-0.4054,-0.3362,-0.3222,-0.2709,-0.1948,-0.1591,-0.1506,-0.1584,-0.1174,-0.0939,-0.0874,-0.0778,-0.0571,-0.0255,-0.0255,-0.0157,0.0,0.0,0.0,0.0,0.0,0.0,0.0,0.0,-0.0059,0.0,0.0,0.0,0.0,-0.21,-0.2387,-0.2825,-0.2411,-0.2721,-0.3781,-0.3328,0.0,-0.3861,-0.4097,-0.4007,-0.3564,-0.3682,0.0,0.0,0.0,0.0,0.0,0.0,0.0,0.0,0.0,0.0,0.0,-0.3943,-0.393,-0.3674,-0.4042,-0.3851,-0.2798,-0.2969,-0.2857,-0.212,-0.2119,-0.2098,-0.1905,-0.189,-0.1818,-0.1592,-0.1592,-0.1571,-0.1517,-0.1505,-0.1482,-0.1431,-0.1394,-0.1413,-0.1412,-0.1409,-0.1522,-0.1911,-0.253,-0.2862,-0.2913,-0.3562,-0.4077,-0.4264,-0.4464,-0.4632,-0.4523,-0.462,-0.5049,-0.5742,-0.6118,-0.658,-0.7323,-0.7768,-0.7896,-0.8204,-0.827,-0.8292,-0.8568,-0.8594,-0.8616,-0.8616,-0.8616,-0.8652,-0.4042,0.0,-0.4033,-0.404,0.0,-0.3568,-0.361,-0.4001,-0.3656,-0.2995,-0.2108,-0.2131,-0.1883,-0.1413,-0.1301,-0.1301,-0.1347,-0.0994,-0.0889,-0.094,-0.0711,-0.055,-0.0432,-0.0432,-0.0393,-0.0295,-0.0216,-0.0157,-0.0157,-0.0059,0.0,0.0,0.0,0.0,0.0,0.0,-0.0346,-0.1008,-0.1374,-0.1684,-0.1906,-0.1918,-0.2201,-0.2818,0.0,0.0,0.0,0.0,0.0,0.0,0.0,0.0,0.0,0.0,0.0,-0.3071,-0.3225,-0.3345,-0.3343,-0.34,-0.3373,-0.3168,-0.2839,-0.2781,-0.3021,-0.2963,-0.2677,-0.2114,-0.2223,-0.2096,-0.1665,-0.1594,-0.1575,-0.159,-0.1592,-0.1592,-0.1592,-0.1592,-0.1568,-0.1514,-0.1502,-0.148,-0.1399,-0.1413,-0.1413,-0.1412,-0.14,-0.1412,-0.143,-0.1701,-0.2067,-0.2516,-0.2901,-0.3342,-0.3728,-0.3836,-0.3872,-0.3934,-0.4048,-0.4338,-0.4829,-0.5063,-0.5403,-0.596,-0.6185,-0.6403,-0.6886,-0.7243,-0.7625,-0.8003,-0.834,-0.859,-0.8616,-0.8616,-0.8616,-0.3436,-0.3518,-0.3412,-0.3423,-0.346,-0.2629,-0.2281,-0.2297,0.0,0.0,0.0,-0.1398,-0.1413,-0.1413,-0.1413,-0.1359,-0.1307,-0.1137,-0.1027,-0.0963,-0.0786,-0.0707,-0.0648,-0.0668,-0.0629,-0.0589,-0.0452,-0.0354,-0.0354,-0.0177,-0.0098,-0.0098,-0.0079,-0.0039,0.0,-0.0038,-0.0056,-0.0089,-0.0623,-0.0925,-0.0949,-0.1395,-0.1706,-0.1831,-0.188,-0.1961,-0.2075,-0.2195,-0.2305,-0.2418,-0.2468,-0.2528,-0.2695,-0.291,-0.3047,-0.3098,-0.3283,-0.3374,-0.3376,-0.3378,-0.3132,-0.2543,-0.1958,-0.1865,-0.2482,-0.1958,-0.1579,-0.1579,-0.1579,-0.159,-0.1589,-0.1592,-0.1592,-0.1592,-0.1592,-0.1592,-0.1591,-0.1586,-0.1561,-0.1513,-0.1497,-0.1475,-0.1399,-0.1413,-0.1413,-0.1413,-0.1412,-0.1413,-0.1384,-0.1388,-0.1625,-0.216,-0.2319,-0.2596,-0.3123,-0.3266,-0.3355,-0.3249,-0.3416,-0.3682,-0.3848,-0.3969,-0.4172,-0.4648,-0.4603,-0.5026,-0.5578,-0.6267,-0.6801,-0.7224,-0.776,-0.8212,-0.8212,-0.8208,-0.8256,-0.1664,-0.1676,-0.165,-0.1671,-0.1676,-0.1533,-0.149,-0.1461,-0.1519,-0.1434,-0.1336,-0.1368,-0.1413,-0.1413,-0.1413,-0.1382,-0.1307,-0.1285,-0.1253,0.0,-0.1199,-0.1081,-0.0864,-0.0864,-0.0766,-0.0609,-0.055,-0.055,-0.055,-0.0511,-0.053,-0.0471,-0.0354,-0.0157,-0.0039,-0.0172,-0.0264,-0.0262,-0.0183,-0.0463,-0.104,-0.0567,-0.0867,-0.1975,-0.167,-0.1786,-0.2408,-0.2687,-0.2657,-0.2176,-0.2268,-0.2097,-0.1584,-0.161,-0.1594,-0.16,-0.169,-0.1729,-0.1752,-0.1789,-0.1789,-0.1762,-0.1662,-0.164,-0.1731,-0.1665,-0.1586,-0.1585,-0.1584,-0.1586,-0.1592,-0.1592,-0.1592,-0.1592,-0.1592,-0.1592,-0.1591,-0.1596,-0.1567,-0.1507,-0.1502,-0.1477,-0.1421,-0.1413,-0.1413,-0.1413,-0.1413,-0.1413,-0.1408,-0.1406,-0.1418,-0.1459,-0.1474,-0.1537,-0.1818,-0.1684,-0.1816,-0.1662,-0.1844,-0.224,-0.287,-0.3047,-0.3331,-0.4133,-0.4403,-0.485,-0.5292,-0.5852,-0.6188,-0.6495,-0.6764,-0.683,-0.6874,-0.6852,-0.7161,-0.1319,-0.1305,-0.1308,-0.1322,-0.1322,-0.1321,-0.1309,-0.1307,-0.133,-0.1349,-0.1353,-0.1372,-0.1413,-0.1413,-0.1413,-0.1368,-0.1349,-0.1371,-0.1339,-0.1304,-0.1322,-0.1034,-0.0609,-0.057,-0.0354,0.0039,0.0177,0.0216,0.0236,0.0354,0.0432,0.0432,0.053,0.0432,0.0177,0.0078,-0.0135,-0.0444,-0.0372,-0.0435,-0.0663,-0.0326,-0.0474,-0.1114,-0.0907,-0.1012,-0.146,-0.1649,-0.168,-0.15,-0.1611,-0.1543,-0.1371,-0.1343,-0.1352,-0.1352,-0.1385,-0.1414,-0.1415,-0.1471,-0.1524,-0.1592,-0.1587,-0.1596,-0.1596,-0.1584,-0.1592,-0.1592,-0.1592,-0.1592,-0.1592,-0.1592,-0.1592,-0.1592,-0.1592,-0.1592,-0.159,-0.1581,-0.1577,-0.151,-0.149,-0.1487,-0.1418,-0.1413,-0.1413,-0.1413,-0.1413,-0.1413,-0.1413,-0.1402,-0.141,-0.1376,-0.1352,-0.1374,-0.1373,-0.1352,-0.1374,-0.1352,-0.1384,-0.159,-0.1988,-0.2097,-0.2282,-0.2597,-0.2931,-0.3312,-0.3892,-0.4516,-0.5097,-0.5788,-0.6188,-0.634,-0.6406,-0.6406,-0.6805,-0.1311,-0.1304,-0.1302,-0.1313,-0.1313,-0.1313,-0.1316,-0.1327,-0.1371,-0.1394,-0.1403,-0.1403,-0.1413,-0.1413,-0.1413,-0.1308,-0.1153,-0.115,-0.1022,-0.0842,-0.082,-0.0548,-0.01,-0.004,0.0199,0.0594,0.0772,0.0849,0.0865,0.1066,0.1211,0.1256,0.1257,0.0995,0.0515,0.0495,0.0217,-0.0235,-0.0303,-0.0351,-0.0368,-0.037,-0.0393,-0.04,-0.0441,-0.0545,-0.0678,-0.0796,-0.0929,-0.1076,-0.1137,-0.1227,-0.138,-0.14,-0.1413,-0.1413,-0.142,-0.143,-0.1444,-0.1486,-0.1549,-0.1579,-0.1579,-0.1516,-0.1338,-0.1338,-0.1415,-0.1566,-0.1592,-0.1592,-0.1592,-0.1592,-0.1592,-0.1592,-0.1592,-0.1491,-0.1363,-0.1329,-0.1312,-0.1276,-0.1115,-0.1045,-0.132,-0.1282,-0.1234,-0.1346,-0.1413,-0.1413,-0.1413,-0.1413,-0.1413,-0.1413,-0.1413,-0.141,-0.1413,-0.1411,-0.141,-0.1413,-0.1412,-0.1433,-0.1478,-0.1435,-0.1436,-0.157,-0.1637,-0.2062,-0.2667,-0.3269,-0.4007,-0.4768,-0.5255,-0.5675,-0.5786,-0.6008,-0.6362,-0.135,-0.1307,-0.1304,-0.1323,-0.1322,-0.1323,-0.1357,-0.138,-0.141,-0.1406,-0.1362,-0.1411,-0.1391,-0.1413,-0.1391,-0.1042,-0.0435,-0.0412,-0.0064,0.0504,0.0607,0.0627,0.0687,0.0688,0.0702,0.075,0.0789,0.0842,0.079,0.0803,0.092,0.1083,0.1107,0.1178,0.1158,0.1013,0.0882,0.0747,0.0586,0.0135,-0.0548,-0.0578,-0.0605,-0.0646,-0.084,-0.094,-0.0959,-0.1196,-0.1339,-0.1363,-0.1368,-0.1386,-0.1408,-0.1411,-0.1413,-0.1415,-0.1439,-0.1523,-0.1551,-0.1588,-0.1529,-0.1584,-0.1513,-0.1212,-0.0606,-0.0505,-0.0833,-0.1313,-0.1541,-0.1465,-0.1592,-0.1516,-0.1415,-0.1364,-0.1415,-0.1313,-0.0654,-0.049,-0.053,-0.0489,0.0,0.0023,-0.0988,-0.0818,-0.0719,-0.1122,-0.1234,-0.1279,-0.1301,-0.1391,-0.1413,-0.1413,-0.1413,-0.1413,-0.1413,-0.1413,-0.1413,-0.1413,-0.1413,-0.1413,-0.1413,-0.1413,-0.1413,-0.1436,-0.1728,-0.2042,-0.231,-0.2689,-0.3183,-0.3831,-0.4143,-0.4099,-0.4476,-0.5057,-0.5702,-0.1388,-0.1354,-0.1358,-0.1341,-0.1309,-0.1344,-0.1357,-0.1412,-0.1409,-0.1179,-0.0829,-0.0807,-0.083,-0.0807,-0.0807,-0.0402,0.0266,0.0288,0.0459,0.0794,0.0793,0.0979,0.1304,0.1324,0.1504,0.1866,0.1887,0.1857,0.1847,0.1857,0.1938,0.2037,0.204,0.1861,0.1577,0.1451,0.1237,0.0839,0.0756,0.057,0.0242,-0.01,-0.0444,-0.0839,-0.0951,-0.1063,-0.118,-0.1332,-0.1412,-0.1414,-0.1397,-0.1413,-0.1413,-0.1413,-0.142,-0.1439,-0.1025,-0.0811,-0.0882,-0.0441,-0.0148,-0.0176,-0.0177,-0.0025,0.0252,0.0303,0.0151,-0.0101,-0.0177,-0.0177,-0.0202,-0.0202,-0.0177,-0.0177,-0.0177,-0.005,0.0252,0.0323,0.032,0.0392,0.0624,0.066,0.0117,0.0139,0.0182,-0.018,-0.0493,-0.0807,-0.083,-0.1144,-0.1391,-0.1413,-0.1413,-0.1413,-0.1413,-0.1413,-0.1413,-0.1413,-0.1413,-0.1413,-0.1413,-0.1413,-0.1413,-0.1413,-0.1615,-0.1885,-0.2177,-0.2333,-0.2668,-0.3272,-0.3898,-0.4099,-0.4275,-0.4545,-0.4879,-0.1413,-0.141,-0.1411,-0.1369,-0.1331,-0.1393,-0.1293,-0.1119,-0.1114,-0.074,-0.0135,-0.0112,0.0022,0.0157,0.0,0.0314,0.0942,0.0987,0.1156,0.1338,0.138,0.1608,0.1992,0.2033,0.2262,0.2654,0.2695,0.2718,0.2739,0.2738,0.2746,0.2761,0.2764,0.2497,0.2037,0.1995,0.1776,0.1366,0.1303,0.1243,0.1035,0.0668,0.0146,-0.0424,-0.051,-0.0596,-0.075,-0.0783,-0.0833,-0.0811,-0.0805,-0.0791,-0.0791,-0.0796,-0.0805,-0.0798,-0.031,0.0,-0.0049,0.0519,0.0869,0.0805,0.0781,0.0907,0.1084,0.1134,0.1235,0.1462,0.1462,0.1361,0.0806,0.0781,0.0781,0.0781,0.0781,0.0857,0.1084,0.1105,0.112,0.1211,0.1462,0.1403,0.1192,0.0936,0.0689,0.059,0.0225,-0.0112,-0.0135,-0.0493,-0.0762,-0.083,-0.0807,-0.0987,-0.1279,-0.1413,-0.1413,-0.1413,-0.1413,-0.1413,-0.1413,-0.1413,-0.1413,-0.1413,-0.1413,-0.148,-0.1773,-0.1974,-0.2336,-0.3162,-0.3791,-0.4176,-0.4275,-0.43,-0.4322,-0.1413,-0.1413,-0.1412,-0.1408,-0.1387,-0.1408,-0.1029,-0.0492,-0.0471,-0.0045,0.0561,0.0605,0.1031,0.157,0.0942,0.1076,0.1683,0.175,0.2086,0.264,0.2709,0.2799,0.2844,0.2865,0.2812,0.2804,0.2801,0.2801,0.2781,0.2779,0.2831,0.2881,0.2878,0.2832,0.2699,0.2691,0.2686,0.252,0.2495,0.2276,0.1752,0.1646,0.1321,0.0803,0.0694,0.059,0.0556,0.0581,0.0582,0.0582,0.0571,0.0647,0.0648,0.0682,0.0694,0.0705,0.0806,0.0814,0.0752,0.0879,0.0931,0.0882,0.1008,0.1184,0.1866,0.1942,0.2219,0.2978,0.2876,0.2371,0.121,0.1084,0.1008,0.0983,0.0907,0.1235,0.1866,0.1916,0.1909,0.2043,0.2449,0.2504,0.2004,0.1288,0.1045,0.0945,0.075,0.0652,0.063,0.0584,0.0472,0.0426,0.0359,0.0135,-0.1031,-0.1234,-0.1279,-0.1301,-0.1256,-0.1391,-0.1391,-0.1413,-0.1391,-0.1391,-0.1413,-0.1413,-0.1436,-0.1685,-0.2117,-0.2796,-0.3506,-0.3912,-0.4322,-0.432,-0.4328,-0.1413,-0.1436,-0.1773,-0.1548,-0.1009,-0.1279,-0.0919,-0.0179,-0.0135,0.0269,0.0874,0.0942,0.1368,0.2042,0.1795,0.1974,0.2492,0.2515,0.2649,0.2897,0.2897,0.2897,0.2897,0.2897,0.2888,0.2867,0.2864,0.2864,0.2863,0.2863,0.2896,0.2892,0.2897,0.2885,0.2867,0.2864,0.2852,0.2834,0.2809,0.2709,0.2462,0.2463,0.2387,0.2166,0.1227,0.0712,0.0695,0.0727,0.0755,0.0778,0.0816,0.0849,0.0874,0.0888,0.0875,0.0931,0.1338,0.1602,0.1637,0.2043,0.2346,0.2321,0.2346,0.2396,0.2675,0.2775,0.2901,0.313,0.3205,0.2826,0.2548,0.2321,0.2346,0.2346,0.2321,0.2371,0.2672,0.2758,0.2756,0.2791,0.3036,0.3005,0.2721,0.2436,0.2271,0.2219,0.1849,0.1576,0.1399,0.1098,0.0843,0.0721,0.0695,0.0538,0.0135,-0.0493,-0.0785,-0.0897,-0.0987,-0.1234,-0.1323,-0.1234,-0.1189,-0.1122,-0.1189,-0.1348,-0.1395,-0.2,-0.2367,-0.2753,-0.3453,-0.3995,-0.4452,-0.4434,-0.4468,-0.1637,-0.1682,-0.1862,-0.157,-0.0942,-0.0919,-0.0471,0.0314,0.0359,0.0762,0.1368,0.1458,0.175,0.2132,0.22,0.2357,0.2672,0.2672,0.2672,0.2694,0.2739,0.2763,0.2785,0.2852,0.2897,0.2897,0.2897,0.2897,0.2897,0.2897,0.2897,0.2897,0.2914,0.2946,0.2926,0.2942,0.2976,0.2976,0.2975,0.2976,0.2953,0.2976,0.297,0.2883,0.2004,0.1463,0.1463,0.153,0.1541,0.1545,0.1595,0.1616,0.1628,0.1646,0.1656,0.1709,0.2103,0.2371,0.2447,0.2901,0.318,0.318,0.3205,0.3205,0.3205,0.3205,0.3205,0.3205,0.3205,0.3205,0.3205,0.318,0.3205,0.3205,0.3205,0.3205,0.3205,0.318,0.3179,0.3155,0.3176,0.3181,0.3151,0.3102,0.3047,0.3106,0.2631,0.2366,0.2202,0.1914,0.1513,0.1491,0.1582,0.1623,0.1367,0.0932,0.0226,0.0,-0.0269,-0.0673,-0.0897,-0.0852,-0.083,-0.083,-0.0966,-0.1171,-0.161,-0.2247,-0.2654,-0.2939,-0.3529,-0.4092,-0.4375,-0.458,-0.4578,-0.2132,-0.1974,-0.1615,-0.1323,-0.1054,-0.0404,0.0359,0.0964,0.1054,0.1391,0.1907,0.2064,0.2019,0.2155,0.2109,0.2177,0.2183,0.2184,0.2248,0.2267,0.2424,0.2517,0.2521,0.2727,0.2822,0.2825,0.286,0.2859,0.2823,0.2826,0.2825,0.2871,0.2893,0.2867,0.2961,0.2982,0.3063,0.3059,0.3031,0.3086,0.3119,0.3083,0.3086,0.3095,0.2972,0.2903,0.2978,0.2979,0.2906,0.2961,0.2961,0.3094,0.3007,0.302,0.31,0.2996,0.3128,0.318,0.3155,0.318,0.3205,0.3205,0.3205,0.3205,0.3205,0.3205,0.3205,0.3205,0.3205,0.3205,0.3205,0.3205,0.3205,0.3205,0.3205,0.3205,0.3205,0.3205,0.3205,0.3205,0.3205,0.3205,0.3193,0.3159,0.3124,0.3086,0.303,0.2947,0.2912,0.2789,0.2978,0.2945,0.271,0.2477,0.2464,0.2357,0.1598,0.0972,0.063,0.0292,0.0157,0.0135,0.0067,0.0045,-0.0202,-0.0427,-0.08,-0.1455,-0.22,-0.2634,-0.3373,-0.4072,-0.4464,-0.4673,-0.465,-0.1279,-0.074,-0.0852,-0.0538,-0.0022,0.0045,0.0493,0.1279,0.1301,0.1436,0.1637,0.166,0.166,0.166,0.166,0.1673,0.1717,0.1741,0.1889,0.2161,0.2269,0.2286,0.2311,0.2384,0.2426,0.243,0.2436,0.2435,0.2434,0.2433,0.2413,0.2416,0.2448,0.2432,0.2481,0.266,0.2762,0.2786,0.2978,0.3122,0.3122,0.3098,0.3117,0.3106,0.3112,0.3104,0.3168,0.3135,0.3112,0.3112,0.3144,0.3186,0.3201,0.3205,0.3205,0.3205,0.3205,0.3205,0.3205,0.3205,0.3205,0.3205,0.3205,0.3205,0.3205,0.3205,0.3205,0.3205,0.3205,0.3205,0.3205,0.3205,0.3205,0.3205,0.3205,0.3205,0.3205,0.3205,0.3205,0.3205,0.3205,0.3205,0.3204,0.3179,0.3173,0.3173,0.3154,0.3157,0.3123,0.3112,0.3113,0.3109,0.3101,0.308,0.2892,0.278,0.2382,0.1792,0.1454,0.1192,0.1078,0.1031,0.0964,0.0762,0.0516,0.0203,-0.0161,-0.0743,-0.1525,-0.2247,-0.2874,-0.3636,-0.4464,-0.4612,-0.4439,-0.0807,-0.0292,-0.0404,-0.0112,0.0448,0.0448,0.0852,0.137,0.1425,0.1452,0.1454,0.1442,0.1439,0.1434,0.1418,0.1449,0.1483,0.1492,0.1673,0.1931,0.2066,0.2082,0.2105,0.2178,0.2189,0.2188,0.2194,0.2194,0.2194,0.2194,0.2194,0.2195,0.2209,0.2241,0.2244,0.2427,0.253,0.2554,0.2728,0.2848,0.2824,0.2848,0.284,0.287,0.2924,0.2967,0.2922,0.3043,0.3124,0.3154,0.3188,0.3205,0.3205,0.3205,0.3205,0.3205,0.3205,0.3205,0.3205,0.3205,0.3205,0.3205,0.3205,0.3205,0.3205,0.3205,0.3205,0.3205,0.3205,0.3205,0.3205,0.3205,0.3205,0.3205,0.3205,0.3205,0.3205,0.3205,0.3205,0.3205,0.3205,0.3205,0.3205,0.3205,0.3205,0.3205,0.3205,0.32,0.3134,0.3148,0.3143,0.3148,0.3158,0.3146,0.3114,0.3071,0.3055,0.2649,0.2233,0.2021,0.1868,0.1864,0.1817,0.1436,0.1144,0.0702,0.0322,-0.0277,-0.0978,-0.1645,-0.2213,-0.2673,-0.3255,-0.3844,-0.3864,-0.063,-0.0517,-0.009,0.0157,0.0292,0.1013,0.1352,0.1422,0.147,0.1506,0.1489,0.1484,0.1506,0.1493,0.1483,0.1484,0.1495,0.1516,0.1532,0.1627,0.177,0.1891,0.1912,0.2037,0.2093,0.2117,0.2116,0.2137,0.2097,0.2096,0.2154,0.212,0.2148,0.2234,0.2191,0.2324,0.236,0.2358,0.2412,0.2462,0.2463,0.244,0.2441,0.2468,0.2643,0.267,0.2571,0.2845,0.3124,0.3179,0.3202,0.3205,0.3205,0.3205,0.3205,0.3205,0.3205,0.3205,0.3205,0.3205,0.3205,0.3205,0.3205,0.3205,0.3205,0.3205,0.3205,0.3205,0.3205,0.3205,0.3205,0.3205,0.3205,0.3205,0.3205,0.3205,0.3205,0.3205,0.3205,0.3205,0.3205,0.3205,0.3205,0.3205,0.3205,0.3205,0.3205,0.32,0.3198,0.319,0.3201,0.319,0.3195,0.3156,0.3147,0.3142,0.3123,0.2972,0.2659,0.2571,0.2451,0.2458,0.238,0.2019,0.1662,0.1226,0.089,0.0412,-0.0162,-0.08,-0.1221,-0.1508,-0.2089,-0.2799,-0.3095,0.0302,0.0918,0.1055,0.1101,0.1124,0.1399,0.1468,0.1472,0.1478,0.1491,0.1493,0.1498,0.1501,0.1492,0.15,0.1532,0.1568,0.1555,0.1574,0.1566,0.1618,0.1677,0.1692,0.1731,0.1766,0.1764,0.1785,0.1767,0.1767,0.1787,0.1764,0.1768,0.1796,0.1803,0.1807,0.2015,0.2097,0.2121,0.2322,0.2371,0.2371,0.2371,0.2422,0.2422,0.2472,0.2472,0.2396,0.2522,0.2826,0.318,0.3205,0.3205,0.318,0.3205,0.3205,0.3205,0.3205,0.3205,0.3205,0.3205,0.3205,0.3205,0.318,0.3205,0.3205,0.3205,0.3205,0.3205,0.3205,0.318,0.318,0.3205,0.3205,0.3205,0.3205,0.3205,0.3205,0.3205,0.3205,0.3205,0.3205,0.3205,0.3205,0.3205,0.3205,0.3205,0.3205,0.3205,0.3205,0.3205,0.3205,0.3205,0.3194,0.3193,0.3161,0.3158,0.3161,0.311,0.299,0.2901,0.2808,0.2769,0.2617,0.2379,0.2132,0.1741,0.1716,0.1489,0.0825,0.0023,-0.0234,-0.057,-0.1371,-0.2065,-0.206,0.1018,0.15,0.15,0.15,0.15,0.15,0.15,0.1506,0.1531,0.1545,0.1548,0.156,0.1557,0.1547,0.1535,0.1541,0.1573,0.1585,0.1575,0.1587,0.159,0.1605,0.1598,0.1586,0.1592,0.1592,0.1592,0.159,0.1615,0.1592,0.1592,0.1615,0.1592,0.1592,0.164,0.1718,0.1819,0.1844,0.1995,0.207,0.207,0.207,0.207,0.2095,0.2145,0.2246,0.2371,0.2297,0.2448,0.2801,0.2978,0.3029,0.3029,0.313,0.3205,0.3205,0.3205,0.3205,0.3205,0.3205,0.3205,0.318,0.3104,0.3054,0.3004,0.2953,0.2851,0.2851,0.2851,0.2927,0.3029,0.313,0.3205,0.3205,0.3205,0.3205,0.3205,0.3205,0.3205,0.3205,0.3205,0.3205,0.3205,0.3205,0.3205,0.3205,0.3205,0.3205,0.3205,0.3205,0.3205,0.3205,0.3205,0.3201,0.32,0.3197,0.3196,0.3152,0.2993,0.2981,0.2952,0.287,0.2658,0.2462,0.2408,0.2289,0.2064,0.1862,0.1444,0.0844,0.0643,0.0371,-0.0282,-0.1007,-0.1016,0.151,0.1531,0.1531,0.1506,0.1507,0.1531,0.1507,0.1512,0.1563,0.1576,0.1581,0.1579,0.1596,0.1578,0.1571,0.1576,0.158,0.1577,0.1586,0.1592,0.1592,0.1588,0.1588,0.1589,0.1592,0.1592,0.1592,0.1592,0.1592,0.1592,0.1592,0.1592,0.1592,0.1592,0.1592,0.1617,0.1592,0.1617,0.1667,0.1692,0.1692,0.1692,0.1692,0.1717,0.1844,0.2045,0.2146,0.2096,0.2096,0.2296,0.2599,0.275,0.2801,0.3004,0.3079,0.3054,0.3029,0.3054,0.3079,0.3029,0.3079,0.3029,0.2851,0.2775,0.2725,0.2598,0.2497,0.2522,0.2447,0.2675,0.2876,0.3054,0.3155,0.318,0.3205,0.3205,0.3205,0.3205,0.3205,0.3205,0.3205,0.3205,0.3205,0.3205,0.3205,0.3205,0.3205,0.3205,0.3205,0.3205,0.3205,0.3205,0.3205,0.3205,0.3205,0.3205,0.3204,0.3162,0.2932,0.2818,0.282,0.2731,0.2531,0.2372,0.2208,0.2013,0.1817,0.1638,0.1528,0.1419,0.1046,0.1214,0.1226,0.0402,0.0072,0.1583,0.1586,0.1586,0.1586,0.1586,0.1586,0.1586,0.1564,0.1594,0.1579,0.1583,0.159,0.1588,0.1582,0.1588,0.1588,0.158,0.1588,0.1592,0.1592,0.1592,0.1592,0.1592,0.1592,0.1592,0.1592,0.1592,0.1592,0.1592,0.1592,0.1592,0.1592,0.1592,0.1592,0.1592,0.1592,0.1592,0.1592,0.1592,0.1592,0.1592,0.1592,0.1592,0.1592,0.1667,0.1693,0.1743,0.1718,0.1718,0.1869,0.2196,0.2472,0.2498,0.2573,0.2624,0.2649,0.2623,0.2598,0.2573,0.2623,0.2573,0.2624,0.2549,0.2472,0.2497,0.2422,0.2371,0.2422,0.2598,0.2725,0.2927,0.2927,0.3004,0.3104,0.318,0.3205,0.3205,0.3205,0.3205,0.3205,0.3205,0.3205,0.3205,0.3205,0.3205,0.3205,0.3205,0.3205,0.3205,0.3205,0.3205,0.3205,0.3205,0.3205,0.3205,0.318,0.3155,0.3079,0.2832,0.2614,0.2623,0.2485,0.2244,0.2075,0.1913,0.1738,0.1609,0.1553,0.1466,0.142,0.1398,0.1432,0.138,0.1056,0.0929,0.1583,0.1593,0.1593,0.1593,0.1593,0.1593,0.1592,0.1595,0.1584,0.1592,0.1592,0.1592,0.1592,0.1592,0.1592,0.1592,0.1592,0.1592,0.1592,0.1592,0.1592,0.1592,0.1592,0.1592,0.1592,0.1592,0.1592,0.1592,0.1592,0.1592,0.1592,0.1592,0.1592,0.1592,0.1592,0.1592,0.1592,0.1592,0.1592,0.1592,0.1592,0.1592,0.1592,0.1592,0.1592,0.1592,0.1592,0.1592,0.1592,0.1667,0.1869,0.2095,0.2221,0.2346,0.2396,0.2422,0.2422,0.2422,0.2422,0.2422,0.2422,0.2422,0.2297,0.2247,0.2171,0.2121,0.2019,0.2044,0.2146,0.2348,0.2625,0.2826,0.2876,0.2978,0.313,0.3205,0.3205,0.3205,0.3205,0.3205,0.3205,0.3205,0.3205,0.3205,0.3205,0.3205,0.3205,0.3205,0.3205,0.3205,0.3205,0.3205,0.3205,0.3205,0.3205,0.318,0.3104,0.2953,0.2694,0.2459,0.231,0.2135,0.1919,0.1816,0.1783,0.1648,0.1518,0.1461,0.1453,0.1424,0.1424,0.143,0.1403,0.1275,0.1264,0.1592,0.1592,0.1592,0.1592,0.1592,0.159,0.159,0.159,0.1592,0.1592,0.1592,0.1592,0.1592,0.1592,0.1592,0.1592,0.1592,0.1592,0.1592,0.1592,0.1592,0.1592,0.1592,0.1592,0.1592,0.1592,0.1592,0.1592,0.1592,0.1592,0.1592,0.1592,0.1592,0.1592,0.1592,0.1592,0.1592,0.1592,0.1592,0.1592,0.1592,0.1592,0.1592,0.1592,0.1592,0.1592,0.1592,0.1592,0.1592,0.1592,0.1592,0.1718,0.192,0.2121,0.227,0.227,0.2221,0.2195,0.2246,0.2396,0.2572,0.2497,0.2598,0.2523,0.2549,0.2573,0.2521,0.2395,0.2522,0.2648,0.2575,0.3127,0.3377,0.3402,0.3481,0.338,0.3405,0.3331,0.3205,0.3205,0.3205,0.3205,0.3205,0.3205,0.3205,0.3205,0.3205,0.3205,0.3205,0.3205,0.3205,0.3205,0.3205,0.3231,0.3236,0.309,0.3035,0.2868,0.2603,0.2321,0.2087,0.1944,0.1796,0.1749,0.1695,0.1561,0.1529,0.1526,0.1489,0.1464,0.148,0.1515,0.1528,0.153,0.1543,0.1592,0.1592,0.1592,0.1592,0.1592,0.1592,0.1592,0.1592,0.1592,0.1592,0.1592,0.1592,0.1592,0.1592,0.1592,0.1592,0.1592,0.1592,0.1592,0.1592,0.1592,0.1592,0.1592,0.1592,0.1592,0.1592,0.1592,0.1592,0.1592,0.1592,0.1592,0.1592,0.1592,0.1592,0.1592,0.1592,0.1592,0.1592,0.1592,0.1592,0.1592,0.1592,0.1592,0.1592,0.1592,0.1592,0.1592,0.1592,0.1592,0.1592,0.1592,0.1642,0.1743,0.1793,0.1868,0.1818,0.1944,0.2044,0.207,0.2672,0.2998,0.3274,0.3699,0.4151,0.42,0.4175,0.3874,0.3974,0.4074,0.4327,0.4933,0.4607,0.4954,0.5054,0.4655,0.423,0.4207,0.3883,0.3306,0.318,0.318,0.3205,0.3205,0.3205,0.3205,0.3205,0.3205,0.3205,0.3205,0.3205,0.3205,0.3205,0.3205,0.3242,0.3274,0.3078,0.2956,0.2802,0.2543,0.2227,0.2011,0.1844,0.174,0.1702,0.1669,0.1599,0.157,0.1568,0.1542,0.1531,0.1559,0.159,0.159,0.1592,0.1641,0.1592,0.1592,0.1592,0.1592,0.1592,0.1592,0.1592,0.1592,0.1592,0.1592,0.1592,0.1592,0.1592,0.1592,0.1592,0.1592,0.1592,0.1592,0.1592,0.1592,0.1592,0.1592,0.1592,0.1592,0.1592,0.1592,0.1592,0.1592,0.1592,0.1592,0.1592,0.1592,0.1592,0.1592,0.1592,0.1592,0.1592,0.1592,0.1592,0.1592,0.1592,0.1592,0.1592,0.1592,0.1592,0.1592,0.1592,0.1592,0.1592,0.1592,0.1592,0.1592,0.1742,0.207,0.2196,0.1869,0.2145,0.2422,0.2597,0.3398,0.4001,0.4099,0.4599,0.4774,0.4799,0.4724,0.4899,0.4849,0.4799,0.4899,0.5054,0.5254,0.5354,0.5454,0.5231,0.4908,0.4583,0.4433,0.3957,0.3381,0.3281,0.3306,0.3205,0.3205,0.3205,0.3205,0.318,0.318,0.3155,0.3155,0.3156,0.3197,0.3181,0.3205,0.319,0.2998,0.2801,0.2668,0.2467,0.2144,0.1947,0.1774,0.1707,0.1684,0.1628,0.1619,0.1589,0.1588,0.1593,0.16,0.162,0.1664,0.1672,0.1684,0.1705,0.1592,0.1592,0.1592,0.1592,0.1592,0.1592,0.1592,0.1592,0.1592,0.1592,0.1592,0.1592,0.1592,0.1592,0.1592,0.1592,0.1592,0.1592,0.1592,0.1592,0.1592,0.1592,0.1592,0.1592,0.1592,0.1592,0.1592,0.1592,0.1592,0.1592,0.1592,0.1592,0.1592,0.1592,0.1592,0.1592,0.1592,0.1592,0.1592,0.1592,0.1592,0.1592,0.1592,0.1592,0.1592,0.1592,0.1592,0.1592,0.1592,0.1667,0.1818,0.1969,0.2095,0.2922,0.3098,0.2573,0.3098,0.3423,0.3773,0.4501,0.5104,0.5129,0.5352,0.5477,0.555,0.5802,0.5627,0.5425,0.5525,0.5652,0.5904,0.5757,0.5904,0.5979,0.5982,0.5659,0.5309,0.5035,0.4734,0.4209,0.3732,0.3457,0.3432,0.3054,0.3029,0.2978,0.2953,0.2978,0.2978,0.3054,0.306,0.3137,0.3167,0.3144,0.3076,0.2864,0.2668,0.2475,0.2263,0.1963,0.1842,0.1748,0.171,0.1699,0.167,0.164,0.1637,0.1641,0.1682,0.1695,0.1704,0.1718,0.1736,0.1717,0.1729,0.1592,0.1592,0.1592,0.1592,0.1592,0.1592,0.1592,0.1592,0.1592,0.1592,0.1592,0.1592,0.1592,0.1592,0.1592,0.1592,0.1592,0.1592,0.1592,0.1592,0.1592,0.1592,0.1592,0.1592,0.1592,0.1592,0.1592,0.1592,0.1592,0.1592,0.1592,0.1592,0.1592,0.1592,0.1592,0.1592,0.1592,0.1592,0.1592,0.1592,0.1592,0.1592,0.1592,0.1592,0.1592,0.1592,0.1641,0.1692,0.1768,0.1818,0.2572,0.2973,0.3173,0.4049,0.4474,0.4474,0.4551,0.4624,0.4801,0.5604,0.6209,0.6359,0.6861,0.7462,0.7285,0.7257,0.726,0.764,0.7487,0.731,0.7207,0.7484,0.7711,0.7434,0.7008,0.6786,0.6487,0.6034,0.5684,0.5208,0.4757,0.4108,0.3758,0.3254,0.2851,0.2775,0.2725,0.2801,0.2876,0.3027,0.2922,0.2975,0.3271,0.3301,0.2903,0.2686,0.2569,0.2347,0.21,0.1852,0.1816,0.1778,0.1774,0.1759,0.1732,0.1695,0.1695,0.1705,0.1751,0.1759,0.176,0.1781,0.178,0.1782,0.1772,0.1592,0.1592,0.1592,0.1592,0.1592,0.1592,0.1592,0.1592,0.1592,0.1592,0.1592,0.1592,0.1592,0.1592,0.1592,0.1592,0.1592,0.1592,0.1592,0.1592,0.1592,0.1592,0.1592,0.1592,0.1592,0.1592,0.1592,0.1592,0.1592,0.1592,0.1592,0.1592,0.1592,0.1592,0.1592,0.1592,0.1592,0.1592,0.1592,0.1592,0.1592,0.1592,0.1592,0.1592,0.1592,0.1642,0.1768,0.227,0.2471,0.2698,0.3524,0.4073,0.435,0.5054,0.5707,0.5754,0.6329,0.6329,0.5954,0.6761,0.7089,0.7313,0.7715,0.7864,0.7988,0.7988,0.7988,0.7963,0.7988,0.7988,0.7988,0.7988,0.8063,0.7935,0.7683,0.726,0.7061,0.7213,0.6836,0.6309,0.5807,0.5284,0.4834,0.4634,0.4106,0.353,0.3377,0.3251,0.3278,0.3305,0.3084,0.2764,0.3142,0.3482,0.2926,0.2502,0.2456,0.2279,0.2031,0.1838,0.1814,0.181,0.1801,0.18,0.176,0.1754,0.1753,0.1748,0.1774,0.1792,0.1813,0.1791,0.1795,0.1793,0.1785,0.1592,0.1592,0.1592,0.1592,0.1592,0.1592,0.1592,0.1592,0.1592,0.1592,0.1592,0.1592,0.1592,0.1592,0.1592,0.1592,0.1592,0.1592,0.1592,0.1592,0.1592,0.1592,0.1592,0.1592,0.1592,0.1592,0.1592,0.1592,0.1592,0.1592,0.1592,0.1592,0.1592,0.1592,0.1592,0.1592,0.1592,0.1592,0.1592,0.1592,0.1592,0.1592,0.1592,0.1667,0.1818,0.1995,0.217,0.3022,0.3574,0.3775,0.4626,0.5177,0.5352,0.6157,0.6736,0.6911,0.7388,0.7434,0.716,0.7462,0.7914,0.7988,0.7988,0.7988,0.7988,0.7988,0.7988,0.7988,0.7988,0.7988,0.7988,0.7988,0.8013,0.8013,0.7939,0.7437,0.7086,0.7363,0.7512,0.7185,0.6833,0.6758,0.6409,0.6287,0.5636,0.4583,0.4106,0.3803,0.3803,0.3855,0.3869,0.3662,0.3748,0.412,0.3764,0.3175,0.2846,0.2418,0.217,0.1893,0.1887,0.1842,0.1788,0.1791,0.1791,0.1789,0.1774,0.1796,0.1794,0.1808,0.1791,0.1793,0.1795,0.1795,0.1793,0.1592,0.1592,0.1592,0.1592,0.1592,0.1592,0.1592,0.1592,0.1592,0.1592,0.1592,0.1592,0.1592,0.1592,0.1592,0.1592,0.1592,0.1592,0.1592,0.1592,0.1592,0.1592,0.1592,0.1592,0.1592,0.1592,0.1592,0.1592,0.1592,0.1592,0.1592,0.1592,0.1592,0.1592,0.1592,0.1592,0.1592,0.1592,0.1592,0.1592,0.1592,0.1592,0.1642,0.1918,0.2521,0.3099,0.3148,0.4126,0.4701,0.4751,0.5704,0.6259,0.6484,0.7135,0.759,0.7715,0.7789,0.7849,0.7844,0.7802,0.7942,0.7992,0.803,0.8047,0.8057,0.803,0.802,0.8002,0.804,0.8005,0.7998,0.7988,0.7988,0.7988,0.7988,0.7864,0.7612,0.7686,0.7839,0.7839,0.769,0.7462,0.7434,0.7163,0.6462,0.5384,0.4605,0.4302,0.463,0.4761,0.5002,0.4973,0.4824,0.4934,0.4976,0.445,0.3654,0.3237,0.2998,0.2458,0.2024,0.1958,0.2161,0.178,0.1774,0.1785,0.1794,0.1812,0.1808,0.1789,0.1795,0.1795,0.1795,0.1795,0.1792,0.1592,0.1592,0.1592,0.1592,0.1592,0.1592,0.1592,0.1592,0.1592,0.1592,0.1592,0.1592,0.1592,0.1592,0.1592,0.1592,0.1592,0.1592,0.1592,0.1592,0.1592,0.1592,0.1592,0.1592,0.1592,0.1592,0.1592,0.1592,0.1592,0.1592,0.1592,0.1592,0.1592,0.1592,0.1592,0.1592,0.1592,0.1592,0.1592,0.1592,0.1592,0.1642,0.1894,0.2646,0.2822,0.3599,0.42,0.5229,0.5629,0.6034,0.6842,0.7156,0.7316,0.7816,0.7994,0.8015,0.8019,0.8081,0.8121,0.8091,0.8054,0.817,0.8184,0.818,0.8155,0.818,0.8091,0.8081,0.8094,0.8091,0.7995,0.7988,0.7988,0.7988,0.7988,0.7988,0.7988,0.7988,0.7988,0.7914,0.7939,0.7864,0.7889,0.7889,0.7061,0.6159,0.5429,0.4949,0.5354,0.5632,0.5871,0.5982,0.5838,0.5555,0.5553,0.497,0.4295,0.4068,0.384,0.3321,0.282,0.2744,0.2787,0.2287,0.1838,0.1871,0.1882,0.1813,0.1791,0.1793,0.1795,0.1795,0.1795,0.1792,0.1782,0.1592,0.1592,0.1592,0.1592,0.1592,0.1592,0.1592,0.1592,0.1592,0.1592,0.1592,0.1592,0.1592,0.1592,0.1592,0.1592,0.1592,0.1592,0.1592,0.1592,0.1592,0.1592,0.1592,0.1592,0.1592,0.1592,0.1592,0.1592,0.1592,0.1592,0.1592,0.1592,0.1592,0.1592,0.1592,0.1592,0.1592,0.1592,0.1592,0.1869,0.1969,0.2145,0.2647,0.3599,0.4103,0.4603,0.5443,0.6319,0.6908,0.7201,0.7623,0.8051,0.8126,0.8148,0.8145,0.8145,0.8155,0.8225,0.8265,0.8262,0.8221,0.8342,0.8333,0.8359,0.8355,0.8328,0.8201,0.8121,0.8177,0.816,0.8002,0.7988,0.7988,0.7988,0.7988,0.7988,0.7988,0.7988,0.7988,0.7988,0.7988,0.7988,0.7988,0.7988,0.7686,0.7061,0.6808,0.6379,0.6456,0.6656,0.6689,0.6748,0.6679,0.6374,0.6047,0.567,0.5309,0.5113,0.482,0.4336,0.3954,0.3855,0.3399,0.2818,0.2404,0.2141,0.1963,0.184,0.1803,0.1793,0.1793,0.1791,0.1803,0.1798,0.1785,0.1592,0.1592,0.1592,0.1592,0.1592,0.1592,0.1592,0.1592,0.1592,0.1592,0.1592,0.1592,0.1592,0.1592,0.1592,0.1592,0.1592,0.1592,0.1592,0.1592,0.1592,0.1592,0.1592,0.1592,0.1592,0.1592,0.1592,0.1592,0.1592,0.1592,0.1592,0.1592,0.1592,0.1592,0.1592,0.1592,0.1592,0.1592,0.1592,0.212,0.2772,0.2948,0.3524,0.4678,0.5452,0.5939,0.6586,0.7337,0.7843,0.8013,0.8169,0.8387,0.8423,0.843,0.8437,0.8444,0.8454,0.8478,0.8498,0.8495,0.8512,0.8505,0.8482,0.8482,0.8478,0.841,0.8332,0.8275,0.8228,0.8115,0.8022,0.8015,0.8064,0.8081,0.8094,0.8074,0.8084,0.8067,0.8077,0.8027,0.7988,0.7988,0.7988,0.7988,0.7988,0.7864,0.7939,0.7811,0.7509,0.7434,0.736,0.7347,0.73,0.7231,0.6919,0.6642,0.6346,0.6133,0.5888,0.5509,0.5109,0.4868,0.4301,0.3468,0.3214,0.3164,0.2492,0.1864,0.1911,0.1958,0.1839,0.181,0.1792,0.1802,0.176,0.1592,0.1592,0.1592,0.1592,0.1592,0.1592,0.1592,0.1592,0.1592,0.1592,0.1592,0.1592,0.1592,0.1592,0.1592,0.1592,0.1592,0.1592,0.1592,0.1592,0.1592,0.1592,0.1592,0.1592,0.1592,0.1592,0.1592,0.1592,0.1592,0.1592,0.1592,0.1592,0.1594,0.1592,0.1592,0.1592,0.1592,0.1592,0.1667,0.207,0.3074,0.3374,0.4103,0.5764,0.6432,0.6926,0.748,0.8204,0.8378,0.844,0.8499,0.8539,0.8539,0.8539,0.8532,0.8522,0.8519,0.8563,0.8628,0.8696,0.873,0.8679,0.8635,0.8635,0.8618,0.8598,0.852,0.8478,0.8418,0.8338,0.8367,0.8343,0.835,0.8357,0.8347,0.8286,0.8284,0.8247,0.8216,0.8064,0.7988,0.7992,0.7995,0.7988,0.7988,0.7988,0.7988,0.7988,0.7786,0.7786,0.7786,0.7786,0.7799,0.7895,0.7789,0.7338,0.7188,0.7087,0.6993,0.6857,0.647,0.5981,0.5286,0.4534,0.4383,0.4203,0.3528,0.2895,0.2304,0.2111,0.1965,0.1804,0.1758,0.1742,0.1733,0.1592,0.1592,0.1592,0.1592,0.1592,0.1592,0.1592,0.1592,0.1592,0.1592,0.1592,0.1592,0.1592,0.1592,0.1592,0.1592,0.1592,0.1592,0.1592,0.1592,0.1592,0.1592,0.1592,0.1592,0.1592,0.1592,0.1592,0.1592,0.1592,0.1592,0.1592,0.1594,0.1626,0.1601,0.1698,0.1869,0.2245,0.2395,0.2671,0.3475,0.4176,0.4682,0.5276,0.6583,0.7312,0.7609,0.8179,0.8485,0.856,0.8567,0.8598,0.8628,0.8635,0.8638,0.8638,0.8642,0.8652,0.8703,0.877,0.8821,0.8821,0.8801,0.8791,0.876,0.874,0.8716,0.8652,0.8611,0.8638,0.8577,0.8513,0.8526,0.8532,0.8506,0.8482,0.8444,0.8413,0.8376,0.8318,0.8155,0.8081,0.8071,0.7998,0.7992,0.7988,0.7988,0.7988,0.7988,0.7988,0.7988,0.7988,0.7988,0.7988,0.7988,0.7988,0.7864,0.7814,0.7963,0.7814,0.7615,0.75,0.6947,0.6253,0.5654,0.5491,0.5214,0.4662,0.4023,0.3212,0.2515,0.2048,0.1887,0.1744,0.1711,0.1705,0.1592,0.1592,0.1592,0.1592,0.1592,0.1592,0.1592,0.1592,0.1592,0.1592,0.1592,0.1592,0.1592,0.1592,0.1592,0.1592,0.1592,0.1592,0.1592,0.1592,0.1592,0.1592,0.1592,0.1592,0.1592,0.1592,0.1592,0.1592,0.1592,0.1626,0.16,0.1606,0.1654,0.1804,0.2099,0.2743,0.3088,0.3179,0.3819,0.4706,0.5519,0.606,0.6701,0.7613,0.8123,0.8222,0.8503,0.8625,0.8696,0.8727,0.8801,0.8858,0.8896,0.8906,0.8906,0.8868,0.8879,0.8875,0.8879,0.8875,0.8902,0.8869,0.8882,0.8902,0.8869,0.8787,0.8733,0.8679,0.8666,0.8608,0.854,0.855,0.8564,0.856,0.856,0.8526,0.8532,0.8488,0.8434,0.833,0.8258,0.8197,0.8047,0.7988,0.7988,0.7988,0.7988,0.7988,0.7988,0.7988,0.7988,0.7988,0.7988,0.7988,0.7988,0.7988,0.7988,0.7988,0.7988,0.7864,0.7839,0.7761,0.7185,0.6684,0.6534,0.6148,0.5468,0.4678,0.3822,0.3191,0.2705,0.1976,0.184,0.1685,0.1653,0.1592,0.1592,0.1592,0.1592,0.1592,0.1592,0.1592,0.1592,0.1592,0.1592,0.1592,0.1592,0.1592,0.1592,0.1592,0.1592,0.1592,0.1592,0.1592,0.1592,0.1592,0.1592,0.1592,0.1592,0.1592,0.1592,0.1592,0.1596,0.1599,0.1635,0.1662,0.1681,0.1869,0.2207,0.3025,0.3929,0.3783,0.3933,0.4743,0.5727,0.6479,0.6804,0.7542,0.8154,0.8506,0.8577,0.8662,0.8754,0.8818,0.8855,0.8882,0.8909,0.8909,0.8909,0.8909,0.8909,0.8906,0.8906,0.8909,0.8909,0.8909,0.8909,0.8909,0.8909,0.8892,0.8869,0.8828,0.8784,0.8764,0.8713,0.8723,0.8726,0.8726,0.8726,0.872,0.8699,0.8676,0.8628,0.8567,0.8452,0.8406,0.8228,0.8077,0.7988,0.7988,0.7988,0.7988,0.7988,0.7988,0.7988,0.7988,0.7988,0.7988,0.7988,0.7988,0.7988,0.7988,0.7988,0.7988,0.7988,0.7939,0.7864,0.7789,0.7587,0.7288,0.6795,0.6188,0.5434,0.4745,0.4165,0.361,0.2671,0.1934,0.1787,0.1661,0.1592,0.1592,0.1592,0.1592,0.1592,0.1592,0.1592,0.1592,0.1592,0.1592,0.1592,0.1592,0.1592,0.1592,0.1592,0.1592,0.1592,0.1592,0.1592,0.1592,0.1593,0.1592,0.1592,0.1592,0.1592,0.162,0.1629,0.1639,0.1643,0.174,0.1795,0.2469,0.2405,0.3153,0.4145,0.5098,0.5315,0.5393,0.5835,0.6638,0.7113,0.7445,0.799,0.8398,0.8659,0.8699,0.877,0.8882,0.8902,0.8909,0.8909,0.8909,0.8909,0.8909,0.8909,0.8909,0.8909,0.8909,0.8909,0.8909,0.8909,0.8909,0.8909,0.8909,0.8909,0.8896,0.8889,0.8879,0.8892,0.8896,0.8902,0.8906,0.8902,0.8899,0.8879,0.8831,0.8821,0.8781,0.8699,0.8574,0.8431,0.8269,0.8157,0.8064,0.7988,0.7988,0.7988,0.7988,0.7988,0.7988,0.7988,0.7988,0.7988,0.7988,0.7988,0.7988,0.7988,0.7988,0.7988,0.7988,0.7988,0.7963,0.7889,0.7914,0.7914,0.7434,0.6961,0.645,0.5851,0.5284,0.4609,0.366,0.2684,0.1901,0.1774,0.1592,0.1592,0.1592,0.1592,0.1592,0.1592,0.1592,0.1592,0.1592,0.1592,0.1592,0.1592,0.1592,0.1592,0.1592,0.1592,0.1592,0.1592,0.1592,0.1593,0.1626,0.1625,0.1594,0.162,0.1628,0.1633,0.167,0.1687,0.1755,0.2013,0.2645,0.3474,0.3632,0.4268,0.5419,0.6146,0.6517,0.6969,0.736,0.8021,0.8223,0.8454,0.8577,0.8676,0.873,0.876,0.8862,0.8909,0.8909,0.8909,0.8909,0.8909,0.8909,0.8909,0.8909,0.8909,0.8909,0.8909,0.8909,0.8909,0.8909,0.8909,0.8909,0.8909,0.8909,0.8909,0.8909,0.8909,0.8909,0.8909,0.8909,0.8909,0.8909,0.8909,0.8899,0.8889,0.8872,0.8831,0.8767,0.8645,0.8543,0.8387,0.8282,0.8218,0.8133,0.8064,0.7988,0.7988,0.8064,0.8064,0.8044,0.8015,0.7995,0.7995,0.7988,0.7988,0.7988,0.7988,0.8002,0.7988,0.7988,0.7992,0.7995,0.8057,0.8098,0.8094,0.7749,0.7308,0.6931,0.6536,0.5773,0.4715,0.3707,0.2859,0.1983,0.1592,0.1592,0.1592,0.1592,0.1592,0.1592,0.1592,0.1592,0.1592,0.1592,0.1592,0.1592,0.1592,0.1592,0.1592,0.1592,0.1592,0.1592,0.1592,0.1625,0.1634,0.1632,0.1627,0.1664,0.1647,0.1679,0.1691,0.1795,0.2067,0.2601,0.3193,0.375,0.4382,0.5513,0.659,0.7141,0.7422,0.8097,0.837,0.8598,0.8618,0.874,0.8835,0.8852,0.8858,0.8852,0.8909,0.8909,0.8909,0.8909,0.8909,0.8909,0.8909,0.8909,0.8909,0.8909,0.8909,0.8909,0.8909,0.8909,0.8909,0.8909,0.8909,0.8909,0.8909,0.8909,0.8909,0.8909,0.8909,0.8909,0.8909,0.8909,0.8909,0.8909,0.8909,0.8909,0.8909,0.8875,0.8838,0.874,0.8648,0.854,0.8454,0.8359,0.8274,0.8163,0.805,0.8022,0.8187,0.8221,0.8138,0.8115,0.8019,0.8005,0.8019,0.8077,0.8111,0.8091,0.8091,0.8064,0.8008,0.8077,0.8131,0.8194,0.8228,0.8238,0.8282,0.826,0.7904,0.7501,0.7,0.5991,0.5436,0.4677,0.3288,0.1592,0.1592,0.1592,0.1592,0.1592,0.1592,0.1592,0.1592,0.1592,0.1592,0.1592,0.1592,0.1592,0.1592,0.1592,0.1592,0.1592,0.1592,0.1592,0.1599,0.1635,0.1639,0.167,0.168,0.1695,0.1703,0.1804,0.1968,0.2528,0.3147,0.3747,0.4916,0.595,0.6672,0.7697,0.7862,0.8072,0.8813,0.8811,0.8784,0.8774,0.8858,0.8909,0.8909,0.8909,0.8909,0.8909,0.8909,0.8909,0.8909,0.8909,0.8909,0.8909,0.8909,0.8909,0.8909,0.8909,0.8909,0.8909,0.8909,0.8909,0.8909,0.8909,0.8909,0.8909,0.8909,0.8909,0.8909,0.8909,0.8909,0.8909,0.8909,0.8909,0.8909,0.8909,0.8909,0.8909,0.8896,0.8875,0.8838,0.8727,0.8652,0.8547,0.8481,0.841,0.8383,0.8252,0.8206,0.8319,0.84,0.8309,0.8253,0.8223,0.8209,0.8282,0.8292,0.8292,0.8255,0.8179,0.8245,0.8272,0.8262,0.8275,0.833,0.8396,0.841,0.8468,0.8546,0.8512,0.8118,0.7752,0.7271,0.6801,0.6241,0.5044,0.1592,0.1592,0.1592,0.1592,0.1592,0.1592,0.1592,0.1592,0.1592,0.1592,0.1592,0.1592,0.1592,0.1592,0.1592,0.1592,0.1592,0.1592,0.1592,0.1594,0.1626,0.1634,0.1648,0.1691,0.1713,0.19,0.2089,0.2692,0.3373,0.4182,0.5377,0.6844,0.746,0.7848,0.8602,0.8878,0.8909,0.8909,0.8882,0.8896,0.8906,0.8909,0.8909,0.8909,0.8909,0.8909,0.8909,0.8909,0.8909,0.8909,0.8909,0.8909,0.8909,0.8909,0.8909,0.8909,0.8909,0.8909,0.8909,0.8909,0.8909,0.8909,0.8909,0.8909,0.8909,0.8909,0.8909,0.8909,0.8909,0.8909,0.8909,0.8909,0.8909,0.8909,0.8909,0.8909,0.8909,0.8909,0.8902,0.8896,0.8821,0.875,0.8682,0.8591,0.8566,0.8543,0.8526,0.8529,0.8509,0.853,0.8513,0.8507,0.8524,0.854,0.8486,0.8452,0.8421,0.842,0.836,0.8457,0.8492,0.8427,0.8401,0.8486,0.8546,0.8566,0.86,0.8635,0.8577,0.8549,0.8295,0.7934,0.7645,0.7095,0.6597,0.1592,0.1592,0.1592,0.1592,0.1592,0.1592,0.1592,0.1592,0.1592,0.1592,0.1592,0.1592,0.1592,0.1592,0.1592,0.1592,0.1592,0.1592,0.1592,0.1593,0.1633,0.1635,0.1755,0.1927,0.1767,0.2147,0.2756,0.3396,0.439,0.5616,0.6538,0.7207,0.8266,0.8602,0.8716,0.8909,0.8909,0.8909,0.8909,0.8909,0.8909,0.8909,0.8909,0.8909,0.8909,0.8909,0.8909,0.8909,0.8909,0.8909,0.8909,0.8909,0.8909,0.8909,0.8909,0.8909,0.8909,0.8909,0.8909,0.8909,0.8909,0.8909,0.8909,0.8909,0.8909,0.8909,0.8909,0.8909,0.8909,0.8909,0.8909,0.8909,0.8909,0.8909,0.8909,0.8909,0.8909,0.8909,0.8906,0.8906,0.8882,0.8838,0.8825,0.8737,0.8682,0.8645,0.8604,0.8587,0.8659,0.8656,0.8672,0.8713,0.876,0.8665,0.8563,0.8543,0.8523,0.8532,0.8539,0.8597,0.8594,0.8515,0.8539,0.8632,0.8682,0.8683,0.8716,0.8757,0.874,0.8696,0.8676,0.8485,0.8239,0.797,0.7492]},{"header":{"parameterUnit":"m.s-1","parameterCategory":1,"la1":31.0,"la2":29.5877,"lo1":-88.7671,"lo2":-86.6584,"dy":0.0162,"dx":0.0185,"nx":115,"ny":88,"refTime":"2024-09-19T06:00:00:Z","depth":0,"parameterNumber":3,"parameterNumberName":"V-component_of_WINDS"},"data":[0.0,0.0,0.0,0.0,0.0,0.0,0.0,0.0,0.0,0.0,0.0,0.0,0.0,0.0,0.0,0.0,0.0,0.0,0.0,0.0,0.0,0.0,0.0,0.0,0.0,0.0,0.0,0.0,0.0,0.0,0.0,0.0,0.0,0.0,0.0,0.0,0.0,0.0,0.0,0.0,0.0,0.0,0.0,0.0,0.0,0.0,0.0,0.0,0.0,0.0,0.0,0.0,0.0,0.0,0.0,0.0,0.0,0.0,0.0,0.0,0.0,0.0,0.0,0.0,0.0,0.0,0.0,0.0,0.0,0.0,0.0,0.0,0.0,0.0,0.0,0.0,0.0,0.0,0.0,0.0,0.0,0.0,0.0,0.0,0.0,0.0,0.0,0.0,0.0,0.0,0.0,0.0,0.0,0.0,0.0,0.0,0.0,0.0,0.0,0.0,0.0,0.0,0.0,0.0,0.0,0.0,0.0,0.0,0.0,0.0,0.0,0.0,0.0,0.0,0.0,0.0,0.0,0.0,0.0,0.0,0.0,0.0,0.0,0.0,0.0,0.0,0.0,0.0,0.0,0.0,0.0,0.0,0.0,0.0,0.0,0.0,0.0,0.0,0.0,0.0,0.0,0.0,0.0,0.0,0.0,0.0,0.0,0.0,0.0,0.0,0.0,0.0,0.0,0.0,0.0,0.0,0.0,0.0,0.0,0.0,0.0,0.0,0.0,0.0,0.0,0.0,0.0,0.0,0.0,0.0,0.0,0.0,0.0,0.0,0.0,0.0,0.0,0.0,0.0,0.0,0.0,0.0,0.0,0.0,0.0,0.0,0.0,0.0,0.0,0.0,0.0,0.0,0.0,0.0,0.0,0.0,0.0,0.0,0.0,0.0,0.0,0.0,0.0,0.0,0.0,0.0,0.0,0.0,0.0,0.0,0.0,0.0,0.0,0.0,0.0,0.0,0.0,0.0,0.0,0.0,0.0,0.0,0.0,0.0,0.0,0.0,0.0,0.0,0.0,0.0,0.0,0.0,0.0,0.0,0.0,0.0,0.0,0.0,0.0,0.0,0.0,0.0,0.0,0.0,0.0,0.0,0.0,0.0,0.0,0.0,0.0,0.0,0.0,0.0,0.0,0.0,0.0,0.0,0.0,0.0,0.0,0.0,0.0,0.0,0.0,0.0,0.0,0.0,0.0,0.0,0.0,0.0,0.0,0.0,0.0,0.0,0.0,0.0,0.0,0.0,0.0,0.0,0.0,0.0,0.0,0.0,0.0,0.0,0.0,0.0,0.0,0.0,0.0,0.0,0.0,0.0,0.0,0.0,0.0,0.0,0.0,0.0,0.0,0.0,0.0,0.0,0.0,0.0,0.0,0.0,0.0,0.0,0.0,0.0,0.0,0.0,0.0,0.0,0.0,0.0,0.0,0.0,0.0,0.0,0.0,0.0,0.0,0.0,0.0,0.0,0.0,0.0,0.0,0.0,0.0,0.0,0.0,0.0,0.0,0.0,0.0,0.0,0.0,0.0,0.0,0.0,0.0,0.0,0.0,0.0,0.0,0.0,0.0,0.0,0.0,0.0,0.0,0.0,0.0,0.0,0.0,0.0,0.0,0.0,0.0,0.0,0.0,0.0,0.0,0.0,0.0,0.0,0.0,0.0,0.0,0.0,0.0,0.0,0.0,0.0,0.0,0.0,0.0,0.0,0.0,0.0,0.0,0.0,0.0,0.0,0.0,0.0,0.0,0.0,0.0,0.0,0.0,0.0,0.0,0.0,0.0,0.0,0.0,0.0,0.0,0.0,0.0,0.0,0.0,0.0,0.0,0.0,0.0,0.0,0.0,0.0,0.0,0.0,0.0,0.0,0.0,0.0,0.0,0.0,0.0,0.0,0.0,0.0,0.0,0.0,0.0,0.0,0.0,0.0,0.0,0.0,0.0,0.0,0.0,0.0,0.0,0.0,0.0,0.0,0.0,0.0,0.0,0.0,0.0,0.0,0.0,0.0,0.0,0.0,0.0,0.0,0.0,0.0,0.0,0.0,0.0,0.0,0.0,0.0,0.0,0.0,0.0,0.0,0.0,0.0,0.0,0.0,0.0,0.0,0.0,0.0,0.0,0.0,0.0,0.0,0.0,0.0,0.0,0.0,0.0,0.0,0.0,0.0,0.0,0.0,0.0,0.0,0.0,0.0,0.0,0.0,0.0,0.0,0.0,0.0,0.0,0.0,0.0,0.0,0.0,0.0,0.0,0.0,0.0,0.0,0.0,0.0,0.0,0.0,0.0,0.0,0.0,0.0,0.0,0.0,0.0,0.0,0.0,0.0,0.0,0.0,0.0,0.0,0.0,0.0,0.0,0.0,0.0,0.0,0.0,0.0,0.0,0.0,0.0,0.0,0.0,0.0,0.0,0.0,0.0,0.0,0.0,0.0,0.0,0.0,0.0,0.0,0.0,0.0,0.0,0.0,0.0,0.0,0.0,0.0,0.0,0.0,0.0,0.0,0.0,0.0,0.0,0.0,0.0,0.0,0.0,0.0,0.0,0.0,0.0,0.0,0.0,0.0,0.0,0.0,0.0,0.0,0.0,0.0,0.0,0.0,0.0,0.0,0.0,0.0,0.0,0.0,0.0,0.0,0.0,0.0,0.0,0.0,0.0,0.0,0.0,0.0,0.0,0.0,0.0,0.0,0.0,0.0,0.0,0.0,0.0,0.0,0.0,0.0,0.0,0.0,0.0,0.0,0.0,0.0,0.0,0.0,0.0,0.0,0.0,0.0,0.0,0.0,0.0,0.0,0.0,0.0,0.0,0.0,0.0,0.0,0.0,0.0,0.0,0.0,0.0,0.0,0.0,0.0,0.0,0.0,0.0,0.0,0.0,0.0,0.0,0.0,0.0,0.0,0.0,0.0,0.0,0.0,0.0,0.0,0.0,0.0,0.0,0.0,0.0,0.0,0.0,0.0,0.0,0.0,0.0,0.0,0.0,0.0,0.0,0.0,0.0,0.0,0.0,0.0,0.0,0.0,0.0,0.0,0.0,0.0,0.0,0.0,0.0,0.0,0.0,0.0,0.0,0.0,0.0,0.0,0.0,0.0,0.0,0.0,0.0,0.0,0.0,0.0,0.0,0.0,0.0,0.0,0.0,0.0,0.0,0.0,0.0,0.0,0.0,0.0,0.0,0.0,0.0,0.0,0.0,0.0,0.0,0.0,0.0,0.0,0.0,0.0,0.0,0.0,0.0,0.0,0.0,0.0,0.0,0.0,0.0,0.0,0.0,0.0,0.0,0.0,0.0,0.0,0.0,0.0,0.0,0.0,0.0,0.0,0.0,0.0,0.0,0.0,0.0,0.0,0.0,0.0,0.0,0.0,0.0,0.0,0.0,0.0,0.0,0.0,0.0,0.0,0.0,0.0,0.0,0.0,0.0,0.0,0.0,0.0,0.0,0.0,0.0,0.0,0.0,0.0,0.0,0.0,0.0,0.0,0.0,0.0,0.0,0.0,0.0,0.0,0.0,0.0,0.0,0.0,0.0,0.0,0.0,0.0,0.0,0.0,0.0,0.0,0.0,0.0,0.0,0.0,0.0,0.0,0.0,0.0,0.0,0.0,0.0,0.0,0.0,0.0,0.0,0.0,0.0,0.0,0.0,0.0,0.0,0.0,0.0,0.0,0.0,0.0,0.0,0.0,0.0,0.0,0.0,0.0,0.0,0.0,0.0,0.0,0.0,0.0,0.0,0.0,0.0,0.0,0.0,0.0,0.0,0.0,0.0,0.0,0.0,0.0,0.0,0.0,0.0,0.0,0.0,0.0,0.0,0.0,0.0,0.0,0.0,0.0,0.0,0.0,0.0,0.0,0.0,0.0,0.0,0.0,0.0,0.0,0.0,0.0,0.0,0.0,0.0,0.0,0.0,0.0,0.0,0.0,0.0,0.0,0.0,0.0,0.0,0.0,0.0,0.0,0.0,0.0,0.0,0.0,0.0,0.0,0.0,0.0,0.0,0.0,0.0,0.0,0.0,0.0,0.0,0.0,0.0,0.0,0.0,0.0,0.0,0.0,0.0,0.0,0.0,0.0,0.0,0.0,0.0,0.0,0.0,0.0,0.0,0.0,0.0,0.0,0.0,0.0,0.0,0.0,0.0,0.0,0.0,0.0,0.0,0.0,0.0,0.0,0.0,0.0,0.0,0.0,0.0,0.0,0.0,0.0,0.0,0.0,0.0,0.0,0.0,0.0,0.0,0.0,0.0,0.0,0.0,0.0,0.0,0.0,0.0,0.0,2.424,0.0,0.0,0.0,0.0,0.0,0.0,0.0,0.0,0.0,0.0,0.0,0.0,0.0,0.0,0.0,0.0,0.0,0.0,0.0,0.0,0.0,0.0,0.0,0.0,0.0,0.0,0.0,0.0,0.0,0.0,0.0,0.0,0.0,0.0,0.0,0.0,0.0,0.0,0.0,0.0,0.0,0.0,0.0,0.0,0.0,0.0,0.0,0.0,0.0,0.0,0.0,0.0,0.0,0.0,0.0,0.0,0.0,0.0,0.0,0.0,0.0,0.0,0.0,0.0,0.0,0.0,0.0,0.0,0.0,0.0,0.0,0.0,0.0,0.0,0.0,0.0,0.0,0.0,0.0,0.0,0.0,0.0,0.0,0.0,0.0,0.0,0.0,0.0,0.0,0.0,0.0,0.0,0.0,0.0,0.0,0.0,0.0,0.0,0.0,0.0,0.0,0.0,0.0,0.0,0.0,0.0,0.0,0.0,0.0,0.0,2.5181,2.5243,2.5255,2.4927,2.413,0.0,0.0,0.0,0.0,0.0,0.0,0.0,0.0,0.0,0.0,0.0,0.0,0.0,0.0,0.0,0.0,0.0,0.0,0.0,0.0,0.0,0.0,0.0,0.0,0.0,0.0,0.0,0.0,0.0,0.0,0.0,0.0,0.0,0.0,0.0,0.0,0.0,0.0,0.0,0.0,0.0,0.0,0.0,0.0,0.0,0.0,0.0,0.0,0.0,0.0,0.0,0.0,0.0,0.0,0.0,0.0,0.0,0.0,0.0,0.0,0.0,0.0,0.0,0.0,0.0,0.0,0.0,0.0,0.0,0.0,0.0,0.0,0.0,0.0,0.0,0.0,0.0,0.0,0.0,0.0,0.0,0.0,0.0,0.0,0.0,0.0,0.0,0.0,0.0,0.0,0.0,0.0,0.0,0.0,0.0,0.0,0.0,0.0,0.0,0.0,0.0,0.0,0.0,0.0,0.0,0.0,0.0,0.0,0.0,0.0,0.0,0.0,2.5171,2.4747,2.3773,0.0,0.0,0.0,0.0,0.0,0.0,0.0,0.0,0.0,0.0,0.0,0.0,0.0,0.0,0.0,0.0,0.0,0.0,0.0,0.0,0.0,0.0,0.0,0.0,0.0,0.0,0.0,0.0,0.0,0.0,0.0,0.0,0.0,0.0,0.0,0.0,0.0,0.0,0.0,0.0,0.0,0.0,0.0,0.0,0.0,0.0,0.0,0.0,0.0,0.0,0.0,0.0,0.0,0.0,0.0,0.0,0.0,0.0,0.0,0.0,0.0,0.0,0.0,0.0,0.0,0.0,0.0,0.0,0.0,0.0,0.0,0.0,0.0,0.0,0.0,0.0,0.0,0.0,0.0,0.0,0.0,0.0,0.0,0.0,0.0,0.0,0.0,0.0,0.0,0.0,0.0,0.0,0.0,0.0,0.0,0.0,0.0,0.0,0.0,0.0,0.0,0.0,0.0,0.0,0.0,0.0,0.0,0.0,0.0,0.0,2.4951,2.5184,2.5193,0.0,2.3086,0.0,0.0,0.0,0.0,0.0,0.0,0.0,0.0,0.0,0.0,0.0,0.0,0.0,0.0,0.0,0.0,0.0,0.0,0.0,0.0,0.0,0.0,0.0,0.0,0.0,0.0,0.0,0.0,0.0,0.0,0.0,0.0,0.0,0.0,0.0,0.0,0.0,0.0,0.0,0.0,0.0,0.0,0.0,0.0,0.0,0.0,0.0,0.0,0.0,0.0,0.0,0.0,0.0,0.0,0.0,0.0,0.0,0.0,0.0,0.0,0.0,0.0,0.0,0.0,0.0,0.0,0.0,0.0,0.0,0.0,0.0,0.0,0.0,0.0,0.0,0.0,0.0,0.0,0.0,0.0,0.0,0.0,0.0,0.0,0.0,0.0,0.0,0.0,0.0,0.0,0.0,0.0,0.0,0.0,0.0,0.0,0.0,0.0,0.0,0.0,0.0,0.0,0.0,0.0,0.0,0.0,0.0,0.0,0.0,0.0,2.4805,2.49,2.4031,2.3023,0.0,0.0,0.0,0.0,0.0,0.0,0.0,0.0,0.0,0.0,0.0,0.0,0.0,0.0,0.0,0.0,0.0,0.0,0.0,0.0,0.0,0.0,0.0,0.0,0.0,0.0,0.0,0.0,0.0,0.0,0.0,0.0,0.0,0.0,0.0,0.0,0.0,0.0,0.0,0.0,0.0,0.0,0.0,0.0,0.0,0.0,0.0,0.0,0.0,0.0,0.0,0.0,0.0,0.0,0.0,0.0,0.0,0.0,0.0,0.0,0.0,0.0,0.0,0.0,0.0,0.0,0.0,0.0,0.0,0.0,0.0,0.0,0.0,0.0,0.0,0.0,0.0,0.0,0.0,0.0,0.0,0.0,0.0,0.0,0.0,0.0,0.0,0.0,0.0,0.0,0.0,0.0,0.0,0.0,0.0,0.0,0.0,0.0,0.0,0.0,0.0,0.0,0.0,0.0,0.0,0.0,0.0,0.0,0.0,0.0,2.4681,0.0,2.4362,2.3529,2.2372,2.0909,0.0,0.0,0.0,0.0,0.0,0.0,0.0,0.0,0.0,0.0,0.0,0.0,0.0,0.0,0.0,0.0,0.0,0.0,0.0,0.0,0.0,0.0,0.0,0.0,0.0,0.0,0.0,0.0,0.0,0.0,0.0,0.0,0.0,0.0,0.0,0.0,0.0,0.0,0.0,0.0,0.0,0.0,0.0,0.0,0.0,0.0,0.0,0.0,0.0,0.0,0.0,0.0,0.0,0.0,0.0,0.0,0.0,0.0,0.0,0.0,0.0,0.0,0.0,0.0,0.0,0.0,0.0,0.0,0.0,0.0,0.0,0.0,0.0,0.0,0.0,0.0,0.0,0.0,0.0,0.0,0.0,0.0,0.0,0.0,0.0,0.0,0.0,0.0,0.0,0.0,0.0,0.0,0.0,0.0,0.0,0.0,0.0,0.0,0.0,0.0,0.0,0.0,0.0,0.0,0.0,0.0,0.0,0.0,0.0,2.4681,2.4366,2.3741,2.4314,2.3224,0.0,0.0,0.0,0.0,0.0,0.0,0.0,0.0,0.0,0.0,0.0,0.0,0.0,0.0,0.0,0.0,0.0,0.0,0.0,0.0,0.0,0.0,0.0,0.0,0.0,0.0,0.0,0.0,0.0,0.0,0.0,0.0,0.0,0.0,0.0,0.0,0.0,0.0,0.0,0.0,0.0,0.0,0.0,0.0,0.0,0.0,0.0,0.0,0.0,0.0,0.0,0.0,0.0,0.0,0.0,0.0,0.0,0.0,0.0,0.0,0.0,0.0,0.0,0.0,0.0,0.0,0.0,0.0,0.0,0.0,0.0,0.0,0.0,0.0,0.0,0.0,0.0,0.0,0.0,0.0,0.0,0.0,0.0,0.0,0.0,0.0,0.0,0.0,0.0,0.0,0.0,0.0,0.0,0.0,0.0,0.0,0.0,0.0,0.0,0.0,0.0,0.0,0.0,0.0,0.0,0.0,0.0,0.0,0.0,2.4681,2.4681,2.4584,2.4294,2.3599,2.214,0.0,0.0,0.0,0.0,0.0,0.0,0.0,0.0,0.0,0.0,0.0,0.0,0.0,0.0,0.0,0.0,0.0,0.0,0.0,0.0,0.0,0.0,0.0,0.0,0.0,0.0,0.0,0.0,0.0,0.0,0.0,0.0,0.0,0.0,0.0,0.0,0.0,0.0,0.0,0.0,0.0,0.0,0.0,0.0,0.0,0.0,0.0,0.0,0.0,0.0,0.0,0.0,0.0,0.0,0.0,0.0,0.0,0.0,0.0,0.0,0.0,0.0,0.0,0.0,0.0,0.0,0.0,0.0,0.0,0.0,0.0,0.0,0.0,0.0,0.0,0.0,0.0,0.0,0.0,0.0,0.0,0.0,0.0,0.0,0.0,0.0,0.0,0.0,0.0,0.0,0.0,0.0,0.0,0.0,0.0,0.0,0.0,0.0,0.0,0.0,0.0,0.0,0.0,0.0,0.0,0.0,0.0,0.0,0.0,2.4645,0.0,2.4394,0.0,2.3057,2.1482,0.0,0.0,0.0,0.0,0.0,0.0,0.0,0.0,0.0,0.0,0.0,0.0,0.0,0.0,0.0,0.0,0.0,0.0,0.0,0.0,0.0,0.0,0.0,0.0,0.0,0.0,0.0,0.0,0.0,0.0,0.0,0.0,0.0,0.0,0.0,0.0,0.0,0.0,0.0,0.0,0.0,0.0,0.0,0.0,0.0,0.0,0.0,0.0,0.0,0.0,0.0,0.0,0.0,0.0,0.0,0.0,0.0,0.0,0.0,0.0,0.0,0.0,0.0,0.0,0.0,0.0,0.0,0.0,0.0,0.0,0.0,0.0,0.0,0.0,0.0,0.0,0.0,0.0,0.0,0.0,0.0,0.0,0.0,0.0,0.0,0.0,0.0,0.0,0.0,0.0,0.0,0.0,0.0,0.0,0.0,0.0,0.0,0.0,0.0,0.0,0.0,0.0,0.0,0.0,0.0,0.0,0.0,0.0,2.4607,2.4474,2.4485,2.3801,2.2238,2.2875,2.1434,0.0,0.0,0.0,0.0,0.0,0.0,0.0,0.0,0.0,0.0,0.0,0.0,0.0,0.0,0.0,0.0,0.0,0.0,0.0,0.0,0.0,0.0,0.0,0.0,0.0,0.0,0.0,0.0,0.0,0.0,0.0,0.0,0.0,0.0,0.0,0.0,0.0,0.0,0.0,0.0,0.0,0.0,0.0,0.0,0.0,0.0,0.0,0.0,0.0,0.0,0.0,0.0,0.0,0.0,0.0,0.0,0.0,0.0,0.0,0.0,0.0,0.0,0.0,0.0,0.0,0.0,0.0,0.0,0.0,0.0,0.0,0.0,0.0,0.0,0.0,0.0,0.0,0.0,0.0,0.0,0.0,0.0,0.0,0.0,0.0,0.0,0.0,0.0,0.0,0.0,0.0,0.0,0.0,0.0,0.0,0.0,0.0,0.0,0.0,0.0,0.0,0.0,0.0,0.0,0.0,0.0,0.0,0.0,0.0,2.3628,2.4199,2.4236,2.3694,2.2853,2.1578,0.0,0.0,0.0,0.0,0.0,0.0,0.0,0.0,0.0,0.0,0.0,0.0,0.0,0.0,0.0,0.0,0.0,0.0,0.0,0.0,0.0,0.0,0.0,0.0,0.0,0.0,0.0,0.0,0.0,0.0,0.0,0.0,0.0,0.0,0.0,0.0,0.0,0.0,0.0,0.0,0.0,0.0,0.0,0.0,0.0,0.0,0.0,0.0,0.0,0.0,0.0,0.0,0.0,0.0,0.0,0.0,0.0,0.0,0.0,0.0,0.0,0.0,0.0,0.0,0.0,0.0,0.0,0.0,0.0,0.0,0.0,0.0,0.0,0.0,0.0,0.0,0.0,0.0,0.0,0.0,0.0,0.0,0.0,0.0,0.0,0.0,0.0,0.0,0.0,0.0,0.0,0.0,0.0,0.0,0.0,0.0,0.0,0.0,0.0,0.0,0.0,0.0,0.0,0.0,0.0,0.0,0.0,0.0,0.0,2.3184,2.3989,2.423,2.3851,2.2907,2.1766,2.0393,0.0,0.0,0.0,0.0,0.0,0.0,0.0,0.0,0.0,0.0,0.0,0.0,0.0,0.0,0.0,0.0,0.0,0.0,0.0,0.0,0.0,0.0,0.0,0.0,0.0,0.0,0.0,0.0,0.0,0.0,0.0,0.0,0.0,0.0,0.0,0.0,0.0,0.0,0.0,0.0,0.0,0.0,0.0,0.0,0.0,0.0,0.0,0.0,0.0,0.0,0.0,0.0,0.0,0.0,0.0,0.0,0.0,0.0,0.0,0.0,0.0,0.0,0.0,0.0,0.0,0.0,0.0,0.0,0.0,0.0,0.0,0.0,0.0,0.0,0.0,0.0,0.0,0.0,0.0,0.0,0.0,0.0,0.0,0.0,0.0,0.0,0.0,0.0,0.0,0.0,0.0,0.0,0.0,0.0,0.0,0.0,0.0,0.0,0.0,0.0,0.0,0.0,0.0,0.0,0.0,0.0,0.0,0.0,2.3093,2.3865,2.3884,2.3015,2.3059,2.2074,0.0,0.0,0.0,0.0,0.0,0.0,0.0,0.0,0.0,0.0,0.0,0.0,0.0,0.0,0.0,0.0,0.0,0.0,0.0,0.0,0.0,0.0,0.0,0.0,0.0,0.0,0.0,0.0,0.0,0.0,0.0,0.0,0.0,0.0,0.0,0.0,0.0,0.0,0.0,0.0,0.0,0.0,0.0,0.0,0.0,0.0,0.0,0.0,0.0,0.0,0.0,0.0,0.0,0.0,0.0,0.0,0.0,0.0,0.0,0.0,0.0,0.0,0.0,0.0,0.0,0.0,0.0,0.0,0.0,0.0,0.0,0.0,0.0,0.0,0.0,0.0,0.0,0.0,0.0,0.0,0.0,0.0,0.0,0.0,0.0,0.0,0.0,0.0,0.0,0.0,0.0,0.0,0.0,0.0,0.0,0.0,0.0,0.0,0.0,0.0,0.0,0.0,0.0,0.0,0.0,0.0,0.0,0.0,0.0,2.3822,2.4137,2.409,2.3649,2.3277,2.2811,0.0,0.0,0.0,0.0,0.0,0.0,0.0,0.0,0.0,0.0,0.0,0.0,0.0,0.0,0.0,0.0,0.0,0.0,0.0,0.0,0.0,0.0,0.0,0.0,0.0,0.0,0.0,0.0,0.0,0.0,0.0,0.0,0.0,0.0,0.0,0.0,0.0,0.0,0.0,0.0,0.0,0.0,0.0,0.0,0.0,0.0,0.0,0.0,0.0,0.0,0.0,0.0,0.0,0.0,0.0,0.0,0.0,0.0,0.0,0.0,0.0,0.0,0.0,0.0,0.0,0.0,0.0,0.0,0.0,0.0,0.0,0.0,0.0,0.0,0.0,0.0,0.0,0.0,0.0,0.0,0.0,0.0,0.0,0.0,0.0,0.0,0.0,0.0,0.0,0.0,0.0,0.0,0.0,0.0,0.0,0.0,0.0,0.0,0.0,0.0,0.0,0.0,0.0,0.0,0.0,0.0,0.0,0.0,2.4077,2.4182,2.4266,2.4154,2.3871,2.3632,2.3382,0.0,0.0,0.0,0.0,0.0,0.0,0.0,0.0,0.0,0.0,0.0,0.0,0.0,0.0,0.0,0.0,0.0,0.0,0.0,0.0,0.0,0.0,0.0,0.0,0.0,0.0,0.0,0.0,0.0,0.0,0.0,0.0,0.0,0.0,0.0,0.0,0.0,0.0,0.0,0.0,0.0,0.0,0.0,0.0,0.0,0.0,0.0,0.0,0.0,0.0,0.0,0.0,0.0,0.0,0.0,0.0,0.0,0.0,0.0,0.0,0.0,0.0,0.0,0.0,0.0,0.0,0.0,0.0,0.0,0.0,0.0,0.0,0.0,0.0,0.0,0.0,0.0,0.0,0.0,0.0,0.0,0.0,0.0,0.0,0.0,0.0,0.0,0.0,0.0,0.0,0.0,0.0,0.0,0.0,0.0,0.0,0.0,0.0,0.0,0.0,0.0,0.0,0.0,0.0,0.0,0.0,0.0,0.0,2.4565,2.4325,2.4298,2.4144,2.3847,2.4006,2.3831,0.0,0.0,0.0,0.0,0.0,0.0,0.0,0.0,0.0,0.0,0.0,0.0,0.0,0.0,0.0,0.0,0.0,0.0,0.0,0.0,0.0,0.0,0.0,0.0,0.0,0.0,0.0,0.0,0.0,0.0,0.0,0.0,0.0,0.0,0.0,0.0,0.0,0.0,0.0,0.0,0.0,0.0,0.0,0.0,0.0,0.0,0.0,0.0,0.0,0.0,0.0,0.0,0.0,0.0,0.0,0.0,0.0,0.0,0.0,0.0,0.0,0.0,0.0,0.0,0.0,0.0,0.0,0.0,0.0,0.0,0.0,0.0,0.0,0.0,0.0,0.0,0.0,0.0,0.0,0.0,0.0,0.0,0.0,0.0,0.0,0.0,0.0,0.0,0.0,0.0,0.0,0.0,0.0,0.0,0.0,0.0,0.0,0.0,0.0,0.0,0.0,0.0,0.0,0.0,0.0,0.0,0.0,0.0,2.4633,2.4475,2.4357,2.421,2.4036,2.4079,2.4088,0.0,0.0,0.0,0.0,0.0,0.0,0.0,0.0,0.0,0.0,0.0,0.0,0.0,0.0,0.0,0.0,0.0,0.0,0.0,0.0,0.0,0.0,0.0,0.0,0.0,0.0,0.0,0.0,0.0,0.0,0.0,0.0,0.0,0.0,0.0,0.0,0.0,0.0,0.0,0.0,0.0,0.0,0.0,0.0,0.0,0.0,0.0,0.0,2.5332,0.0,0.0,0.0,0.0,0.0,0.0,0.0,0.0,0.0,0.0,0.0,0.0,0.0,0.0,0.0,0.0,0.0,0.0,0.0,0.0,0.0,0.0,0.0,0.0,0.0,0.0,0.0,0.0,0.0,0.0,0.0,0.0,0.0,0.0,0.0,0.0,0.0,0.0,0.0,0.0,0.0,0.0,0.0,0.0,0.0,0.0,0.0,0.0,0.0,0.0,0.0,0.0,0.0,0.0,0.0,0.0,0.0,0.0,0.0,2.4622,2.4489,2.4061,2.3956,2.4173,2.3828,2.3814,0.0,0.0,0.0,0.0,0.0,0.0,0.0,0.0,0.0,0.0,0.0,0.0,0.0,0.0,0.0,0.0,0.0,0.0,0.0,0.0,0.0,0.0,0.0,0.0,0.0,0.0,0.0,0.0,0.0,0.0,0.0,0.0,0.0,0.0,0.0,0.0,0.0,0.0,0.0,0.0,0.0,0.0,0.0,0.0,0.0,0.0,0.0,0.0,0.0,0.0,0.0,0.0,0.0,0.0,0.0,0.0,0.0,0.0,0.0,0.0,0.0,0.0,0.0,0.0,0.0,0.0,0.0,0.0,0.0,0.0,0.0,0.0,0.0,0.0,0.0,0.0,0.0,0.0,0.0,0.0,0.0,0.0,0.0,0.0,0.0,0.0,0.0,0.0,0.0,0.0,0.0,0.0,0.0,0.0,0.0,0.0,0.0,0.0,0.0,0.0,0.0,0.0,0.0,0.0,0.0,0.0,0.0,2.4681,2.4634,2.4499,2.3731,2.3553,2.4122,2.3489,2.3303,2.3678,0.0,0.0,0.0,0.0,0.0,0.0,0.0,0.0,0.0,0.0,0.0,0.0,0.0,0.0,0.0,0.0,0.0,0.0,0.0,0.0,0.0,0.0,0.0,0.0,0.0,0.0,0.0,0.0,0.0,0.0,0.0,0.0,0.0,0.0,0.0,0.0,0.0,0.0,2.5038,2.505,0.0,0.0,0.0,0.0,0.0,0.0,0.0,0.0,2.5224,0.0,0.0,0.0,0.0,0.0,0.0,0.0,0.0,0.0,0.0,0.0,0.0,0.0,0.0,0.0,0.0,0.0,0.0,0.0,0.0,0.0,0.0,0.0,0.0,0.0,0.0,0.0,0.0,0.0,0.0,0.0,0.0,0.0,0.0,0.0,0.0,0.0,0.0,0.0,0.0,0.0,0.0,0.0,0.0,0.0,0.0,0.0,0.0,0.0,0.0,0.0,0.0,0.0,0.0,0.0,0.0,2.4681,2.4681,2.4692,2.4654,2.378,2.3353,2.3463,2.3333,2.2864,2.2077,0.0,0.0,0.0,0.0,0.0,0.0,0.0,0.0,0.0,0.0,0.0,0.0,0.0,0.0,0.0,0.0,0.0,0.0,0.0,0.0,0.0,0.0,0.0,0.0,0.0,0.0,0.0,0.0,0.0,0.0,0.0,0.0,0.0,0.0,0.0,0.0,0.0,0.0,0.0,2.6273,2.6673,0.0,0.0,0.0,0.0,0.0,0.0,0.0,0.0,2.6019,0.0,0.0,0.0,0.0,0.0,0.0,0.0,0.0,0.0,0.0,0.0,0.0,0.0,0.0,0.0,0.0,0.0,0.0,0.0,0.0,0.0,0.0,0.0,0.0,0.0,0.0,0.0,0.0,0.0,0.0,0.0,0.0,0.0,0.0,0.0,0.0,0.0,0.0,0.0,0.0,0.0,0.0,0.0,0.0,0.0,0.0,0.0,0.0,0.0,0.0,0.0,0.0,0.0,0.0,0.0,2.4681,2.4681,2.4681,2.4662,2.3442,2.2982,2.3363,2.257,2.1808,0.0,0.0,0.0,0.0,0.0,0.0,0.0,0.0,0.0,0.0,0.0,0.0,0.0,0.0,0.0,0.0,0.0,0.0,0.0,0.0,0.0,0.0,0.0,0.0,0.0,0.0,0.0,0.0,0.0,0.0,0.0,0.0,0.0,0.0,0.0,0.0,0.0,0.0,0.0,0.0,2.6181,2.6552,2.6898,0.0,0.0,0.0,0.0,0.0,0.0,2.6572,2.6725,0.0,0.0,0.0,0.0,0.0,0.0,0.0,0.0,0.0,0.0,0.0,0.0,0.0,0.0,0.0,0.0,0.0,0.0,0.0,0.0,0.0,0.0,0.0,0.0,0.0,0.0,0.0,0.0,0.0,0.0,0.0,0.0,0.0,0.0,0.0,0.0,0.0,0.0,0.0,0.0,0.0,0.0,0.0,0.0,0.0,0.0,0.0,0.0,0.0,0.0,0.0,0.0,0.0,0.0,0.0,2.4681,2.4681,2.4681,2.4643,2.3281,2.2758,2.3231,2.2101,2.1164,0.0,0.0,0.0,0.0,0.0,0.0,0.0,0.0,0.0,0.0,0.0,0.0,0.0,0.0,0.0,0.0,0.0,0.0,0.0,0.0,0.0,0.0,0.0,0.0,0.0,0.0,0.0,0.0,0.0,0.0,0.0,0.0,0.0,0.0,0.0,0.0,0.0,0.0,0.0,0.0,0.0,2.6915,2.7172,2.6767,0.0,0.0,0.0,0.0,2.7055,2.713,0.0,0.0,0.0,0.0,0.0,0.0,0.0,0.0,0.0,0.0,0.0,0.0,0.0,0.0,0.0,0.0,0.0,0.0,0.0,0.0,0.0,0.0,0.0,0.0,0.0,0.0,0.0,0.0,0.0,0.0,0.0,0.0,0.0,0.0,0.0,0.0,0.0,0.0,0.0,0.0,0.0,0.0,0.0,0.0,0.0,0.0,0.0,0.0,0.0,0.0,0.0,0.0,0.0,0.0,0.0,0.0,2.4681,2.4681,2.4681,2.4643,2.3814,2.3081,2.247,2.295,2.2062,0.0,0.0,0.0,0.0,0.0,0.0,0.0,0.0,0.0,0.0,0.0,0.0,0.0,0.0,0.0,0.0,0.0,0.0,0.0,0.0,0.0,0.0,0.0,0.0,0.0,0.0,0.0,0.0,0.0,0.0,0.0,0.0,0.0,0.0,0.0,0.0,0.0,0.0,0.0,0.0,0.0,2.9607,2.8171,2.8547,2.869,0.0,0.0,2.7854,2.7947,2.7966,0.0,0.0,0.0,0.0,0.0,0.0,0.0,0.0,0.0,0.0,0.0,0.0,0.0,0.0,0.0,0.0,0.0,0.0,0.0,0.0,0.0,0.0,0.0,0.0,0.0,0.0,0.0,0.0,0.0,0.0,0.0,0.0,0.0,0.0,0.0,0.0,0.0,0.0,0.0,0.0,0.0,0.0,0.0,0.0,0.0,0.0,0.0,0.0,0.0,0.0,0.0,0.0,0.0,0.0,0.0,2.4681,2.4681,2.4681,2.4681,2.4685,2.3908,2.3119,2.2301,2.2176,2.1286,0.0,0.0,0.0,0.0,0.0,0.0,0.0,0.0,0.0,0.0,0.0,0.0,0.0,0.0,0.0,0.0,0.0,0.0,0.0,0.0,0.0,0.0,0.0,0.0,0.0,0.0,0.0,0.0,0.0,0.0,0.0,0.0,0.0,0.0,0.0,0.0,0.0,0.0,0.0,0.0,0.0,0.0,3.0108,2.975,0.0,0.0,0.0,2.8263,2.8765,0.0,0.0,0.0,0.0,0.0,0.0,0.0,0.0,0.0,0.0,0.0,0.0,0.0,0.0,0.0,0.0,0.0,0.0,0.0,0.0,0.0,0.0,0.0,0.0,0.0,0.0,0.0,0.0,0.0,0.0,0.0,0.0,0.0,0.0,0.0,0.0,0.0,0.0,0.0,0.0,0.0,0.0,0.0,0.0,0.0,0.0,0.0,0.0,0.0,0.0,0.0,0.0,0.0,0.0,0.0,0.0,0.0,2.4681,2.4681,2.4681,2.4681,2.411,2.3397,2.2623,2.2157,0.0,0.0,0.0,0.0,0.0,0.0,0.0,0.0,0.0,0.0,0.0,0.0,0.0,0.0,0.0,0.0,0.0,0.0,0.0,0.0,0.0,0.0,0.0,0.0,0.0,0.0,0.0,2.3244,0.0,0.0,0.0,0.0,0.0,0.0,0.0,0.0,0.0,0.0,0.0,0.0,0.0,0.0,2.969,3.1297,3.0809,3.0442,0.0,0.0,2.8951,2.9606,2.9532,2.9383,0.0,0.0,0.0,0.0,0.0,0.0,0.0,0.0,0.0,0.0,0.0,0.0,0.0,0.0,0.0,0.0,0.0,0.0,0.0,0.0,0.0,0.0,0.0,0.0,0.0,0.0,0.0,0.0,0.0,0.0,0.0,0.0,0.0,0.0,0.0,0.0,0.0,0.0,0.0,0.0,0.0,0.0,0.0,0.0,0.0,0.0,0.0,0.0,0.0,0.0,0.0,0.0,0.0,0.0,0.0,2.4681,2.4681,2.4681,2.4681,2.4643,2.4238,2.346,2.4092,2.3255,0.0,0.0,0.0,0.0,0.0,0.0,0.0,0.0,0.0,0.0,0.0,0.0,0.0,0.0,0.0,0.0,0.0,0.0,0.0,0.0,0.0,0.0,0.0,0.0,0.0,0.0,0.0,0.0,0.0,0.0,0.0,0.0,0.0,0.0,0.0,0.0,0.0,0.0,0.0,0.0,0.0,3.1421,3.0782,3.1862,3.2494,0.0,0.0,3.0437,3.0493,2.9898,2.9383,2.9383,0.0,0.0,0.0,0.0,0.0,0.0,0.0,0.0,0.0,0.0,0.0,0.0,0.0,0.0,0.0,0.0,0.0,0.0,0.0,0.0,0.0,0.0,0.0,0.0,0.0,0.0,0.0,0.0,0.0,0.0,0.0,0.0,0.0,0.0,0.0,0.0,0.0,0.0,0.0,0.0,0.0,0.0,0.0,0.0,0.0,0.0,0.0,0.0,0.0,0.0,0.0,0.0,0.0,2.4681,2.4681,2.4681,2.4681,2.4681,2.4681,2.4336,2.3513,2.3791,2.3247,0.0,0.0,0.0,0.0,0.0,0.0,0.0,0.0,0.0,0.0,0.0,0.0,0.0,0.0,0.0,0.0,0.0,0.0,0.0,0.0,0.0,0.0,0.0,0.0,0.0,0.0,0.0,0.0,2.5417,2.567,2.547,0.0,0.0,0.0,0.0,0.0,0.0,0.0,0.0,0.0,0.0,3.2093,3.224,3.226,0.0,0.0,3.144,3.0772,3.1273,3.066,3.0145,3.0145,2.9861,0.0,0.0,0.0,0.0,0.0,0.0,0.0,0.0,0.0,0.0,0.0,0.0,0.0,0.0,0.0,0.0,0.0,0.0,0.0,0.0,0.0,0.0,0.0,0.0,0.0,0.0,0.0,0.0,0.0,0.0,0.0,0.0,0.0,0.0,0.0,0.0,0.0,0.0,0.0,0.0,0.0,0.0,0.0,0.0,0.0,0.0,0.0,0.0,0.0,0.0,0.0,0.0,2.5061,2.4761,2.5009,2.5032,2.4783,2.4727,2.4445,2.3866,2.3866,2.3491,0.0,0.0,0.0,0.0,0.0,0.0,0.0,0.0,0.0,0.0,0.0,0.0,0.0,0.0,0.0,0.0,0.0,0.0,0.0,0.0,0.0,0.0,0.0,0.0,0.0,0.0,0.0,0.0,2.6345,2.6466,2.5857,0.0,0.0,0.0,0.0,0.0,0.0,0.0,0.0,0.0,0.0,3.3151,3.3696,3.312,3.2831,3.339,3.2248,3.1515,3.2067,3.1676,3.131,3.131,0.0,0.0,0.0,0.0,0.0,0.0,0.0,0.0,0.0,0.0,0.0,0.0,0.0,0.0,0.0,0.0,0.0,0.0,0.0,0.0,0.0,0.0,0.0,0.0,0.0,0.0,0.0,0.0,0.0,0.0,0.0,0.0,0.0,0.0,0.0,0.0,0.0,0.0,0.0,0.0,0.0,0.0,0.0,0.0,0.0,0.0,0.0,0.0,0.0,0.0,0.0,0.0,0.0,2.5885,2.4943,2.5734,2.5753,2.4933,2.4768,2.4689,2.4643,2.4666,2.4294,2.3517,0.0,0.0,0.0,0.0,0.0,0.0,0.0,0.0,0.0,0.0,0.0,0.0,0.0,0.0,0.0,0.0,0.0,0.0,0.0,0.0,0.0,0.0,0.0,0.0,0.0,0.0,2.6711,2.6693,2.6723,0.0,0.0,0.0,0.0,0.0,0.0,0.0,0.0,0.0,0.0,3.4277,3.4841,3.4832,3.465,3.4451,3.4545,3.3627,3.2951,3.3013,3.2989,3.2934,0.0,0.0,0.0,0.0,0.0,0.0,0.0,0.0,0.0,0.0,0.0,0.0,0.0,0.0,0.0,0.0,0.0,0.0,0.0,0.0,0.0,0.0,0.0,0.0,0.0,0.0,0.0,2.7817,2.7646,0.0,0.0,0.0,0.0,0.0,0.0,0.0,0.0,0.0,0.0,0.0,3.0171,3.1184,0.0,0.0,0.0,0.0,0.0,0.0,0.0,0.0,0.0,0.0,0.0,0.0,2.6771,2.5955,2.6187,2.5872,2.4946,2.4857,2.4794,2.4704,2.4681,2.4572,2.4291,0.0,0.0,0.0,0.0,0.0,0.0,0.0,0.0,0.0,0.0,0.0,0.0,0.0,0.0,0.0,0.0,0.0,0.0,0.0,0.0,0.0,0.0,0.0,0.0,0.0,2.8345,0.0,0.0,0.0,0.0,0.0,0.0,0.0,0.0,0.0,0.0,0.0,3.5174,3.4898,3.5454,3.5482,3.4387,3.4054,3.414,0.0,0.0,0.0,0.0,0.0,0.0,0.0,0.0,0.0,0.0,0.0,0.0,0.0,0.0,3.6317,3.3507,3.2779,3.2669,3.2944,0.0,0.0,0.0,0.0,0.0,0.0,0.0,0.0,0.0,0.0,0.0,0.0,0.0,0.0,0.0,0.0,2.8985,0.0,0.0,0.0,0.0,0.0,0.0,0.0,0.0,3.1244,3.1763,3.1991,3.3025,3.331,0.0,3.3644,3.242,0.0,0.0,0.0,0.0,0.0,0.0,0.0,0.0,2.7939,2.6551,2.674,2.6291,2.5107,2.5003,2.4938,2.484,2.4801,2.4772,2.4768,2.4212,2.4189,0.0,0.0,0.0,0.0,0.0,0.0,0.0,0.0,0.0,0.0,0.0,0.0,0.0,0.0,0.0,0.0,0.0,0.0,0.0,0.0,0.0,0.0,0.0,2.9183,0.0,0.0,0.0,0.0,0.0,0.0,0.0,0.0,0.0,3.5183,3.6546,3.7292,3.6484,3.6711,3.6553,3.5488,0.0,0.0,0.0,0.0,0.0,0.0,0.0,3.6218,3.6919,3.668,3.6896,3.8344,3.9439,3.9914,3.9265,0.0,0.0,3.6245,3.5477,3.5311,3.5594,3.5775,3.58,3.555,3.5929,3.5768,0.0,0.0,0.0,0.0,0.0,0.0,0.0,0.0,3.2534,3.2035,0.0,3.1246,0.0,0.0,0.0,0.0,0.0,0.0,0.0,0.0,3.3851,3.3851,3.3224,3.3977,3.3961,3.3354,3.4922,3.4875,3.3294,3.1666,0.0,0.0,0.0,0.0,0.0,0.0,2.932,2.678,2.7411,2.6999,2.5358,2.5171,2.5093,2.5084,2.4962,2.4908,2.4886,2.4775,2.4798,2.4924,2.4809,0.0,0.0,0.0,0.0,0.0,0.0,0.0,0.0,0.0,0.0,0.0,0.0,0.0,0.0,0.0,0.0,0.0,0.0,0.0,0.0,2.9236,0.0,0.0,0.0,0.0,0.0,0.0,0.0,0.0,0.0,0.0,3.7233,3.8342,3.905,3.8142,0.0,0.0,0.0,0.0,3.6736,3.7551,3.7542,3.7408,3.747,3.8053,3.8536,3.8641,0.0,0.0,3.8672,3.986,4.0391,3.8747,3.9099,3.9514,3.9463,3.8508,3.8118,3.8773,3.8138,3.7834,3.8465,3.8345,3.7947,3.5098,0.0,0.0,0.0,0.0,3.5263,3.5804,3.6906,3.5149,3.4358,3.4207,3.2942,0.0,0.0,0.0,0.0,0.0,0.0,3.5234,3.5739,3.5441,3.5441,3.5778,3.545,3.5501,3.5915,3.7021,3.7627,3.7745,3.664,3.495,3.2742,0.0,0.0,0.0,0.0,3.0177,2.7782,2.7821,2.7087,2.5327,2.5259,2.5212,2.509,2.5055,2.5053,2.5053,2.5016,2.5285,2.5942,2.5946,0.0,0.0,0.0,0.0,0.0,0.0,0.0,0.0,0.0,0.0,0.0,0.0,0.0,0.0,0.0,0.0,0.0,0.0,0.0,2.9971,3.0064,3.0787,0.0,0.0,0.0,0.0,0.0,0.0,0.0,0.0,0.0,4.043,4.0834,4.0546,0.0,0.0,3.8703,3.8104,3.774,3.7636,3.7886,0.0,0.0,0.0,3.8316,3.8406,3.9738,4.0671,4.1114,4.0812,4.1151,4.1269,4.0641,4.0292,4.0067,4.0046,3.9524,3.9158,3.9301,3.8979,3.8729,3.8905,3.8409,3.7573,3.8052,3.712,3.7158,3.73,3.7495,3.7347,3.7749,3.8431,3.6953,3.6373,3.6446,3.5372,3.4737,3.4414,3.4514,0.0,0.0,0.0,3.6801,3.6944,3.6455,3.6307,3.6424,3.5963,3.6017,3.6531,3.7058,3.7606,3.8152,3.7936,3.6604,3.4275,0.0,0.0,3.2372,3.2314,3.0905,2.8146,2.7991,2.7153,2.5427,2.5388,2.5341,2.5247,2.5203,2.5176,2.5174,2.5116,2.552,2.6436,2.6431,2.6565,0.0,0.0,0.0,0.0,0.0,0.0,0.0,0.0,0.0,0.0,0.0,2.7014,2.6274,0.0,0.0,0.0,2.966,3.0856,3.136,3.2301,0.0,0.0,0.0,0.0,0.0,0.0,0.0,4.1917,4.1798,4.1672,4.1992,4.1983,4.1381,3.9973,3.9496,3.9223,3.9031,0.0,3.8123,3.845,3.8219,3.818,3.8684,3.8531,3.8829,4.0269,4.0912,4.1253,4.1225,4.1208,4.1178,4.0997,4.0625,4.031,4.031,4.0036,3.9781,3.9676,3.9433,3.9265,3.9259,3.8733,3.8032,4.0492,4.0411,3.9247,3.8433,3.8,3.8713,3.8727,3.82,3.8123,3.8104,3.8104,3.8041,3.7609,3.6937,3.7149,0.0,0.0,3.8055,3.8026,3.7292,3.7102,3.6627,3.5907,3.585,3.5833,3.5916,3.5915,3.5958,3.6118,3.6849,3.6768,3.5912,3.5849,3.4912,3.3199,3.31,3.1453,2.8163,2.803,2.7176,2.5548,2.5509,2.5509,2.5507,2.5386,2.5317,2.5315,2.5269,2.5672,2.6638,2.6669,2.7025,2.7834,0.0,0.0,0.0,0.0,0.0,0.0,0.0,0.0,0.0,0.0,0.0,0.0,0.0,0.0,0.0,3.213,0.0,3.322,3.5335,0.0,0.0,0.0,3.9674,4.0077,4.2131,4.3213,4.2428,0.0,0.0,0.0,0.0,4.1635,4.0648,3.9838,3.9587,4.0319,3.9006,3.8276,3.8868,3.8407,3.7892,3.793,3.8619,3.9446,4.0185,4.0458,4.0538,4.0548,4.0532,4.046,4.0378,4.0326,4.0323,4.0315,4.0287,4.0206,3.9975,3.9698,3.9539,3.952,3.937,3.8927,4.0492,4.0469,4.0163,3.9963,3.9845,4.0053,4.0034,3.9858,3.9242,3.8992,3.8961,3.8363,3.8387,3.8961,3.9649,3.9943,3.993,3.9548,3.9261,3.8997,3.7707,3.6975,3.676,3.6121,3.6184,3.684,3.688,3.7245,3.7924,3.8101,3.7736,3.6897,3.6796,3.556,3.3272,3.3172,3.1784,2.9018,2.8339,2.7196,2.5586,2.5509,2.5509,2.5509,2.5468,2.5457,2.5457,2.6019,2.6753,2.763,2.8268,2.8729,2.8924,2.8087,0.0,0.0,0.0,0.0,0.0,0.0,0.0,0.0,0.0,3.0184,2.8063,0.0,3.1864,0.0,3.3931,3.5266,3.6043,3.661,0.0,0.0,4.0674,4.1604,4.4226,4.4504,4.4426,4.4315,4.4083,4.35,4.2383,4.167,4.1124,4.0773,3.9976,3.9527,3.968,3.8801,3.7929,3.7562,3.7234,3.7004,3.7119,3.8315,3.9323,3.955,4.0073,4.05,4.0491,4.0449,4.0407,4.0339,4.0314,4.0324,4.0306,4.032,4.0287,4.0196,3.9972,3.9796,3.9777,3.9193,3.8531,3.9627,3.9935,3.9569,3.9608,3.9992,4.0342,4.0492,4.0466,4.0089,3.9925,3.9893,3.9472,3.9616,4.0157,4.0704,4.0728,4.0339,3.9922,3.9344,3.8585,3.76,3.6963,3.659,3.6124,3.6154,3.6673,3.6673,3.693,3.7422,3.7398,3.7121,3.6673,3.6619,3.5678,3.3902,3.3444,3.2166,2.995,2.8692,2.7411,2.6149,2.6053,2.5855,2.5528,2.5857,2.6029,2.6048,2.6824,2.7677,2.855,2.9053,2.9633,3.0344,2.9596,2.9057,0.0,0.0,0.0,0.0,0.0,0.0,0.0,0.0,0.0,0.0,0.0,3.3796,0.0,3.6341,0.0,3.8694,3.9779,4.1207,4.3105,4.3267,4.4016,4.5983,4.5756,4.5338,4.5028,4.4232,4.3365,4.2462,4.158,4.1024,4.0929,4.0182,3.9592,3.9401,3.844,3.7449,3.7006,3.6529,3.6341,3.6629,3.7484,3.8296,3.87,3.9415,3.9965,3.998,4.0222,4.0415,4.037,4.035,4.0337,4.031,4.032,4.032,4.0287,4.0181,4.0087,4.0082,3.9628,3.9167,3.8465,3.9105,3.8353,3.8469,3.9239,3.9933,4.0211,4.0184,4.033,4.0476,4.0576,4.075,4.0833,4.0853,4.0942,4.0544,3.9736,3.967,3.8802,3.7321,3.7135,3.6689,3.6015,3.6016,3.6016,3.6016,3.6016,3.6016,3.6016,3.6016,3.6016,3.6016,3.6016,3.5584,3.4772,3.3924,3.2497,3.0559,2.9031,2.7852,2.6991,2.6913,2.6556,2.5898,2.6507,2.6871,2.6899,2.7813,2.8692,2.9433,2.9687,3.0464,3.1883,3.1188,3.1035,0.0,3.1163,0.0,0.0,0.0,0.0,0.0,0.0,0.0,0.0,3.619,3.674,3.7447,3.9093,4.0472,4.1346,4.3432,4.4796,4.5001,4.5668,4.6176,4.6277,4.6301,4.593,4.4952,4.4172,4.3353,4.2316,4.1576,4.1108,4.1026,4.0341,3.9731,3.9441,3.8134,3.705,3.699,3.6217,3.5905,3.6395,3.6668,3.7092,3.7821,3.8744,3.9294,3.9356,4.0,4.0485,4.0426,4.0388,4.0376,4.031,4.0315,4.0315,4.0306,4.0296,4.0287,4.0287,4.0239,4.0229,3.8347,3.8483,3.8309,3.8347,3.8502,3.8655,3.8642,3.8559,3.87,3.9185,3.9937,4.0654,4.0985,4.1028,4.1063,4.0597,3.9754,3.9123,3.827,3.7255,3.6554,3.6128,3.6015,3.6015,3.6015,3.6016,3.6016,3.6016,3.6016,3.6016,3.6016,3.6016,3.6016,3.5898,0.0,0.0,0.0,0.0,2.9339,2.8729,2.7904,2.7904,2.7777,2.7554,2.7731,0.0,2.78,2.9265,3.0184,3.0397,3.1701,0.0,0.0,0.0,0.0,0.0,0.0,0.0,0.0,0.0,0.0,0.0,3.6742,3.6999,3.6888,3.9285,4.0697,4.0333,4.1809,4.3226,4.4129,4.4618,4.5225,4.5937,4.6172,4.6273,4.6301,4.6301,4.5696,4.4134,4.3783,4.3099,4.1635,4.1207,4.1108,4.1069,4.0346,3.9834,3.9778,3.8276,3.7136,3.7014,3.6369,3.5784,3.5861,3.6525,3.7055,3.7344,3.8493,3.9345,3.9448,4.0043,4.0544,4.0495,4.0432,4.0388,4.0326,4.0313,4.0308,4.031,4.0325,4.032,4.032,4.032,4.0272,3.7281,0.0,3.7204,3.7262,0.0,3.7271,3.7071,3.7089,3.7969,3.8869,3.9807,4.0667,4.107,4.1108,4.1112,4.0409,3.9176,3.8776,3.79,3.6648,3.6204,3.6011,3.6013,3.6013,3.6013,3.6014,3.6015,3.6015,3.6015,3.6015,3.6016,3.6016,3.6016,3.6016,3.5976,3.5137,3.3416,3.0804,3.032,2.9659,2.8843,2.8784,2.8764,2.8769,0.0,0.0,0.0,0.0,0.0,0.0,0.0,0.0,0.0,0.0,0.0,3.51,3.5518,3.5762,3.5742,3.6561,3.7603,3.8895,4.0604,4.1058,3.9768,4.2044,4.3374,4.3034,4.3791,4.4658,4.5536,4.5636,4.5832,4.6242,4.6301,4.6301,4.6301,4.6301,4.5617,4.4056,4.3705,4.3041,4.1343,4.1108,4.1108,4.1089,4.0738,4.0424,4.0307,3.8967,3.7854,3.7748,3.7387,3.7037,3.702,3.7284,3.7633,3.7823,3.8715,3.941,3.9511,4.0151,4.0697,4.0639,4.0626,4.0572,4.0473,4.0431,4.04,4.0347,4.0318,4.0306,4.032,4.032,4.032,3.6303,3.6746,3.605,3.6166,3.6771,3.6174,3.6002,3.6255,0.0,0.0,0.0,4.0659,4.1108,4.1108,4.1108,4.0172,3.865,3.8596,3.7662,3.6042,3.6007,3.6009,3.601,3.6009,3.601,3.6011,3.6013,3.6014,3.6014,3.6015,3.6015,3.6015,3.6015,3.6016,3.5937,3.5137,3.4023,3.2676,3.1713,3.0826,2.9985,3.0065,3.0049,2.9944,3.0743,3.1501,3.2199,3.3209,3.3749,3.3781,3.4756,3.5594,3.6267,3.6975,3.767,3.8293,3.8493,3.8564,3.8583,3.8857,3.9799,4.1582,4.3745,4.4375,4.2877,4.4293,4.5226,4.5226,4.5226,4.5519,4.6223,4.6301,4.6301,4.6301,4.6301,4.6301,4.6281,4.6145,4.5403,4.4017,4.3548,4.2904,4.1363,4.1108,4.1108,4.1108,4.1069,4.1108,4.0914,3.9761,3.8677,3.8416,3.825,3.833,3.8349,3.8298,3.835,3.8339,3.905,3.9595,3.9736,4.0293,4.0764,4.0791,4.0796,4.0746,4.0654,4.0573,4.0507,4.0454,4.0394,4.0364,4.0364,4.0345,4.0355,3.674,3.6133,3.5997,3.6016,3.6133,3.6022,3.6395,3.7178,3.8134,3.8645,3.8864,4.0426,4.1108,4.1108,4.1108,4.0191,3.863,3.8611,3.7655,0.0,3.6015,3.6019,3.6005,3.6005,3.6007,3.601,3.6011,3.6011,3.6011,3.6012,3.6012,3.6012,3.6014,3.6015,3.5937,3.5136,3.4589,3.4335,3.3496,3.2614,3.178,3.2456,3.2449,3.1716,3.2535,3.3038,3.3135,3.4622,3.5487,3.5578,3.7079,3.8028,3.819,3.8306,3.8443,3.858,3.9202,3.9591,3.9629,4.0976,4.258,4.4242,4.4793,4.4872,4.4673,4.5536,4.6125,4.6105,4.6086,4.6145,4.6301,4.6301,4.6301,4.6301,4.6301,4.6301,4.6281,4.5695,4.4875,4.3841,4.3021,4.2298,4.1343,4.1108,4.1108,4.1108,4.1108,4.1108,4.0952,4.0249,3.9388,3.8762,3.8585,3.8583,3.8727,3.8576,3.8688,3.8558,3.9293,3.9839,3.9799,4.0413,4.09,4.0826,4.0818,4.0787,4.0712,4.0675,4.0645,4.0577,4.0553,4.0542,4.0534,4.0538,4.0485,3.777,3.736,3.6891,3.6714,3.6714,3.6695,3.691,3.7419,3.8688,3.9254,3.9371,4.0563,4.1108,4.1108,4.1108,4.0426,3.9254,3.9253,3.8336,3.6754,3.6714,3.645,3.603,3.6011,3.6014,3.6016,3.6015,3.6015,3.6015,3.6014,3.6013,3.6013,3.6012,3.6013,3.5976,3.5605,3.541,3.5368,3.408,3.32,3.2825,3.3182,3.3415,3.3458,3.3914,3.434,3.4754,3.5958,3.6641,3.6649,3.8325,3.9266,3.9273,3.9704,3.9958,3.9958,4.0289,4.0503,4.0522,4.2123,4.3645,4.4874,4.5441,4.5714,4.5714,4.6066,4.6301,4.6301,4.6301,4.6301,4.6301,4.6301,4.6301,4.6301,4.6301,4.6301,4.6262,4.5988,4.5168,4.3939,4.3353,4.2591,4.1265,4.1108,4.1108,4.1108,4.1108,4.1108,4.1108,4.0777,4.0366,4.0035,3.9958,3.9957,3.9937,3.9958,3.9957,3.9958,4.025,4.0476,4.0459,4.0864,4.0972,4.0992,4.095,4.094,4.0889,4.0825,4.0776,4.0704,4.0645,4.0602,4.0591,4.0591,4.0526,3.8747,3.8533,3.7888,3.7594,3.7594,3.7614,3.7672,3.8004,3.9253,3.9917,4.019,4.0816,4.1108,4.1108,4.1108,4.0623,3.9866,3.9788,3.901,3.7666,3.7569,3.7203,3.6621,3.6562,3.6464,3.6304,3.6281,3.6181,3.6044,3.6176,3.6386,3.6541,3.656,3.6471,3.6305,3.6286,3.6191,3.5937,3.4667,3.3904,3.3709,3.3885,3.4314,3.4939,3.5192,3.5699,3.6556,3.7413,3.786,3.7934,3.9339,4.0157,4.0132,4.0738,4.1108,4.1108,4.1304,4.1596,4.2006,4.3217,4.4367,4.5226,4.593,4.6303,4.6289,4.6289,4.6306,4.6302,4.6301,4.6301,4.6301,4.6301,4.6301,4.6301,4.6301,4.6304,4.6269,4.5977,4.5372,4.4142,4.3501,4.2565,4.1698,4.121,4.1114,4.1111,4.1108,4.1108,4.1108,4.1108,4.1108,4.1108,4.1108,4.1011,4.1108,4.105,4.1011,4.1108,4.1069,4.103,4.1048,4.1088,4.1108,4.1103,4.11,4.1061,4.1027,4.0963,4.0917,4.0855,4.0776,4.07,4.0684,4.0652,4.0598,3.9274,3.865,3.8533,3.8473,3.8454,3.8473,3.8863,3.9507,3.976,4.0249,4.0934,4.105,4.1109,4.1108,4.1109,4.0631,3.988,3.9802,3.9316,3.8473,3.8394,3.8335,3.8177,3.8236,3.7864,3.718,3.7081,3.6748,3.6202,3.6788,3.7469,3.8188,3.8285,3.7872,3.7248,3.7135,3.6747,3.6027,3.5835,3.539,3.4664,3.5347,3.5796,3.5893,3.665,3.7469,3.823,3.9142,3.9567,3.9644,4.0426,4.0973,4.0972,4.105,4.1108,4.1167,4.185,4.2942,4.4426,4.4776,4.5208,4.6066,4.6225,4.6293,4.6305,4.6306,4.6301,4.629,4.6302,4.6285,4.6301,4.6303,4.6306,4.6288,4.6306,4.629,4.6148,4.488,4.4157,4.4861,4.3066,4.1543,4.2137,4.1652,4.1166,4.1117,4.1114,4.1113,4.1112,4.1109,4.1108,4.1108,4.1108,4.1108,4.1108,4.1108,4.1108,4.1108,4.1108,4.1108,4.1108,4.1108,4.1108,4.1108,4.1116,4.1102,4.1068,4.1025,4.1009,4.0954,4.0924,4.0928,4.0869,4.0821,4.0736,4.0367,4.0036,3.9508,3.902,3.8689,3.9098,3.9488,3.9819,4.0346,4.0784,4.1066,4.1105,4.1105,4.1105,4.1105,4.0896,4.0585,4.0565,4.0095,3.9328,3.9269,3.9011,3.8552,3.8512,3.8291,3.7981,3.798,3.7806,3.7591,3.7806,3.8173,3.8462,3.852,3.8314,3.8034,3.798,3.7792,3.7491,3.7473,3.73,3.6972,3.6816,3.7009,3.751,3.7879,3.8208,3.8634,3.9372,3.9799,3.9858,4.064,4.1108,4.1108,4.1108,4.1323,4.185,4.2683,4.3703,4.4933,4.4959,4.5332,4.6171,4.625,4.625,4.6249,4.6229,4.623,4.623,4.623,4.623,4.623,4.623,4.625,4.625,4.623,4.625,4.621,4.5604,4.5194,4.494,4.4019,4.3218,4.3066,4.2402,4.1699,4.1269,4.111,4.1105,4.1105,4.1117,4.1109,4.1108,4.1108,4.1108,4.1108,4.1108,4.1108,4.1108,4.1108,4.1108,4.1108,4.1108,4.1108,4.1108,4.1101,4.1109,4.1114,4.1086,4.1046,4.1002,4.0948,4.0928,4.089,4.0881,4.0842,4.1108,4.1011,4.0405,3.982,3.9352,3.9897,4.0174,4.0219,4.0844,4.1107,4.1113,4.1113,4.1113,4.1113,4.1113,4.1112,4.1102,4.1101,4.0765,4.0192,4.0152,3.9811,3.9246,3.9205,3.9075,3.8874,3.8852,3.887,3.8868,3.8849,3.8966,3.918,3.9219,3.908,3.8872,3.8875,3.8729,3.8511,3.8513,3.8613,3.8717,3.8295,3.83,3.8865,3.8922,3.9038,3.929,3.9856,4.0167,4.0168,4.0988,4.1457,4.1457,4.1672,4.218,4.302,4.3671,4.4414,4.5273,4.529,4.5519,4.6106,4.6204,4.6202,4.6198,4.6197,4.6214,4.6207,4.6207,4.621,4.6204,4.6204,4.6204,4.6204,4.6204,4.6203,4.6198,4.6041,4.5631,4.5296,4.4663,4.4333,4.3695,4.29,4.2104,4.1636,4.1269,4.1113,4.1113,4.111,4.1106,4.1105,4.1105,4.1101,4.1113,4.1108,4.1108,4.1108,4.1108,4.1108,4.1108,4.1108,4.1108,4.1108,4.1108,4.1106,4.1114,4.1105,4.1145,4.1031,4.1016,4.1018,4.089,4.0907,4.0905,4.1108,4.1108,4.1069,4.0952,4.0992,4.0972,4.1022,4.0974,4.1091,4.1113,4.1109,4.1109,4.11,4.1103,4.1102,4.1099,4.1118,4.1115,4.108,4.097,4.0985,4.0998,4.0995,4.0974,4.0527,3.9784,3.9745,3.9745,3.9766,3.9747,4.0174,4.0875,4.0836,4.0506,3.985,3.9733,3.9342,3.8766,3.8709,3.8957,3.9629,3.9692,3.9685,3.9796,3.974,4.0093,4.0797,4.0992,4.105,4.1031,4.1871,4.2339,4.2417,4.31,4.3862,4.4584,4.4797,4.5207,4.5951,4.6066,4.6123,4.6183,4.62,4.6196,4.6212,4.6209,4.6197,4.6213,4.62,4.6209,4.6215,4.6198,4.62,4.62,4.6202,4.6214,4.6212,4.5604,4.5429,4.5657,4.4855,4.4089,4.3704,4.291,4.2585,4.2235,4.1673,4.1225,4.1245,4.1187,4.1189,4.1131,4.1112,4.1113,4.11,4.1114,4.1113,4.1112,4.1114,4.1109,4.1109,4.1108,4.1109,4.1109,4.1108,4.1108,4.1108,4.1157,4.1254,4.1273,4.1375,4.1339,4.1553,4.1102,4.1179,4.1108,4.1108,4.1114,4.1104,4.1101,4.1113,4.1103,4.1113,4.1113,4.1112,4.1104,4.1102,4.111,4.1102,4.1113,4.1105,4.1116,4.1114,4.1106,4.1109,4.1109,4.1109,4.1109,4.1109,4.0973,4.068,4.0641,4.0641,4.0622,4.0622,4.0776,4.1031,4.1109,4.0934,4.068,4.0641,4.0466,4.0213,4.0175,4.0319,4.0609,4.0628,4.0848,4.133,4.0899,4.0794,4.1088,4.1634,4.1946,4.1926,4.2766,4.3234,4.3311,4.4014,4.4581,4.4893,4.541,4.587,4.6143,4.6205,4.621,4.6211,4.621,4.6207,4.6212,4.6206,4.6198,4.6203,4.6197,4.6203,4.6199,4.6211,4.621,4.621,4.6211,4.6209,4.6173,4.5913,4.5874,4.6048,4.5563,4.5095,4.4487,4.4171,4.3789,4.3244,4.289,4.2471,4.2047,4.1919,4.1788,4.1283,4.1107,4.111,4.1113,4.111,4.1106,4.1103,4.1101,4.1114,4.1111,4.1114,4.1116,4.1117,4.1116,4.1189,4.1246,4.1632,4.1691,4.2352,4.2399,4.2214,4.258,4.2189,4.2284,4.11,4.1098,4.111,4.1103,4.1102,4.1103,4.111,4.1112,4.1112,4.1106,4.111,4.1107,4.1115,4.1117,4.1113,4.1104,4.1105,4.1105,4.1105,4.1103,4.11,4.1118,4.1117,4.1112,4.1109,4.1109,4.1109,4.1109,4.1109,4.1109,4.1109,4.1109,4.1343,4.1477,4.1518,4.1752,4.1906,4.1906,4.1887,4.1906,4.1908,4.1906,4.2141,4.2559,4.2198,4.1908,4.1908,4.2472,4.2785,4.2902,4.3623,4.4209,4.4521,4.5028,4.5302,4.5397,4.587,4.6209,4.6205,4.6198,4.6199,4.6199,4.6197,4.6197,4.6197,4.6197,4.6197,4.6197,4.6197,4.6197,4.6197,4.6199,4.6197,4.6197,4.6197,4.6197,4.6197,4.6199,4.618,4.6201,4.6141,4.5847,4.5418,4.5069,4.4623,4.407,4.3808,4.3334,4.2912,4.277,4.2649,4.2044,4.2021,4.1883,4.1755,4.1689,4.1347,4.1269,4.1112,4.1108,4.1103,4.1104,4.1105,4.1105,4.116,4.1272,4.1551,4.1991,4.2632,4.3397,4.3333,4.2989,4.3216,4.3352,4.3333,4.1117,4.1105,4.1101,4.1111,4.11,4.1111,4.1112,4.1102,4.11,4.1109,4.1108,4.11,4.1103,4.1115,4.1098,4.1114,4.1231,4.1251,4.1169,4.1109,4.11,4.1153,4.1212,4.1258,4.1329,4.1368,4.1229,4.1209,4.1349,4.1388,4.1368,4.1385,4.2029,4.2325,4.2338,4.2983,4.3466,4.3408,4.3351,4.3445,4.358,4.3406,4.3445,4.3582,4.3531,4.3556,4.3609,4.3629,4.3614,4.3708,4.4433,4.5305,4.5878,4.6073,4.6146,4.6094,4.6183,4.6199,4.6201,4.6199,4.6197,4.6197,4.6197,4.6197,4.6197,4.6197,4.6197,4.6197,4.6197,4.6197,4.6197,4.6197,4.6197,4.6197,4.6197,4.6197,4.6197,4.6197,4.6197,4.6197,4.6197,4.6197,4.6022,4.5535,4.5028,4.4835,4.4369,4.3866,4.3692,4.3641,4.3609,4.3475,4.3157,4.2799,4.2565,4.2317,4.1844,4.1434,4.1226,4.1112,4.1113,4.1113,4.1113,4.1113,4.1113,4.1248,4.1887,4.2338,4.2873,4.3455,4.3463,4.3795,4.4091,4.4226,4.4013,4.1113,4.1107,4.1104,4.111,4.1113,4.1113,4.111,4.1113,4.1112,4.1108,4.11,4.1099,4.1099,4.1119,4.1099,4.1431,4.1957,4.1976,4.1695,4.1232,4.1148,4.146,4.1909,4.1983,4.2313,4.2802,4.29,4.288,4.2861,4.2841,4.2901,4.2959,4.3114,4.3252,4.3269,4.3493,4.3604,4.3602,4.3609,4.3619,4.3619,4.362,4.3893,4.4423,4.4501,4.4736,4.5299,4.4832,4.4501,4.4501,4.5321,4.5925,4.6139,4.6197,4.6197,4.6197,4.6197,4.6197,4.6197,4.6197,4.6197,4.6197,4.6197,4.6197,4.6197,4.6197,4.6197,4.6197,4.6197,4.6197,4.6197,4.6197,4.6197,4.6197,4.6197,4.6197,4.6197,4.6197,4.6197,4.6197,4.6197,4.6197,4.6178,4.5827,4.573,4.573,4.5457,4.5144,4.4656,4.4501,4.4168,4.3776,4.3659,4.37,4.34,4.3133,4.2766,4.2091,4.1635,4.1213,4.1158,4.11,4.1102,4.1106,4.111,4.1425,4.2089,4.2572,4.3,4.379,4.4223,4.4637,4.5072,4.5057,4.482,4.1105,4.1112,4.1111,4.1113,4.1111,4.1111,4.1104,4.1149,4.146,4.1576,4.1635,4.1948,4.185,4.1714,4.191,4.2162,4.2454,4.2728,4.2584,4.2124,4.2059,4.239,4.2858,4.2894,4.3128,4.3578,4.3695,4.3695,4.3695,4.3695,4.3695,4.3714,4.3987,4.4142,4.4201,4.4445,4.4557,4.4556,4.4604,4.4577,4.4578,4.4577,4.4832,4.53,4.5375,4.5646,4.6118,4.566,4.5381,4.5457,4.5944,4.6197,4.6197,4.6197,4.6197,4.6197,4.6197,4.6197,4.6197,4.6197,4.6197,4.6197,4.6197,4.6197,4.6197,4.6197,4.6197,4.6197,4.6197,4.6197,4.6197,4.6197,4.6197,4.6197,4.6197,4.6197,4.6197,4.6197,4.6197,4.6197,4.6197,4.6197,4.6197,4.6197,4.6197,4.6197,4.6197,4.6119,4.5537,4.5379,4.4949,4.4674,4.4811,4.4635,4.4187,4.3916,4.3682,4.2926,4.2167,4.1611,4.1247,4.1149,4.1112,4.1108,4.1117,4.1517,4.2108,4.2284,4.2664,4.368,4.4554,4.4901,4.5137,4.5659,4.5598,4.1245,4.1188,4.1191,4.123,4.1249,4.1257,4.1286,4.1362,4.2103,4.2473,4.265,4.3158,4.3138,4.2747,4.3138,4.3178,4.2825,4.3411,4.386,4.3837,4.3831,4.3865,4.3786,4.3918,4.4071,4.407,4.4051,4.3991,4.4149,4.413,4.3853,4.4129,4.4714,4.4983,4.5103,4.5781,4.5994,4.5955,4.603,4.6008,4.6028,4.6068,4.6088,4.6125,4.6096,4.6134,4.6159,4.6104,4.6125,4.618,4.6158,4.6197,4.6197,4.6197,4.6197,4.6197,4.6197,4.6197,4.6197,4.6197,4.6197,4.6197,4.6197,4.6197,4.6197,4.6197,4.6197,4.6197,4.6197,4.6197,4.6197,4.6197,4.6197,4.6197,4.6197,4.6197,4.6197,4.6197,4.6197,4.6197,4.6197,4.6197,4.6197,4.6197,4.6197,4.6197,4.6197,4.6119,4.61,4.5983,4.6139,4.5983,4.5689,4.5496,4.5007,4.4929,4.4656,4.3884,4.3082,4.2422,4.1568,4.1294,4.1122,4.1103,4.1158,4.1603,4.1846,4.1951,4.2343,4.3137,4.3889,4.4564,4.503,4.5363,4.5696,4.2636,4.208,4.2057,4.2056,4.2055,4.2047,4.2045,4.2162,4.2982,4.3373,4.3431,4.3568,4.3666,4.3412,4.3626,4.3879,4.421,4.4524,4.507,4.5559,4.5616,4.5203,4.4929,4.5318,4.5571,4.5532,4.5434,4.561,4.561,4.5492,4.5532,4.563,4.5707,4.5902,4.6,4.6147,4.6281,4.626,4.6231,4.6209,4.6209,4.6209,4.6206,4.6206,4.6203,4.6203,4.6207,4.6201,4.6203,4.6199,4.6197,4.6197,4.6199,4.6197,4.6197,4.6197,4.6197,4.6197,4.6197,4.6197,4.6197,4.6197,4.6199,4.6197,4.6197,4.6197,4.6197,4.6197,4.6197,4.6199,4.6199,4.6197,4.6197,4.6197,4.6197,4.6197,4.6197,4.6197,4.6197,4.6197,4.6197,4.6197,4.6197,4.6197,4.6197,4.6197,4.6197,4.6197,4.6197,4.6197,4.6197,4.6197,4.6042,4.6022,4.5926,4.5887,4.5554,4.4834,4.4137,4.3536,4.2485,4.1548,4.1304,4.1103,4.1117,4.1428,4.1371,4.136,4.2004,4.2578,4.2968,4.3512,4.408,4.4503,4.4933,4.3406,4.2942,4.2942,4.2942,4.2942,4.2962,4.2942,4.3118,4.384,4.425,4.4328,4.466,4.4582,4.4309,4.4641,4.4817,4.5031,4.5382,4.5832,4.6164,4.6242,4.5968,4.5753,4.6125,4.6301,4.6301,4.6301,4.6262,4.6241,4.6301,4.6301,4.6241,4.6301,4.6301,4.624,4.6296,4.6292,4.6291,4.6266,4.6243,4.6243,4.6243,4.6243,4.6242,4.6239,4.6234,4.6209,4.6232,4.6224,4.6204,4.6213,4.6209,4.6209,4.6203,4.6197,4.6197,4.6197,4.6197,4.6197,4.6197,4.6197,4.6199,4.6204,4.6208,4.6211,4.6214,4.6201,4.6201,4.6201,4.6196,4.6209,4.6203,4.6197,4.6197,4.6197,4.6197,4.6197,4.6197,4.6197,4.6197,4.6197,4.6197,4.6197,4.6197,4.6197,4.6197,4.6197,4.6197,4.6197,4.6197,4.6197,4.6197,4.6197,4.6139,4.6119,4.6081,4.6061,4.5438,4.492,4.4373,4.3239,4.2031,4.1595,4.1372,4.1219,4.1108,4.11,4.111,4.1361,4.1827,4.2085,4.2498,4.3124,4.3953,4.4324,4.3919,4.384,4.384,4.3822,4.3841,4.384,4.3841,4.3997,4.4758,4.5129,4.5265,4.5949,4.5695,4.5187,4.5715,4.5852,4.5246,4.5891,4.6145,4.6301,4.6301,4.6203,4.6184,4.6223,4.6301,4.6301,4.6301,4.6301,4.6301,4.6301,4.6301,4.6301,4.6301,4.6301,4.6301,4.63,4.6301,4.63,4.6278,4.6278,4.6278,4.6278,4.6278,4.6277,4.6291,4.6263,4.6259,4.6261,4.6261,4.6212,4.6216,4.6207,4.6204,4.6211,4.6206,4.6208,4.6209,4.6208,4.6206,4.6209,4.6206,4.6209,4.6201,4.6206,4.6209,4.6196,4.6202,4.6201,4.6205,4.6212,4.62,4.6208,4.6201,4.6199,4.6197,4.6197,4.6197,4.6197,4.6197,4.6197,4.6197,4.6197,4.6197,4.6197,4.6197,4.6197,4.6197,4.6197,4.6197,4.6197,4.6197,4.6197,4.6197,4.6197,4.6197,4.6197,4.6178,4.5946,4.5491,4.4872,4.3757,4.2745,4.2131,4.1769,4.1699,4.1435,4.1112,4.112,4.1182,4.1284,4.1666,4.1975,4.2385,4.3377,4.4004,4.5343,4.4718,4.4718,4.4718,4.4718,4.4718,4.4718,4.4797,4.5636,4.593,4.6047,4.6242,4.6184,4.6008,4.6184,4.6184,4.5969,4.6203,4.6301,4.6301,4.6301,4.6301,4.6301,4.6301,4.6301,4.6301,4.6301,4.6301,4.6301,4.6301,4.6301,4.6301,4.6301,4.6301,4.6301,4.6301,4.6301,4.6301,4.6301,4.6301,4.6301,4.6301,4.6301,4.6301,4.6298,4.6297,4.6295,4.6296,4.6296,4.6271,4.6237,4.6203,4.6221,4.6198,4.6215,4.6213,4.6195,4.6196,4.6198,4.6195,4.6198,4.6215,4.6219,4.6203,4.6202,4.6206,4.6209,4.6206,4.6196,4.6209,4.6196,4.6196,4.6211,4.6204,4.6199,4.6197,4.6197,4.6197,4.6197,4.6197,4.6197,4.6197,4.6197,4.6197,4.6197,4.6197,4.6197,4.6197,4.6197,4.6197,4.6197,4.6197,4.6197,4.6197,4.6197,4.6199,4.6201,4.6206,4.5889,4.5589,4.4473,4.3758,4.3262,4.2703,4.2222,4.1897,4.1531,4.124,4.1322,4.1323,4.1324,4.1655,4.2165,4.3014,4.3662,4.6047,4.5617,4.5617,4.5617,4.5617,4.5617,4.5597,4.5675,4.6066,4.6301,4.6301,4.6301,4.6301,4.6301,4.6301,4.6301,4.6301,4.6301,4.6301,4.6301,4.6301,4.6301,4.6301,4.6301,4.6301,4.6301,4.6301,4.6301,4.6301,4.6301,4.6301,4.6301,4.6301,4.6301,4.6301,4.6301,4.6301,4.6301,4.6301,4.6301,4.6301,4.6301,4.6301,4.6301,4.6301,4.6301,4.6301,4.6301,4.6301,4.6298,4.6271,4.6242,4.6236,4.621,4.6207,4.6206,4.6206,4.6206,4.6206,4.6206,4.6206,4.6206,4.6232,4.6254,4.6258,4.626,4.6245,4.6244,4.6259,4.6249,4.6234,4.6203,4.62,4.6213,4.6203,4.6197,4.6197,4.6197,4.6197,4.6197,4.6197,4.6197,4.6197,4.6197,4.6197,4.6197,4.6197,4.6197,4.6197,4.6197,4.6197,4.6197,4.6197,4.6197,4.6197,4.6199,4.6204,4.6214,4.6113,4.5969,4.5508,4.4969,4.4509,4.379,4.299,4.2527,4.216,4.1849,4.1596,4.1421,4.144,4.1596,4.2145,4.3282,4.3712,4.6301,4.6301,4.6301,4.6301,4.6301,4.6262,4.6242,4.6262,4.6301,4.6301,4.6301,4.6301,4.6301,4.6301,4.6301,4.6301,4.6301,4.6301,4.6301,4.6301,4.6301,4.6301,4.6301,4.6301,4.6301,4.6301,4.6301,4.6301,4.6301,4.6301,4.6301,4.6301,4.6301,4.6301,4.6301,4.6301,4.6301,4.6301,4.6301,4.6301,4.6301,4.6301,4.6301,4.6301,4.6301,4.6301,4.6301,4.6301,4.6301,4.6301,4.6301,4.6296,4.6288,4.626,4.6214,4.6214,4.6236,4.6217,4.6234,4.6207,4.6178,4.6202,4.6196,4.622,4.6219,4.6198,4.6181,4.6188,4.6201,4.6194,4.6237,4.6164,4.6126,4.6125,4.6158,4.6165,4.6164,4.6189,4.6197,4.6197,4.6197,4.6197,4.6197,4.6197,4.6197,4.6197,4.6197,4.6197,4.6197,4.6197,4.6197,4.6197,4.6197,4.6568,4.6646,4.6753,4.6698,4.6885,4.6744,4.672,4.6633,4.6268,4.5707,4.4516,4.3756,4.3351,4.3117,4.3039,4.263,4.1927,4.2396,4.3391,4.3743,4.3801,4.4172,4.6301,4.6301,4.6301,4.6301,4.6301,4.6301,4.6301,4.6301,4.6301,4.6301,4.6301,4.6301,4.6301,4.6301,4.6301,4.6301,4.6301,4.6301,4.6301,4.6301,4.6301,4.6301,4.6301,4.6301,4.6301,4.6301,4.6301,4.6301,4.6301,4.6301,4.6301,4.6301,4.6301,4.6301,4.6301,4.6301,4.6301,4.6301,4.6301,4.6301,4.6301,4.6301,4.6301,4.6301,4.6301,4.6301,4.6301,4.6301,4.6301,4.6301,4.6301,4.6299,4.6295,4.6274,4.6251,4.6273,4.6268,4.6244,4.6243,4.6173,4.6133,4.6095,4.6043,4.6004,4.598,4.5983,4.6009,4.6,4.5992,4.5988,4.5966,4.6,4.5925,4.5914,4.5976,4.6036,4.6058,4.6126,4.619,4.6199,4.6199,4.6197,4.6197,4.6197,4.6197,4.6197,4.6197,4.6197,4.6197,4.6197,4.6197,4.6197,4.6197,4.6724,4.7191,4.7361,4.7486,4.7965,4.8019,4.7995,4.7868,4.7601,4.6882,4.5867,4.4969,4.4405,4.4269,4.421,4.4153,4.384,4.4641,4.5539,4.5539,4.5597,4.6279,4.6301,4.6301,4.6301,4.6301,4.6301,4.6301,4.6301,4.6301,4.6301,4.6301,4.6301,4.6301,4.6301,4.6301,4.6301,4.6301,4.6301,4.6301,4.6301,4.6301,4.6301,4.6301,4.6301,4.6301,4.6301,4.6301,4.6301,4.6301,4.6301,4.6301,4.6301,4.6301,4.6301,4.6301,4.6301,4.6301,4.6301,4.6301,4.6301,4.6301,4.6301,4.6301,4.6301,4.6301,4.6301,4.6301,4.6301,4.6301,4.6301,4.6301,4.6301,4.6301,4.6276,4.6243,4.6237,4.6271,4.6239,4.6206,4.6177,4.6066,4.6018,4.5989,4.5923,4.5905,4.5902,4.591,4.5891,4.5897,4.5902,4.5891,4.5914,4.5892,4.588,4.5868,4.5914,4.5969,4.6022,4.6037,4.61,4.6185,4.6192,4.619,4.6197,4.6197,4.6197,4.6197,4.6199,4.6199,4.6201,4.6201,4.622,4.6452,4.6591,4.7313,4.7862,4.8149,4.8395,4.8872,4.9118,4.9113,4.8887,4.8522,4.8134,4.747,4.6612,4.5635,4.55,4.548,4.5617,4.5831,4.6397,4.6904,4.7138,4.749,4.8075,4.6301,4.6301,4.6301,4.6301,4.6301,4.6301,4.6301,4.6301,4.6301,4.6301,4.6301,4.6301,4.6301,4.6301,4.6301,4.6301,4.6301,4.6301,4.6301,4.6301,4.6301,4.6301,4.6301,4.6301,4.6301,4.6301,4.6301,4.6301,4.6301,4.6301,4.6301,4.6301,4.6301,4.6301,4.6301,4.6301,4.6301,4.6301,4.6301,4.6301,4.6301,4.6301,4.6301,4.6301,4.6301,4.6301,4.6301,4.6301,4.6301,4.6278,4.6273,4.6247,4.6242,4.6118,4.6107,4.6198,4.6107,4.6064,4.6017,4.5952,4.5908,4.5906,4.5861,4.5846,4.5817,4.5806,4.5828,4.5832,4.582,4.5825,4.5812,4.5851,4.5812,4.5803,4.5822,4.5883,4.5925,4.5975,4.6007,4.6078,4.6138,4.6179,4.6181,4.6208,4.6209,4.6213,4.6214,4.6213,4.6213,4.6208,4.6305,4.6691,4.714,4.7963,4.8555,4.9018,4.9361,4.9821,4.9949,4.9961,4.9653,4.9285,4.8954,4.8662,4.7822,4.6963,4.6866,4.7002,4.7431,4.7802,4.8056,4.8446,4.8934,4.9169,4.952,4.6301,4.6301,4.6301,4.6301,4.6301,4.6301,4.6301,4.6301,4.6301,4.6301,4.6301,4.6301,4.6301,4.6301,4.6301,4.6301,4.6301,4.6301,4.6301,4.6301,4.6301,4.6301,4.6301,4.6301,4.6301,4.6301,4.6301,4.6301,4.6301,4.6301,4.6301,4.6301,4.6301,4.6301,4.6301,4.6301,4.6301,4.6301,4.6301,4.6301,4.6301,4.6301,4.6301,4.6301,4.6301,4.6301,4.6279,4.6278,4.6275,4.6273,4.6178,4.6135,4.6102,4.5994,4.5935,4.5935,4.5947,4.592,4.5921,4.585,4.5811,4.5791,4.5738,4.5664,4.5673,4.5657,4.5677,4.5654,4.566,4.5669,4.5665,4.564,4.5622,4.5648,4.5696,4.5749,4.5793,4.5835,4.588,4.5936,4.5985,4.6087,4.6136,4.6174,4.6201,4.6206,4.6209,4.6204,4.62,4.619,4.6529,4.6957,4.7524,4.8344,4.9231,4.9693,5.0071,5.059,5.064,5.0669,5.0436,5.0144,5.0027,4.9598,4.8836,4.8525,4.8545,4.8837,4.9383,4.9598,4.9637,5.0222,5.0965,5.1043,5.0731,4.6301,4.6301,4.6301,4.6301,4.6301,4.6301,4.6301,4.6301,4.6301,4.6301,4.6301,4.6301,4.6301,4.6301,4.6301,4.6301,4.6301,4.6301,4.6301,4.6301,4.6301,4.6301,4.6301,4.6301,4.6301,4.6301,4.6301,4.6301,4.6301,4.6301,4.6301,4.6301,4.6301,4.6301,4.6301,4.6301,4.6301,4.6301,4.6301,4.6301,4.6301,4.6301,4.6301,4.6301,4.6301,4.6299,4.6275,4.6214,4.6184,4.6171,4.6057,4.5972,4.5966,4.5914,4.5857,4.5831,4.5756,4.5756,4.5806,4.5753,4.5723,4.5688,4.5642,4.5616,4.5594,4.5594,4.5594,4.5599,4.5594,4.5594,4.5594,4.5594,4.5581,4.5584,4.5607,4.5677,4.5708,4.5704,4.5742,4.5798,4.5845,4.5927,4.5997,4.6017,4.6067,4.6135,4.6126,4.6135,4.6153,4.6171,4.6656,4.7302,4.7944,4.8645,4.9621,5.0367,5.0546,5.0925,5.0995,5.1041,5.1159,5.1022,5.0769,5.0749,5.0399,5.0223,5.0204,5.0048,5.0027,5.0535,5.112,5.1277,5.1394,5.1355,5.1121,4.6301,4.6301,4.6301,4.6301,4.6301,4.6301,4.6301,4.6301,4.6301,4.6301,4.6301,4.6301,4.6301,4.6301,4.6301,4.6301,4.6301,4.6301,4.6301,4.6301,4.6301,4.6301,4.6301,4.6301,4.6301,4.6301,4.6301,4.6301,4.6301,4.6301,4.6301,4.6301,4.6301,4.6301,4.6301,4.6301,4.6301,4.6301,4.6301,4.6301,4.6301,4.6301,4.6301,4.6278,4.6273,4.6266,4.6219,4.6112,4.6053,4.6037,4.5939,4.5881,4.5861,4.5799,4.5757,4.5731,4.5676,4.5648,4.5692,4.5664,4.5607,4.5594,4.5594,4.5594,4.5594,4.5594,4.5594,4.5594,4.5594,4.5594,4.5594,4.5594,4.559,4.559,4.5603,4.5668,4.5704,4.568,4.5656,4.5688,4.5723,4.5734,4.5784,4.5821,4.5905,4.6022,4.6067,4.6074,4.6074,4.6089,4.6558,4.7182,4.7626,4.8301,4.9192,5.0114,5.0604,5.0919,5.0989,5.1019,5.0863,5.1139,5.1199,5.1297,5.1277,5.1219,5.0789,5.0652,5.0574,5.0964,5.1277,5.1336,5.1394,5.1394,5.1355,4.6301,4.6301,4.6301,4.6301,4.6301,4.6301,4.6301,4.6301,4.6301,4.6301,4.6301,4.6301,4.6301,4.6301,4.6301,4.6301,4.6301,4.6301,4.6301,4.6301,4.6301,4.6301,4.6301,4.6301,4.6301,4.6301,4.6301,4.6301,4.6301,4.6301,4.6301,4.6301,4.6301,4.6301,4.6301,4.6301,4.6301,4.6301,4.6301,4.6301,4.6301,4.6301,4.6299,4.6249,4.6181,4.6126,4.6103,4.6007,4.5932,4.5927,4.5838,4.5805,4.5773,4.5696,4.5662,4.5642,4.5629,4.5678,4.5798,4.5706,4.5622,4.5614,4.5686,4.5782,4.584,4.5686,4.5629,4.5671,4.5744,4.5691,4.5652,4.5594,4.5594,4.5594,4.5594,4.5616,4.5639,4.5627,4.562,4.562,4.5646,4.5664,4.5648,4.5712,4.5796,4.5916,4.5981,4.5991,4.5978,4.6024,4.6372,4.6826,4.7136,4.7695,4.8358,4.9017,4.9533,4.9797,4.991,5.0037,5.0115,5.0528,5.0774,5.0965,5.0809,5.1102,5.1375,5.1081,5.0983,5.1219,5.1394,5.1394,5.1394,5.1394,5.1316,4.6301,4.6301,4.6301,4.6301,4.6301,4.6301,4.6301,4.6301,4.6301,4.6301,4.6301,4.6301,4.6301,4.6301,4.6301,4.6301,4.6301,4.6301,4.6301,4.6301,4.6301,4.6301,4.6301,4.6301,4.6301,4.6301,4.6301,4.6301,4.6301,4.6301,4.6301,4.6301,4.6301,4.6301,4.6301,4.6301,4.6301,4.6301,4.6301,4.6301,4.6301,4.6299,4.627,4.6155,4.6144,4.6051,4.598,4.5894,4.5847,4.5835,4.5781,4.5831,4.5865,4.5783,4.5772,4.5748,4.5768,4.5975,4.6206,4.6033,4.5821,4.6336,4.6413,4.6394,4.6398,4.6394,4.6033,4.5975,4.6052,4.6033,4.5633,4.5594,4.5594,4.5594,4.5594,4.5594,4.5594,4.5594,4.5594,4.5607,4.5603,4.5616,4.5612,4.5612,4.5708,4.5818,4.5871,4.5886,4.588,4.5866,4.6151,4.6413,4.6707,4.6938,4.7587,4.8044,4.8482,4.8639,4.8794,4.9028,4.9196,4.9279,4.955,4.9889,5.0279,5.0434,5.0707,5.112,5.1297,5.1355,5.1394,5.1394,5.1394,5.1316,5.1023,4.6301,4.6301,4.6301,4.6301,4.6301,4.6301,4.6301,4.6301,4.6301,4.6301,4.6301,4.6301,4.6301,4.6301,4.6301,4.6301,4.6301,4.6301,4.6301,4.6301,4.6301,4.6301,4.6301,4.6301,4.6301,4.6301,4.6301,4.6301,4.6301,4.6301,4.6301,4.6301,4.6301,4.6301,4.6301,4.6301,4.6301,4.6301,4.6301,4.6271,4.6247,4.6239,4.6174,4.6051,4.6028,4.5961,4.5987,4.6053,4.6225,4.6279,4.633,4.6396,4.6383,4.636,4.634,4.634,4.6398,4.6644,4.6874,4.6855,4.6624,4.7158,4.7259,4.7255,4.7235,4.7081,4.6509,4.6206,4.6374,4.6278,4.5671,4.5594,4.5594,4.5594,4.5594,4.5594,4.5594,4.5594,4.5594,4.5594,4.5594,4.5594,4.5594,4.5594,4.5627,4.5708,4.5726,4.5749,4.5758,4.5729,4.5783,4.6012,4.6239,4.6459,4.672,4.7023,4.7281,4.7401,4.7608,4.8047,4.8217,4.8303,4.8612,4.9157,4.9492,4.9661,4.9961,5.0318,5.0847,5.1355,5.1336,5.1277,5.0847,5.0691,5.032,4.6301,4.6301,4.6301,4.6301,4.6301,4.6301,4.6301,4.6301,4.6301,4.6301,4.6301,4.6301,4.6301,4.6301,4.6301,4.6301,4.6301,4.6301,4.6301,4.6301,4.6301,4.6301,4.6301,4.6301,4.6301,4.6301,4.6301,4.6301,4.6301,4.6301,4.6301,4.6301,4.6301,4.6301,4.6301,4.6301,4.6301,4.6301,4.6301,4.624,4.6147,4.6136,4.6057,4.5954,4.6065,4.6084,4.6134,4.6653,4.6868,4.6938,4.7387,4.7567,4.762,4.7658,4.7697,4.7735,4.7793,4.7928,4.8043,4.8024,4.812,4.8082,4.8105,4.8105,4.7928,4.7543,4.7101,4.6932,4.6663,4.6167,4.5787,4.5748,4.5879,4.5975,4.6052,4.5936,4.5994,4.5898,4.5956,4.5667,4.5594,4.5594,4.5594,4.5594,4.5594,4.5616,4.5603,4.5605,4.5636,4.5648,4.5661,4.5742,4.5927,4.5978,4.6124,4.5988,4.6069,4.6196,4.6484,4.6983,4.7362,4.7564,4.7952,4.845,4.8624,4.8686,4.9077,4.9496,5.0022,5.0528,5.1061,5.1022,5.0535,5.0026,4.9637,4.6301,4.6301,4.6301,4.6301,4.6301,4.6301,4.6301,4.6301,4.6301,4.6301,4.6301,4.6301,4.6301,4.6301,4.6301,4.6301,4.6301,4.6301,4.6301,4.6301,4.6301,4.6301,4.6301,4.6301,4.6301,4.6301,4.6301,4.6301,4.6301,4.6301,4.6301,4.6301,4.6379,4.6301,4.6301,4.6301,4.6301,4.6301,4.6278,4.6243,4.6128,4.6087,4.6028,4.5909,4.6313,4.6518,4.6571,4.7282,4.7668,4.7716,4.8202,4.8274,4.8274,4.8274,4.8235,4.8178,4.8159,4.8409,4.8933,4.9317,4.951,4.9221,4.8971,4.8971,4.8875,4.8759,4.8317,4.7928,4.774,4.7437,4.7451,4.7317,4.7355,4.7394,4.7336,4.699,4.6831,4.662,4.6447,4.5879,4.5594,4.5614,4.5633,4.5594,4.5594,4.5594,4.5594,4.5594,4.561,4.561,4.561,4.561,4.5687,4.565,4.5629,4.5684,4.5708,4.5881,4.5935,4.6055,4.6406,4.6807,4.6851,4.7087,4.7415,4.7745,4.8191,4.8644,4.9086,4.9584,5.0,5.0104,4.9559,4.9129,4.8856,4.6301,4.6301,4.6301,4.6301,4.6301,4.6301,4.6301,4.6301,4.6301,4.6301,4.6301,4.6301,4.6301,4.6301,4.6301,4.6301,4.6301,4.6301,4.6301,4.6301,4.6301,4.6301,4.6301,4.6301,4.6301,4.6301,4.6301,4.6301,4.6301,4.6301,4.6301,4.6359,4.6573,4.6574,4.6453,4.6271,4.6215,4.6188,4.6153,4.608,4.6002,4.5993,4.6086,4.6292,4.6657,4.7045,4.7445,4.7966,4.8548,4.8586,4.8759,4.8933,4.8971,4.899,4.899,4.9009,4.9067,4.9356,4.9899,5.0188,5.0188,4.9913,4.9856,4.9841,4.9726,4.9433,4.9067,4.8836,4.899,4.8644,4.8279,4.8197,4.8235,4.824,4.8105,4.7735,4.7562,4.7351,4.7024,4.6398,4.5975,4.5917,4.5652,4.5614,4.5594,4.5594,4.5594,4.5594,4.5594,4.5594,4.5594,4.5594,4.5594,4.5594,4.5594,4.5616,4.5625,4.5599,4.5625,4.5658,4.5737,4.614,4.5944,4.5844,4.6395,4.6898,4.7329,4.778,4.8194,4.8489,4.8746,4.8694,4.8426,4.8251,4.8075,4.6301,4.6301,4.6301,4.6301,4.6301,4.6301,4.6301,4.6301,4.6301,4.6301,4.6301,4.6301,4.6301,4.6301,4.6301,4.6301,4.6301,4.6301,4.6301,4.6301,4.6301,4.6301,4.6301,4.6301,4.6301,4.6301,4.6301,4.6301,4.6301,4.6554,4.6535,4.673,4.7354,4.7231,4.6906,4.6521,4.6342,4.618,4.6268,4.6226,4.6195,4.6225,4.6571,4.6906,4.7276,4.7695,4.8221,4.8913,4.9317,4.9649,5.0072,5.0399,5.0611,5.0668,5.0668,5.0616,5.0515,5.0495,5.0515,5.0654,5.0649,5.0457,5.0534,5.0649,5.0457,4.9995,4.9687,4.938,4.9303,4.8817,4.8432,4.849,4.8567,4.8548,4.8548,4.8355,4.8235,4.7985,4.7678,4.724,4.6836,4.649,4.5782,4.5594,4.5594,4.5594,4.5594,4.5594,4.5594,4.5594,4.5594,4.5594,4.5594,4.5594,4.5594,4.5594,4.5594,4.5594,4.5594,4.5616,4.562,4.5614,4.5688,4.5745,4.5766,4.6115,4.6634,4.6975,4.7248,4.749,4.7638,4.7654,4.7503,4.7509,4.7334,4.6301,4.6301,4.6301,4.6301,4.6301,4.6301,4.6301,4.6301,4.6301,4.6301,4.6301,4.6301,4.6301,4.6301,4.6301,4.6301,4.6301,4.6301,4.6301,4.6301,4.6301,4.6301,4.6301,4.6301,4.6301,4.632,4.632,4.6418,4.6515,4.6807,4.7588,4.8135,4.8245,4.8133,4.7756,4.7278,4.6761,4.6416,4.6595,4.6642,4.6839,4.7109,4.7451,4.7766,4.824,4.8644,4.9125,4.9803,5.0168,5.038,5.0534,5.0688,5.0688,5.0688,5.0688,5.0688,5.0668,5.0668,5.0688,5.0688,5.0688,5.0688,5.0688,5.0688,5.0592,5.0457,5.0226,4.9976,4.9861,4.9572,4.9471,4.949,4.949,4.949,4.9452,4.9336,4.9202,4.8933,4.8586,4.7932,4.7524,4.6663,4.5956,4.5594,4.5594,4.5594,4.5594,4.5594,4.5594,4.5594,4.5594,4.5594,4.5594,4.5594,4.5594,4.5594,4.5594,4.5594,4.5594,4.5594,4.5603,4.5616,4.5629,4.5643,4.5692,4.5807,4.6031,4.6343,4.6614,4.6435,4.652,4.6584,4.6639,4.6782,4.6845,4.6301,4.6301,4.6301,4.6301,4.6301,4.6301,4.6301,4.6301,4.6301,4.6301,4.6301,4.6301,4.6301,4.6301,4.6301,4.6301,4.6301,4.6301,4.6301,4.6301,4.634,4.6301,4.6301,4.632,4.6301,4.6378,4.6651,4.6944,4.7061,4.7605,4.8385,4.8629,4.8964,4.8922,4.8593,4.8247,4.7811,4.733,4.7101,4.7231,4.7596,4.802,4.8229,4.8715,4.9264,4.9495,4.9899,5.0534,5.0649,5.0688,5.0688,5.0688,5.0688,5.0688,5.0688,5.0688,5.0688,5.0688,5.0688,5.0688,5.0688,5.0688,5.0688,5.0688,5.0688,5.0611,5.0572,5.0515,5.0592,5.0611,5.0649,5.0668,5.0649,5.063,5.0515,5.0404,5.0188,4.9957,4.9336,4.8625,4.7817,4.6894,4.6259,4.5879,4.5594,4.5594,4.5594,4.5594,4.5594,4.5594,4.5594,4.5594,4.5594,4.5594,4.5594,4.5594,4.5594,4.5594,4.5594,4.5594,4.5594,4.5599,4.5612,4.5607,4.5607,4.5807,4.6059,4.5896,4.5996,4.5927,4.602,4.6183,4.6368,4.6445,4.645,4.6301,4.6301,4.6301,4.6301,4.6301,4.6301,4.6301,4.6301,4.6301,4.6301,4.6301,4.6301,4.6301,4.6301,4.6301,4.6301,4.6301,4.6301,4.6301,4.634,4.6573,4.6534,4.6359,4.6397,4.6632,4.6768,4.708,4.7568,4.8015,4.8532,4.8932,4.892,4.9613,4.9719,4.9234,4.9168,4.8884,4.8624,4.7993,4.7769,4.817,4.8408,4.8644,4.936,4.9668,4.9841,5.0418,5.0688,5.0688,5.0688,5.0688,5.0688,5.0688,5.0688,5.0688,5.0688,5.0688,5.0688,5.0688,5.0688,5.0688,5.0688,5.0688,5.0688,5.0688,5.0688,5.0688,5.0688,5.0688,5.0688,5.0688,5.0688,5.0688,5.0688,5.063,5.0572,5.0476,5.0245,4.988,4.9187,4.8452,4.7567,4.6971,4.6605,4.6124,4.5879,4.5594,4.5594,4.5879,4.5879,4.5763,4.5748,4.5633,4.5633,4.5594,4.5594,4.5594,4.5594,4.5671,4.5594,4.5594,4.5614,4.5633,4.584,4.6071,4.6052,4.6151,4.6302,4.6379,4.6141,4.6183,4.6068,4.614,4.6338,4.6579,4.6301,4.6301,4.6301,4.6301,4.6301,4.6301,4.6301,4.6301,4.6301,4.6301,4.6301,4.6301,4.6301,4.6301,4.6301,4.6301,4.6301,4.6301,4.6301,4.6534,4.6788,4.6729,4.6593,4.6924,4.7178,4.7333,4.7665,4.8365,4.9195,4.9639,4.9976,5.0466,5.0729,5.0343,5.0056,5.002,4.9663,4.9716,4.9195,4.8759,4.9033,4.9726,5.0265,5.0361,5.0399,5.0361,5.0688,5.0688,5.0688,5.0688,5.0688,5.0688,5.0688,5.0688,5.0688,5.0688,5.0688,5.0688,5.0688,5.0688,5.0688,5.0688,5.0688,5.0688,5.0688,5.0688,5.0688,5.0688,5.0688,5.0688,5.0688,5.0688,5.0688,5.0688,5.0688,5.0688,5.0688,5.0495,5.0284,4.9726,4.9048,4.8432,4.7793,4.7255,4.6774,4.6297,4.5802,4.5787,4.6432,4.6624,4.6302,4.6167,4.5768,4.5691,4.5768,4.5956,4.6148,4.6033,4.6033,4.5879,4.571,4.5956,4.6263,4.6471,4.6663,4.6721,4.6971,4.745,4.7392,4.6864,4.6665,4.6687,4.6578,4.67,4.7014,4.6301,4.6301,4.6301,4.6301,4.6301,4.6301,4.6301,4.6301,4.6301,4.6301,4.6301,4.6301,4.6301,4.6301,4.6301,4.6301,4.6301,4.6301,4.6301,4.6515,4.6807,4.6944,4.7099,4.7372,4.7802,4.8017,4.8619,4.9414,5.0347,5.0547,5.0799,5.1053,5.0982,5.0893,5.0748,5.0347,5.0254,5.0625,5.013,4.9976,4.9918,5.0399,5.0688,5.0688,5.0688,5.0688,5.0688,5.0688,5.0688,5.0688,5.0688,5.0688,5.0688,5.0688,5.0688,5.0688,5.0688,5.0688,5.0688,5.0688,5.0688,5.0688,5.0688,5.0688,5.0688,5.0688,5.0688,5.0688,5.0688,5.0688,5.0688,5.0688,5.0688,5.0688,5.0688,5.0688,5.0688,5.0611,5.0495,5.0284,4.9649,4.9067,4.8471,4.7947,4.7543,4.7389,4.6797,4.6687,4.7182,4.7485,4.7124,4.6956,4.6783,4.6706,4.6971,4.7028,4.7028,4.6817,4.6533,4.6759,4.6913,4.6855,4.6932,4.724,4.7466,4.7543,4.787,4.8312,4.812,4.7554,4.7437,4.7414,4.7267,4.7206,4.7742,4.6301,4.6301,4.6301,4.6301,4.6301,4.6301,4.6301,4.6301,4.6301,4.6301,4.6301,4.6301,4.6301,4.6301,4.6301,4.6301,4.6301,4.6301,4.6301,4.6359,4.6554,4.6788,4.7198,4.7685,4.8309,4.9045,4.9702,5.0319,5.1041,5.1001,5.0889,5.0909,5.0862,5.0804,5.0721,5.0673,5.0688,5.0688,5.0534,5.0611,5.0668,5.0688,5.0688,5.0688,5.0688,5.0688,5.0688,5.0688,5.0688,5.0688,5.0688,5.0688,5.0688,5.0688,5.0688,5.0688,5.0688,5.0688,5.0688,5.0688,5.0688,5.0688,5.0688,5.0688,5.0688,5.0688,5.0688,5.0688,5.0688,5.0688,5.0688,5.0688,5.0688,5.0688,5.0688,5.0688,5.0688,5.0688,5.0649,5.0611,5.0188,4.9625,4.924,4.8721,4.8428,4.8293,4.8197,4.8216,4.8259,4.8375,4.8279,4.8399,4.8495,4.8432,4.8125,4.7932,4.7759,4.7601,4.7413,4.7812,4.8005,4.7639,4.7644,4.8125,4.8312,4.8428,4.862,4.8971,4.8644,4.8332,4.8277,4.8219,4.7929,4.8014,4.8676,4.6301,4.6301,4.6301,4.6301,4.6301,4.6301,4.6301,4.6301,4.6301,4.6301,4.6301,4.6301,4.6301,4.6301,4.6301,4.6301,4.6301,4.6301,4.6301,4.634,4.6749,4.6827,4.7292,4.8379,4.907,4.9797,5.0472,5.0961,5.114,5.102,5.0949,5.0879,5.0757,5.0721,5.0721,5.0688,5.0688,5.0688,5.0688,5.0688,5.0688,5.0688,5.0688,5.0688,5.0688,5.0688,5.0688,5.0688,5.0688,5.0688,5.0688,5.0688,5.0688,5.0688,5.0688,5.0688,5.0688,5.0688,5.0688,5.0688,5.0688,5.0688,5.0688,5.0688,5.0688,5.0688,5.0688,5.0688,5.0688,5.0688,5.0688,5.0688,5.0688,5.0688,5.0688,5.0688,5.0688,5.0688,5.0668,5.0668,5.0534,5.0284,5.0207,4.9707,4.924,4.9029,4.8639,4.8702,4.9106,4.9245,4.9341,4.9572,4.9841,4.9144,4.8409,4.8452,4.8336,4.8235,4.8274,4.8601,4.8582,4.8139,4.8274,4.8952,4.924,4.9399,4.9591,4.9663,4.9567,4.9317,4.9202,4.9057,4.8742,4.8767,4.9396]}]]